[[{"header":{"parameterUnit":"m.s-1","parameterCategory":1,"la1":31.0,"la2":29.5877,"lo1":-88.7671,"lo2":-86.6584,"dy":0.0162,"dx":0.0185,"nx":115,"ny":88,"refTime":"2026-03-23T12:00:00:Z","depth":0,"parameterNumber":2,"parameterNumberName":"U-component_of_WINDS"},"data":[0.0,0.0,0.0,0.0,0.0,0.0,0.0,0.0,0.0,0.0,0.0,0.0,0.0,0.0,0.0,0.0,0.0,0.0,0.0,0.0,0.0,0.0,0.0,0.0,0.0,0.0,0.0,0.0,0.0,0.0,0.0,0.0,0.0,0.0,0.0,0.0,0.0,0.0,0.0,0.0,0.0,0.0,0.0,0.0,0.0,0.0,0.0,0.0,0.0,0.0,0.0,0.0,0.0,0.0,0.0,0.0,0.0,0.0,0.0,0.0,0.0,0.0,0.0,0.0,0.0,0.0,0.0,0.0,0.0,0.0,0.0,0.0,0.0,0.0,0.0,0.0,0.0,0.0,0.0,0.0,0.0,0.0,0.0,0.0,0.0,0.0,0.0,0.0,0.0,0.0,0.0,0.0,0.0,0.0,0.0,0.0,0.0,0.0,0.0,0.0,0.0,0.0,0.0,0.0,0.0,0.0,0.0,0.0,0.0,0.0,0.0,0.0,0.0,0.0,0.0,0.0,0.0,0.0,0.0,0.0,0.0,0.0,0.0,0.0,0.0,0.0,0.0,0.0,0.0,0.0,0.0,0.0,0.0,0.0,0.0,0.0,0.0,0.0,0.0,0.0,0.0,0.0,0.0,0.0,0.0,0.0,0.0,0.0,0.0,0.0,0.0,0.0,0.0,0.0,0.0,0.0,0.0,0.0,0.0,0.0,0.0,0.0,0.0,0.0,0.0,0.0,0.0,0.0,0.0,0.0,0.0,0.0,0.0,0.0,0.0,0.0,0.0,0.0,0.0,0.0,0.0,0.0,0.0,0.0,0.0,0.0,0.0,0.0,0.0,0.0,0.0,0.0,0.0,0.0,0.0,0.0,0.0,0.0,0.0,0.0,0.0,0.0,0.0,0.0,0.0,0.0,0.0,0.0,0.0,0.0,0.0,0.0,0.0,0.0,0.0,0.0,0.0,0.0,0.0,0.0,0.0,0.0,0.0,0.0,0.0,0.0,0.0,0.0,0.0,0.0,0.0,0.0,0.0,0.0,0.0,0.0,0.0,0.0,0.0,0.0,0.0,0.0,0.0,0.0,0.0,0.0,0.0,0.0,0.0,0.0,0.0,0.0,0.0,0.0,0.0,0.0,0.0,0.0,0.0,0.0,0.0,0.0,0.0,0.0,0.0,0.0,0.0,0.0,0.0,0.0,0.0,0.0,0.0,0.0,0.0,0.0,0.0,0.0,0.0,0.0,0.0,0.0,0.0,0.0,0.0,0.0,0.0,0.0,0.0,0.0,0.0,0.0,0.0,0.0,0.0,0.0,0.0,0.0,0.0,0.0,0.0,0.0,0.0,0.0,0.0,0.0,0.0,0.0,0.0,0.0,0.0,0.0,0.0,0.0,0.0,0.0,0.0,0.0,0.0,0.0,0.0,0.0,0.0,0.0,0.0,0.0,0.0,0.0,0.0,0.0,0.0,0.0,0.0,0.0,0.0,0.0,0.0,0.0,0.0,0.0,0.0,0.0,0.0,0.0,0.0,0.0,0.0,0.0,0.0,0.0,0.0,0.0,0.0,0.0,0.0,0.0,0.0,0.0,0.0,0.0,0.0,0.0,0.0,0.0,0.0,0.0,0.0,0.0,0.0,0.0,0.0,0.0,0.0,0.0,0.0,0.0,0.0,0.0,0.0,0.0,0.0,0.0,0.0,0.0,0.0,0.0,0.0,0.0,0.0,0.0,0.0,0.0,0.0,0.0,0.0,0.0,0.0,0.0,0.0,0.0,0.0,0.0,0.0,0.0,0.0,0.0,0.0,0.0,0.0,0.0,0.0,0.0,0.0,0.0,0.0,0.0,0.0,0.0,0.0,0.0,0.0,0.0,0.0,0.0,0.0,0.0,0.0,0.0,0.0,0.0,0.0,0.0,0.0,0.0,0.0,0.0,0.0,0.0,0.0,0.0,0.0,0.0,0.0,0.0,0.0,0.0,0.0,0.0,0.0,0.0,0.0,0.0,0.0,0.0,0.0,0.0,0.0,0.0,0.0,0.0,0.0,0.0,0.0,0.0,0.0,0.0,0.0,0.0,0.0,0.0,0.0,0.0,0.0,0.0,0.0,0.0,0.0,0.0,0.0,0.0,0.0,0.0,0.0,0.0,0.0,0.0,0.0,0.0,0.0,0.0,0.0,0.0,0.0,0.0,0.0,0.0,0.0,0.0,0.0,0.0,0.0,0.0,0.0,0.0,0.0,0.0,0.0,0.0,0.0,0.0,0.0,0.0,0.0,0.0,0.0,0.0,0.0,0.0,0.0,0.0,0.0,0.0,0.0,0.0,0.0,0.0,0.0,0.0,0.0,0.0,0.0,0.0,0.0,0.0,0.0,0.0,0.0,0.0,0.0,0.0,0.0,0.0,0.0,0.0,0.0,0.0,0.0,0.0,0.0,0.0,0.0,0.0,0.0,0.0,0.0,0.0,0.0,0.0,0.0,0.0,0.0,0.0,0.0,0.0,0.0,0.0,0.0,0.0,0.0,0.0,0.0,0.0,0.0,0.0,0.0,0.0,0.0,0.0,0.0,0.0,0.0,0.0,0.0,0.0,0.0,0.0,0.0,0.0,0.0,0.0,0.0,0.0,0.0,0.0,0.0,0.0,0.0,0.0,0.0,0.0,0.0,0.0,0.0,0.0,0.0,0.0,0.0,0.0,0.0,0.0,0.0,0.0,0.0,0.0,0.0,0.0,0.0,0.0,0.0,0.0,0.0,0.0,0.0,0.0,0.0,0.0,0.0,0.0,0.0,0.0,0.0,0.0,0.0,0.0,0.0,0.0,0.0,0.0,0.0,0.0,0.0,0.0,0.0,0.0,0.0,0.0,0.0,0.0,0.0,0.0,0.0,0.0,0.0,0.0,0.0,0.0,0.0,0.0,0.0,0.0,0.0,0.0,0.0,0.0,0.0,0.0,0.0,0.0,0.0,0.0,0.0,0.0,0.0,0.0,0.0,0.0,0.0,0.0,0.0,0.0,0.0,0.0,0.0,0.0,0.0,0.0,0.0,0.0,0.0,0.0,0.0,0.0,0.0,0.0,0.0,0.0,0.0,0.0,0.0,0.0,0.0,0.0,0.0,0.0,0.0,0.0,0.0,0.0,0.0,0.0,0.0,0.0,0.0,0.0,0.0,0.0,0.0,0.0,0.0,0.0,0.0,0.0,0.0,0.0,0.0,0.0,0.0,0.0,0.0,0.0,0.0,0.0,0.0,0.0,0.0,0.0,0.0,0.0,0.0,0.0,0.0,0.0,0.0,0.0,0.0,0.0,0.0,0.0,0.0,0.0,0.0,0.0,0.0,0.0,0.0,0.0,0.0,0.0,0.0,0.0,0.0,0.0,0.0,0.0,0.0,0.0,0.0,0.0,0.0,0.0,0.0,0.0,0.0,0.0,0.0,0.0,0.0,0.0,0.0,0.0,0.0,0.0,0.0,0.0,0.0,0.0,0.0,0.0,0.0,0.0,0.0,0.0,0.0,0.0,0.0,0.0,0.0,0.0,0.0,0.0,0.0,0.0,0.0,0.0,0.0,0.0,0.0,0.0,0.0,0.0,0.0,0.0,0.0,0.0,0.0,0.0,0.0,0.0,0.0,0.0,0.0,0.0,0.0,0.0,0.0,0.0,0.0,0.0,0.0,0.0,0.0,0.0,0.0,0.0,0.0,0.0,0.0,0.0,0.0,0.0,0.0,0.0,0.0,0.0,0.0,0.0,0.0,0.0,0.0,0.0,0.0,0.0,0.0,0.0,0.0,0.0,0.0,0.0,0.0,0.0,0.0,0.0,0.0,0.0,0.0,0.0,0.0,0.0,0.0,0.0,0.0,0.0,0.0,0.0,0.0,0.0,0.0,0.0,0.0,0.0,0.0,0.0,0.0,0.0,0.0,0.0,0.0,0.0,0.0,0.0,0.0,0.0,0.0,0.0,0.0,0.0,0.0,0.0,0.0,0.0,0.0,0.0,0.0,0.0,0.0,0.0,0.0,0.0,0.0,0.0,0.0,0.0,0.0,0.0,0.0,0.0,0.0,0.0,0.0,0.0,0.0,0.0,0.0,0.0,0.0,0.0,0.0,0.0,0.0,0.0,0.0,0.0,0.0,0.0,0.0,0.0,0.0,0.0,0.0,0.0,0.0,0.0,0.0,0.0,0.0,0.0,0.0,0.0,0.0,0.0,0.0,0.0,0.0,0.0,0.0,0.0,0.0,0.0,0.0,0.0,0.0,0.0,0.0,0.0,0.0,0.0,-0.9698,0.0,0.0,0.0,0.0,0.0,0.0,0.0,0.0,0.0,0.0,0.0,0.0,0.0,0.0,0.0,0.0,0.0,0.0,0.0,0.0,0.0,0.0,0.0,0.0,0.0,0.0,0.0,0.0,0.0,0.0,0.0,0.0,0.0,0.0,0.0,0.0,0.0,0.0,0.0,0.0,0.0,0.0,0.0,0.0,0.0,0.0,0.0,0.0,0.0,0.0,0.0,0.0,0.0,0.0,0.0,0.0,0.0,0.0,0.0,0.0,0.0,0.0,0.0,0.0,0.0,0.0,0.0,0.0,0.0,0.0,0.0,0.0,0.0,0.0,0.0,0.0,0.0,0.0,0.0,0.0,0.0,0.0,0.0,0.0,0.0,0.0,0.0,0.0,0.0,0.0,0.0,0.0,0.0,0.0,0.0,0.0,0.0,0.0,0.0,0.0,0.0,0.0,0.0,0.0,0.0,0.0,0.0,0.0,0.0,0.0,-0.9671,-0.9601,-0.9597,-0.9546,-0.9478,0.0,0.0,0.0,0.0,0.0,0.0,0.0,0.0,0.0,0.0,0.0,0.0,0.0,0.0,0.0,0.0,0.0,0.0,0.0,0.0,0.0,0.0,0.0,0.0,0.0,0.0,0.0,0.0,0.0,0.0,0.0,0.0,0.0,0.0,0.0,0.0,0.0,0.0,0.0,0.0,0.0,0.0,0.0,0.0,0.0,0.0,0.0,0.0,0.0,0.0,0.0,0.0,0.0,0.0,0.0,0.0,0.0,0.0,0.0,0.0,0.0,0.0,0.0,0.0,0.0,0.0,0.0,0.0,0.0,0.0,0.0,0.0,0.0,0.0,0.0,0.0,0.0,0.0,0.0,0.0,0.0,0.0,0.0,0.0,0.0,0.0,0.0,0.0,0.0,0.0,0.0,0.0,0.0,0.0,0.0,0.0,0.0,0.0,0.0,0.0,0.0,0.0,0.0,0.0,0.0,0.0,0.0,0.0,0.0,0.0,0.0,0.0,-0.9713,-0.9654,-0.9541,0.0,0.0,0.0,0.0,0.0,0.0,0.0,0.0,0.0,0.0,0.0,0.0,0.0,0.0,0.0,0.0,0.0,0.0,0.0,0.0,0.0,0.0,0.0,0.0,0.0,0.0,0.0,0.0,0.0,0.0,0.0,0.0,0.0,0.0,0.0,0.0,0.0,0.0,0.0,0.0,0.0,0.0,0.0,0.0,0.0,0.0,0.0,0.0,0.0,0.0,0.0,0.0,0.0,0.0,0.0,0.0,0.0,0.0,0.0,0.0,0.0,0.0,0.0,0.0,0.0,0.0,0.0,0.0,0.0,0.0,0.0,0.0,0.0,0.0,0.0,0.0,0.0,0.0,0.0,0.0,0.0,0.0,0.0,0.0,0.0,0.0,0.0,0.0,0.0,0.0,0.0,0.0,0.0,0.0,0.0,0.0,0.0,0.0,0.0,0.0,0.0,0.0,0.0,0.0,0.0,0.0,0.0,0.0,0.0,0.0,-0.9785,-1.0311,-1.0318,0.0,-1.0267,0.0,0.0,0.0,0.0,0.0,0.0,0.0,0.0,0.0,0.0,0.0,0.0,0.0,0.0,0.0,0.0,0.0,0.0,0.0,0.0,0.0,0.0,0.0,0.0,0.0,0.0,0.0,0.0,0.0,0.0,0.0,0.0,0.0,0.0,0.0,0.0,0.0,0.0,0.0,0.0,0.0,0.0,0.0,0.0,0.0,0.0,0.0,0.0,0.0,0.0,0.0,0.0,0.0,0.0,0.0,0.0,0.0,0.0,0.0,0.0,0.0,0.0,0.0,0.0,0.0,0.0,0.0,0.0,0.0,0.0,0.0,0.0,0.0,0.0,0.0,0.0,0.0,0.0,0.0,0.0,0.0,0.0,0.0,0.0,0.0,0.0,0.0,0.0,0.0,0.0,0.0,0.0,0.0,0.0,0.0,0.0,0.0,0.0,0.0,0.0,0.0,0.0,0.0,0.0,0.0,0.0,0.0,0.0,0.0,0.0,-1.0199,-1.0267,-1.0204,-0.9967,0.0,0.0,0.0,0.0,0.0,0.0,0.0,0.0,0.0,0.0,0.0,0.0,0.0,0.0,0.0,0.0,0.0,0.0,0.0,0.0,0.0,0.0,0.0,0.0,0.0,0.0,0.0,0.0,0.0,0.0,0.0,0.0,0.0,0.0,0.0,0.0,0.0,0.0,0.0,0.0,0.0,0.0,0.0,0.0,0.0,0.0,0.0,0.0,0.0,0.0,0.0,0.0,0.0,0.0,0.0,0.0,0.0,0.0,0.0,0.0,0.0,0.0,0.0,0.0,0.0,0.0,0.0,0.0,0.0,0.0,0.0,0.0,0.0,0.0,0.0,0.0,0.0,0.0,0.0,0.0,0.0,0.0,0.0,0.0,0.0,0.0,0.0,0.0,0.0,0.0,0.0,0.0,0.0,0.0,0.0,0.0,0.0,0.0,0.0,0.0,0.0,0.0,0.0,0.0,0.0,0.0,0.0,0.0,0.0,0.0,-1.0359,0.0,-1.0431,-0.9955,-0.954,-0.9207,0.0,0.0,0.0,0.0,0.0,0.0,0.0,0.0,0.0,0.0,0.0,0.0,0.0,0.0,0.0,0.0,0.0,0.0,0.0,0.0,0.0,0.0,0.0,0.0,0.0,0.0,0.0,0.0,0.0,0.0,0.0,0.0,0.0,0.0,0.0,0.0,0.0,0.0,0.0,0.0,0.0,0.0,0.0,0.0,0.0,0.0,0.0,0.0,0.0,0.0,0.0,0.0,0.0,0.0,0.0,0.0,0.0,0.0,0.0,0.0,0.0,0.0,0.0,0.0,0.0,0.0,0.0,0.0,0.0,0.0,0.0,0.0,0.0,0.0,0.0,0.0,0.0,0.0,0.0,0.0,0.0,0.0,0.0,0.0,0.0,0.0,0.0,0.0,0.0,0.0,0.0,0.0,0.0,0.0,0.0,0.0,0.0,0.0,0.0,0.0,0.0,0.0,0.0,0.0,0.0,0.0,0.0,0.0,0.0,-1.0742,-1.0615,-1.0981,-0.9687,-0.9258,0.0,0.0,0.0,0.0,0.0,0.0,0.0,0.0,0.0,0.0,0.0,0.0,0.0,0.0,0.0,0.0,0.0,0.0,0.0,0.0,0.0,0.0,0.0,0.0,0.0,0.0,0.0,0.0,0.0,0.0,0.0,0.0,0.0,0.0,0.0,0.0,0.0,0.0,0.0,0.0,0.0,0.0,0.0,0.0,0.0,0.0,0.0,0.0,0.0,0.0,0.0,0.0,0.0,0.0,0.0,0.0,0.0,0.0,0.0,0.0,0.0,0.0,0.0,0.0,0.0,0.0,0.0,0.0,0.0,0.0,0.0,0.0,0.0,0.0,0.0,0.0,0.0,0.0,0.0,0.0,0.0,0.0,0.0,0.0,0.0,0.0,0.0,0.0,0.0,0.0,0.0,0.0,0.0,0.0,0.0,0.0,0.0,0.0,0.0,0.0,0.0,0.0,0.0,0.0,0.0,0.0,0.0,0.0,0.0,-1.0069,-1.0129,-1.0215,-1.0369,-0.9872,-0.9512,0.0,0.0,0.0,0.0,0.0,0.0,0.0,0.0,0.0,0.0,0.0,0.0,0.0,0.0,0.0,0.0,0.0,0.0,0.0,0.0,0.0,0.0,0.0,0.0,0.0,0.0,0.0,0.0,0.0,0.0,0.0,0.0,0.0,0.0,0.0,0.0,0.0,0.0,0.0,0.0,0.0,0.0,0.0,0.0,0.0,0.0,0.0,0.0,0.0,0.0,0.0,0.0,0.0,0.0,0.0,0.0,0.0,0.0,0.0,0.0,0.0,0.0,0.0,0.0,0.0,0.0,0.0,0.0,0.0,0.0,0.0,0.0,0.0,0.0,0.0,0.0,0.0,0.0,0.0,0.0,0.0,0.0,0.0,0.0,0.0,0.0,0.0,0.0,0.0,0.0,0.0,0.0,0.0,0.0,0.0,0.0,0.0,0.0,0.0,0.0,0.0,0.0,0.0,0.0,0.0,0.0,0.0,0.0,0.0,-0.96,0.0,-1.0007,0.0,-0.9754,-0.941,0.0,0.0,0.0,0.0,0.0,0.0,0.0,0.0,0.0,0.0,0.0,0.0,0.0,0.0,0.0,0.0,0.0,0.0,0.0,0.0,0.0,0.0,0.0,0.0,0.0,0.0,0.0,0.0,0.0,0.0,0.0,0.0,0.0,0.0,0.0,0.0,0.0,0.0,0.0,0.0,0.0,0.0,0.0,0.0,0.0,0.0,0.0,0.0,0.0,0.0,0.0,0.0,0.0,0.0,0.0,0.0,0.0,0.0,0.0,0.0,0.0,0.0,0.0,0.0,0.0,0.0,0.0,0.0,0.0,0.0,0.0,0.0,0.0,0.0,0.0,0.0,0.0,0.0,0.0,0.0,0.0,0.0,0.0,0.0,0.0,0.0,0.0,0.0,0.0,0.0,0.0,0.0,0.0,0.0,0.0,0.0,0.0,0.0,0.0,0.0,0.0,0.0,0.0,0.0,0.0,0.0,0.0,0.0,-0.9718,-1.0129,-1.0042,-1.0001,-0.9978,-0.9309,-0.8925,0.0,0.0,0.0,0.0,0.0,0.0,0.0,0.0,0.0,0.0,0.0,0.0,0.0,0.0,0.0,0.0,0.0,0.0,0.0,0.0,0.0,0.0,0.0,0.0,0.0,0.0,0.0,0.0,0.0,0.0,0.0,0.0,0.0,0.0,0.0,0.0,0.0,0.0,0.0,0.0,0.0,0.0,0.0,0.0,0.0,0.0,0.0,0.0,0.0,0.0,0.0,0.0,0.0,0.0,0.0,0.0,0.0,0.0,0.0,0.0,0.0,0.0,0.0,0.0,0.0,0.0,0.0,0.0,0.0,0.0,0.0,0.0,0.0,0.0,0.0,0.0,0.0,0.0,0.0,0.0,0.0,0.0,0.0,0.0,0.0,0.0,0.0,0.0,0.0,0.0,0.0,0.0,0.0,0.0,0.0,0.0,0.0,0.0,0.0,0.0,0.0,0.0,0.0,0.0,0.0,0.0,0.0,0.0,0.0,-0.9459,-0.9822,-0.9897,-0.9719,-0.9198,-0.9053,0.0,0.0,0.0,0.0,0.0,0.0,0.0,0.0,0.0,0.0,0.0,0.0,0.0,0.0,0.0,0.0,0.0,0.0,0.0,0.0,0.0,0.0,0.0,0.0,0.0,0.0,0.0,0.0,0.0,0.0,0.0,0.0,0.0,0.0,0.0,0.0,0.0,0.0,0.0,0.0,0.0,0.0,0.0,0.0,0.0,0.0,0.0,0.0,0.0,0.0,0.0,0.0,0.0,0.0,0.0,0.0,0.0,0.0,0.0,0.0,0.0,0.0,0.0,0.0,0.0,0.0,0.0,0.0,0.0,0.0,0.0,0.0,0.0,0.0,0.0,0.0,0.0,0.0,0.0,0.0,0.0,0.0,0.0,0.0,0.0,0.0,0.0,0.0,0.0,0.0,0.0,0.0,0.0,0.0,0.0,0.0,0.0,0.0,0.0,0.0,0.0,0.0,0.0,0.0,0.0,0.0,0.0,0.0,0.0,-0.9492,-1.0074,-1.0189,-0.9772,-0.945,-0.9311,-0.9309,0.0,0.0,0.0,0.0,0.0,0.0,0.0,0.0,0.0,0.0,0.0,0.0,0.0,0.0,0.0,0.0,0.0,0.0,0.0,0.0,0.0,0.0,0.0,0.0,0.0,0.0,0.0,0.0,0.0,0.0,0.0,0.0,0.0,0.0,0.0,0.0,0.0,0.0,0.0,0.0,0.0,0.0,0.0,0.0,0.0,0.0,0.0,0.0,0.0,0.0,0.0,0.0,0.0,0.0,0.0,0.0,0.0,0.0,0.0,0.0,0.0,0.0,0.0,0.0,0.0,0.0,0.0,0.0,0.0,0.0,0.0,0.0,0.0,0.0,0.0,0.0,0.0,0.0,0.0,0.0,0.0,0.0,0.0,0.0,0.0,0.0,0.0,0.0,0.0,0.0,0.0,0.0,0.0,0.0,0.0,0.0,0.0,0.0,0.0,0.0,0.0,0.0,0.0,0.0,0.0,0.0,0.0,0.0,-1.0085,-1.0812,-1.0832,-1.0047,-0.9969,-0.9644,0.0,0.0,0.0,0.0,0.0,0.0,0.0,0.0,0.0,0.0,0.0,0.0,0.0,0.0,0.0,0.0,0.0,0.0,0.0,0.0,0.0,0.0,0.0,0.0,0.0,0.0,0.0,0.0,0.0,0.0,0.0,0.0,0.0,0.0,0.0,0.0,0.0,0.0,0.0,0.0,0.0,0.0,0.0,0.0,0.0,0.0,0.0,0.0,0.0,0.0,0.0,0.0,0.0,0.0,0.0,0.0,0.0,0.0,0.0,0.0,0.0,0.0,0.0,0.0,0.0,0.0,0.0,0.0,0.0,0.0,0.0,0.0,0.0,0.0,0.0,0.0,0.0,0.0,0.0,0.0,0.0,0.0,0.0,0.0,0.0,0.0,0.0,0.0,0.0,0.0,0.0,0.0,0.0,0.0,0.0,0.0,0.0,0.0,0.0,0.0,0.0,0.0,0.0,0.0,0.0,0.0,0.0,0.0,0.0,-1.0852,-1.1923,-1.1827,-1.0425,-0.994,-0.9573,0.0,0.0,0.0,0.0,0.0,0.0,0.0,0.0,0.0,0.0,0.0,0.0,0.0,0.0,0.0,0.0,0.0,0.0,0.0,0.0,0.0,0.0,0.0,0.0,0.0,0.0,0.0,0.0,0.0,0.0,0.0,0.0,0.0,0.0,0.0,0.0,0.0,0.0,0.0,0.0,0.0,0.0,0.0,0.0,0.0,0.0,0.0,0.0,0.0,0.0,0.0,0.0,0.0,0.0,0.0,0.0,0.0,0.0,0.0,0.0,0.0,0.0,0.0,0.0,0.0,0.0,0.0,0.0,0.0,0.0,0.0,0.0,0.0,0.0,0.0,0.0,0.0,0.0,0.0,0.0,0.0,0.0,0.0,0.0,0.0,0.0,0.0,0.0,0.0,0.0,0.0,0.0,0.0,0.0,0.0,0.0,0.0,0.0,0.0,0.0,0.0,0.0,0.0,0.0,0.0,0.0,0.0,0.0,-1.1028,-1.1106,-1.1843,-1.1686,-1.0519,-1.043,-1.0086,0.0,0.0,0.0,0.0,0.0,0.0,0.0,0.0,0.0,0.0,0.0,0.0,0.0,0.0,0.0,0.0,0.0,0.0,0.0,0.0,0.0,0.0,0.0,0.0,0.0,0.0,0.0,0.0,0.0,0.0,0.0,0.0,0.0,0.0,0.0,0.0,0.0,0.0,0.0,0.0,0.0,0.0,0.0,0.0,0.0,0.0,0.0,0.0,0.0,0.0,0.0,0.0,0.0,0.0,0.0,0.0,0.0,0.0,0.0,0.0,0.0,0.0,0.0,0.0,0.0,0.0,0.0,0.0,0.0,0.0,0.0,0.0,0.0,0.0,0.0,0.0,0.0,0.0,0.0,0.0,0.0,0.0,0.0,0.0,0.0,0.0,0.0,0.0,0.0,0.0,0.0,0.0,0.0,0.0,0.0,0.0,0.0,0.0,0.0,0.0,0.0,0.0,0.0,0.0,0.0,0.0,0.0,0.0,-1.0838,-1.1085,-1.1105,-1.0921,-1.0511,-1.1035,-1.074,0.0,0.0,0.0,0.0,0.0,0.0,0.0,0.0,0.0,0.0,0.0,0.0,0.0,0.0,0.0,0.0,0.0,0.0,0.0,0.0,0.0,0.0,0.0,0.0,0.0,0.0,0.0,0.0,0.0,0.0,0.0,0.0,0.0,0.0,0.0,0.0,0.0,0.0,0.0,0.0,0.0,0.0,0.0,0.0,0.0,0.0,0.0,0.0,0.0,0.0,0.0,0.0,0.0,0.0,0.0,0.0,0.0,0.0,0.0,0.0,0.0,0.0,0.0,0.0,0.0,0.0,0.0,0.0,0.0,0.0,0.0,0.0,0.0,0.0,0.0,0.0,0.0,0.0,0.0,0.0,0.0,0.0,0.0,0.0,0.0,0.0,0.0,0.0,0.0,0.0,0.0,0.0,0.0,0.0,0.0,0.0,0.0,0.0,0.0,0.0,0.0,0.0,0.0,0.0,0.0,0.0,0.0,0.0,-1.0423,-1.091,-1.0744,-1.0525,-1.0275,-1.0356,-1.0101,0.0,0.0,0.0,0.0,0.0,0.0,0.0,0.0,0.0,0.0,0.0,0.0,0.0,0.0,0.0,0.0,0.0,0.0,0.0,0.0,0.0,0.0,0.0,0.0,0.0,0.0,0.0,0.0,0.0,0.0,0.0,0.0,0.0,0.0,0.0,0.0,0.0,0.0,0.0,0.0,0.0,0.0,0.0,0.0,0.0,0.0,0.0,0.0,-0.2043,0.0,0.0,0.0,0.0,0.0,0.0,0.0,0.0,0.0,0.0,0.0,0.0,0.0,0.0,0.0,0.0,0.0,0.0,0.0,0.0,0.0,0.0,0.0,0.0,0.0,0.0,0.0,0.0,0.0,0.0,0.0,0.0,0.0,0.0,0.0,0.0,0.0,0.0,0.0,0.0,0.0,0.0,0.0,0.0,0.0,0.0,0.0,0.0,0.0,0.0,0.0,0.0,0.0,0.0,0.0,0.0,0.0,0.0,0.0,-1.0449,-1.0858,-1.0152,-0.9733,-0.9693,-0.9898,-0.9737,0.0,0.0,0.0,0.0,0.0,0.0,0.0,0.0,0.0,0.0,0.0,0.0,0.0,0.0,0.0,0.0,0.0,0.0,0.0,0.0,0.0,0.0,0.0,0.0,0.0,0.0,0.0,0.0,0.0,0.0,0.0,0.0,0.0,0.0,0.0,0.0,0.0,0.0,0.0,0.0,0.0,0.0,0.0,0.0,0.0,0.0,0.0,0.0,0.0,0.0,0.0,0.0,0.0,0.0,0.0,0.0,0.0,0.0,0.0,0.0,0.0,0.0,0.0,0.0,0.0,0.0,0.0,0.0,0.0,0.0,0.0,0.0,0.0,0.0,0.0,0.0,0.0,0.0,0.0,0.0,0.0,0.0,0.0,0.0,0.0,0.0,0.0,0.0,0.0,0.0,0.0,0.0,0.0,0.0,0.0,0.0,0.0,0.0,0.0,0.0,0.0,0.0,0.0,0.0,0.0,0.0,0.0,-1.0595,-1.0449,-1.0789,-0.9522,-0.885,-0.8919,-0.9548,-0.9524,-0.88,0.0,0.0,0.0,0.0,0.0,0.0,0.0,0.0,0.0,0.0,0.0,0.0,0.0,0.0,0.0,0.0,0.0,0.0,0.0,0.0,0.0,0.0,0.0,0.0,0.0,0.0,0.0,0.0,0.0,0.0,0.0,0.0,0.0,0.0,0.0,0.0,0.0,0.0,-0.3278,-0.4014,0.0,0.0,0.0,0.0,0.0,0.0,0.0,0.0,-0.238,0.0,0.0,0.0,0.0,0.0,0.0,0.0,0.0,0.0,0.0,0.0,0.0,0.0,0.0,0.0,0.0,0.0,0.0,0.0,0.0,0.0,0.0,0.0,0.0,0.0,0.0,0.0,0.0,0.0,0.0,0.0,0.0,0.0,0.0,0.0,0.0,0.0,0.0,0.0,0.0,0.0,0.0,0.0,0.0,0.0,0.0,0.0,0.0,0.0,0.0,0.0,0.0,0.0,0.0,0.0,0.0,-1.2068,-1.0171,-0.9653,-1.0597,-0.924,-0.8354,-0.8138,-0.9263,-0.9315,-0.8207,0.0,0.0,0.0,0.0,0.0,0.0,0.0,0.0,0.0,0.0,0.0,0.0,0.0,0.0,0.0,0.0,0.0,0.0,0.0,0.0,0.0,0.0,0.0,0.0,0.0,0.0,0.0,0.0,0.0,0.0,0.0,0.0,0.0,0.0,0.0,0.0,0.0,0.0,0.0,-0.4197,-0.4485,0.0,0.0,0.0,0.0,0.0,0.0,0.0,0.0,-0.2258,0.0,0.0,0.0,0.0,0.0,0.0,0.0,0.0,0.0,0.0,0.0,0.0,0.0,0.0,0.0,0.0,0.0,0.0,0.0,0.0,0.0,0.0,0.0,0.0,0.0,0.0,0.0,0.0,0.0,0.0,0.0,0.0,0.0,0.0,0.0,0.0,0.0,0.0,0.0,0.0,0.0,0.0,0.0,0.0,0.0,0.0,0.0,0.0,0.0,0.0,0.0,0.0,0.0,0.0,0.0,-1.0918,-1.0072,-0.9688,-0.989,-0.8748,-0.8061,-0.7921,-0.8867,-0.8904,0.0,0.0,0.0,0.0,0.0,0.0,0.0,0.0,0.0,0.0,0.0,0.0,0.0,0.0,0.0,0.0,0.0,0.0,0.0,0.0,0.0,0.0,0.0,0.0,0.0,0.0,0.0,0.0,0.0,0.0,0.0,0.0,0.0,0.0,0.0,0.0,0.0,0.0,0.0,0.0,-0.4424,-0.4737,-0.4531,0.0,0.0,0.0,0.0,0.0,0.0,-0.289,-0.2769,0.0,0.0,0.0,0.0,0.0,0.0,0.0,0.0,0.0,0.0,0.0,0.0,0.0,0.0,0.0,0.0,0.0,0.0,0.0,0.0,0.0,0.0,0.0,0.0,0.0,0.0,0.0,0.0,0.0,0.0,0.0,0.0,0.0,0.0,0.0,0.0,0.0,0.0,0.0,0.0,0.0,0.0,0.0,0.0,0.0,0.0,0.0,0.0,0.0,0.0,0.0,0.0,0.0,0.0,0.0,-0.9818,-0.9961,-0.9797,-0.9295,-0.8413,-0.7927,-0.7921,-0.8679,-0.8732,0.0,0.0,0.0,0.0,0.0,0.0,0.0,0.0,0.0,0.0,0.0,0.0,0.0,0.0,0.0,0.0,0.0,0.0,0.0,0.0,0.0,0.0,0.0,0.0,0.0,0.0,0.0,0.0,0.0,0.0,0.0,0.0,0.0,0.0,0.0,0.0,0.0,0.0,0.0,0.0,0.0,-0.4952,-0.4561,-0.4326,0.0,0.0,0.0,0.0,-0.3092,-0.324,0.0,0.0,0.0,0.0,0.0,0.0,0.0,0.0,0.0,0.0,0.0,0.0,0.0,0.0,0.0,0.0,0.0,0.0,0.0,0.0,0.0,0.0,0.0,0.0,0.0,0.0,0.0,0.0,0.0,0.0,0.0,0.0,0.0,0.0,0.0,0.0,0.0,0.0,0.0,0.0,0.0,0.0,0.0,0.0,0.0,0.0,0.0,0.0,0.0,0.0,0.0,0.0,0.0,0.0,0.0,0.0,-0.9791,-0.9602,-0.9425,-0.9271,-0.8504,-0.8016,-0.7921,-0.9128,-0.9203,0.0,0.0,0.0,0.0,0.0,0.0,0.0,0.0,0.0,0.0,0.0,0.0,0.0,0.0,0.0,0.0,0.0,0.0,0.0,0.0,0.0,0.0,0.0,0.0,0.0,0.0,0.0,0.0,0.0,0.0,0.0,0.0,0.0,0.0,0.0,0.0,0.0,0.0,0.0,0.0,0.0,-0.4971,-0.4561,-0.4567,-0.4633,0.0,0.0,-0.3582,-0.3745,-0.3417,0.0,0.0,0.0,0.0,0.0,0.0,0.0,0.0,0.0,0.0,0.0,0.0,0.0,0.0,0.0,0.0,0.0,0.0,0.0,0.0,0.0,0.0,0.0,0.0,0.0,0.0,0.0,0.0,0.0,0.0,0.0,0.0,0.0,0.0,0.0,0.0,0.0,0.0,0.0,0.0,0.0,0.0,0.0,0.0,0.0,0.0,0.0,0.0,0.0,0.0,0.0,0.0,0.0,0.0,0.0,-0.9706,-0.9058,-0.9468,-0.9303,-0.8529,-0.8156,-0.7948,-0.7906,-0.8461,-0.8491,0.0,0.0,0.0,0.0,0.0,0.0,0.0,0.0,0.0,0.0,0.0,0.0,0.0,0.0,0.0,0.0,0.0,0.0,0.0,0.0,0.0,0.0,0.0,0.0,0.0,0.0,0.0,0.0,0.0,0.0,0.0,0.0,0.0,0.0,0.0,0.0,0.0,0.0,0.0,0.0,0.0,0.0,-0.4855,-0.4762,0.0,0.0,0.0,-0.3878,-0.3692,0.0,0.0,0.0,0.0,0.0,0.0,0.0,0.0,0.0,0.0,0.0,0.0,0.0,0.0,0.0,0.0,0.0,0.0,0.0,0.0,0.0,0.0,0.0,0.0,0.0,0.0,0.0,0.0,0.0,0.0,0.0,0.0,0.0,0.0,0.0,0.0,0.0,0.0,0.0,0.0,0.0,0.0,0.0,0.0,0.0,0.0,0.0,0.0,0.0,0.0,0.0,0.0,0.0,0.0,0.0,0.0,0.0,-0.846,-0.9392,-0.9246,-0.7944,-0.7906,-0.7906,-0.7899,-0.8071,0.0,0.0,0.0,0.0,0.0,0.0,0.0,0.0,0.0,0.0,0.0,0.0,0.0,0.0,0.0,0.0,0.0,0.0,0.0,0.0,0.0,0.0,0.0,0.0,0.0,0.0,0.0,-0.3675,0.0,0.0,0.0,0.0,0.0,0.0,0.0,0.0,0.0,0.0,0.0,0.0,0.0,0.0,-0.5098,-0.5098,-0.4883,-0.4625,0.0,0.0,-0.4058,-0.3668,-0.3703,-0.3741,0.0,0.0,0.0,0.0,0.0,0.0,0.0,0.0,0.0,0.0,0.0,0.0,0.0,0.0,0.0,0.0,0.0,0.0,0.0,0.0,0.0,0.0,0.0,0.0,0.0,0.0,0.0,0.0,0.0,0.0,0.0,0.0,0.0,0.0,0.0,0.0,0.0,0.0,0.0,0.0,0.0,0.0,0.0,0.0,0.0,0.0,0.0,0.0,0.0,0.0,0.0,0.0,0.0,0.0,0.0,-0.8479,-0.9392,-0.9255,-0.7966,-0.7906,-0.7906,-0.7914,-0.8499,-0.8522,0.0,0.0,0.0,0.0,0.0,0.0,0.0,0.0,0.0,0.0,0.0,0.0,0.0,0.0,0.0,0.0,0.0,0.0,0.0,0.0,0.0,0.0,0.0,0.0,0.0,0.0,0.0,0.0,0.0,0.0,0.0,0.0,0.0,0.0,0.0,0.0,0.0,0.0,0.0,0.0,0.0,-0.5098,-0.5098,-0.4864,-0.4696,0.0,0.0,-0.3921,-0.389,-0.3678,-0.3506,-0.3506,0.0,0.0,0.0,0.0,0.0,0.0,0.0,0.0,0.0,0.0,0.0,0.0,0.0,0.0,0.0,0.0,0.0,0.0,0.0,0.0,0.0,0.0,0.0,0.0,0.0,0.0,0.0,0.0,0.0,0.0,0.0,0.0,0.0,0.0,0.0,0.0,0.0,0.0,0.0,0.0,0.0,0.0,0.0,0.0,0.0,0.0,0.0,0.0,0.0,0.0,0.0,0.0,0.0,-0.9538,-0.8444,-0.9392,-0.945,-0.8552,-0.8117,-0.8086,-0.8507,-0.8762,-0.8589,0.0,0.0,0.0,0.0,0.0,0.0,0.0,0.0,0.0,0.0,0.0,0.0,0.0,0.0,0.0,0.0,0.0,0.0,0.0,0.0,0.0,0.0,0.0,0.0,0.0,0.0,0.0,0.0,-0.3921,-0.4062,-0.3985,0.0,0.0,0.0,0.0,0.0,0.0,0.0,0.0,0.0,0.0,-0.5098,-0.5098,-0.502,0.0,0.0,-0.4527,-0.4344,-0.4163,-0.3921,-0.3751,-0.3734,-0.3526,0.0,0.0,0.0,0.0,0.0,0.0,0.0,0.0,0.0,0.0,0.0,0.0,0.0,0.0,0.0,0.0,0.0,0.0,0.0,0.0,0.0,0.0,0.0,0.0,0.0,0.0,0.0,0.0,0.0,0.0,0.0,0.0,0.0,0.0,0.0,0.0,0.0,0.0,0.0,0.0,0.0,0.0,0.0,0.0,0.0,0.0,0.0,0.0,0.0,0.0,0.0,0.0,-0.9522,-0.8338,-0.9542,-0.9764,-0.892,-0.8447,-0.8432,-0.8875,-0.8694,-0.8394,0.0,0.0,0.0,0.0,0.0,0.0,0.0,0.0,0.0,0.0,0.0,0.0,0.0,0.0,0.0,0.0,0.0,0.0,0.0,0.0,0.0,0.0,0.0,0.0,0.0,0.0,0.0,0.0,-0.4273,-0.4309,-0.4107,0.0,0.0,0.0,0.0,0.0,0.0,0.0,0.0,0.0,0.0,-0.5146,-0.5283,-0.5322,-0.528,-0.5216,-0.503,-0.4853,-0.4666,-0.4404,-0.4192,-0.4032,0.0,0.0,0.0,0.0,0.0,0.0,0.0,0.0,0.0,0.0,0.0,0.0,0.0,0.0,0.0,0.0,0.0,0.0,0.0,0.0,0.0,0.0,0.0,0.0,0.0,0.0,0.0,0.0,0.0,0.0,0.0,0.0,0.0,0.0,0.0,0.0,0.0,0.0,0.0,0.0,0.0,0.0,0.0,0.0,0.0,0.0,0.0,0.0,0.0,0.0,0.0,0.0,0.0,-0.9451,-0.8173,-0.9859,-1.0165,-0.8988,-0.8875,-0.8898,-0.8897,-0.8274,-0.7929,-0.7921,0.0,0.0,0.0,0.0,0.0,0.0,0.0,0.0,0.0,0.0,0.0,0.0,0.0,0.0,0.0,0.0,0.0,0.0,0.0,0.0,0.0,0.0,0.0,0.0,0.0,0.0,-0.4949,-0.4656,-0.4132,0.0,0.0,0.0,0.0,0.0,0.0,0.0,0.0,0.0,0.0,-0.5009,-0.5263,-0.5714,-0.5773,-0.591,-0.6256,-0.581,-0.5379,-0.5369,-0.5135,-0.4824,0.0,0.0,0.0,0.0,0.0,0.0,0.0,0.0,0.0,0.0,0.0,0.0,0.0,0.0,0.0,0.0,0.0,0.0,0.0,0.0,0.0,0.0,0.0,0.0,0.0,0.0,0.0,-1.0019,-0.9255,0.0,0.0,0.0,0.0,0.0,0.0,0.0,0.0,0.0,0.0,0.0,-1.0693,-1.111,0.0,0.0,0.0,0.0,0.0,0.0,0.0,0.0,0.0,0.0,0.0,0.0,-0.9564,-0.8857,-1.0106,-1.0598,-1.0174,-0.9764,-0.9578,-0.9569,-0.9345,-0.9032,-0.8559,0.0,0.0,0.0,0.0,0.0,0.0,0.0,0.0,0.0,0.0,0.0,0.0,0.0,0.0,0.0,0.0,0.0,0.0,0.0,0.0,0.0,0.0,0.0,0.0,0.0,-0.4714,0.0,0.0,0.0,0.0,0.0,0.0,0.0,0.0,0.0,0.0,0.0,-0.5414,-0.5729,-0.5654,-0.5723,-0.6143,-0.6203,-0.6152,0.0,0.0,0.0,0.0,0.0,0.0,0.0,0.0,0.0,0.0,0.0,0.0,0.0,0.0,-0.2876,-0.2021,-0.1751,-0.167,-0.1672,0.0,0.0,0.0,0.0,0.0,0.0,0.0,0.0,0.0,0.0,0.0,0.0,0.0,0.0,0.0,0.0,-1.0653,0.0,0.0,0.0,0.0,0.0,0.0,0.0,0.0,-1.1895,-1.2269,-1.1858,-1.2299,-1.2272,0.0,-1.167,-1.1017,0.0,0.0,0.0,0.0,0.0,0.0,0.0,0.0,-0.9764,-0.9436,-1.0551,-1.1047,-1.0798,-1.0419,-1.0105,-0.9905,-0.945,-0.9008,-0.8567,-0.7929,-0.7682,0.0,0.0,0.0,0.0,0.0,0.0,0.0,0.0,0.0,0.0,0.0,0.0,0.0,0.0,0.0,0.0,0.0,0.0,0.0,0.0,0.0,0.0,0.0,-0.5182,0.0,0.0,0.0,0.0,0.0,0.0,0.0,0.0,0.0,-0.5415,-0.5592,-0.5857,-0.616,-0.5976,-0.5986,-0.6562,0.0,0.0,0.0,0.0,0.0,0.0,0.0,-0.5783,-0.5916,-0.5269,-0.4655,-0.4402,-0.3952,-0.3584,-0.34,0.0,0.0,-0.2275,-0.2056,-0.1963,-0.1831,-0.1736,-0.1627,-0.1504,-0.1377,-0.1183,0.0,0.0,0.0,0.0,0.0,0.0,0.0,0.0,-1.2059,-1.2373,0.0,-1.2205,0.0,0.0,0.0,0.0,0.0,0.0,0.0,0.0,-1.3259,-1.3857,-1.3842,-1.387,-1.3827,-1.3885,-1.4406,-1.3703,-1.185,-1.0648,0.0,0.0,0.0,0.0,0.0,0.0,-1.0068,-0.9974,-1.1157,-1.1465,-1.0872,-1.0827,-1.0529,-0.9905,-0.8633,-0.7959,-0.7929,-0.8492,-0.8574,-0.7959,-0.7892,0.0,0.0,0.0,0.0,0.0,0.0,0.0,0.0,0.0,0.0,0.0,0.0,0.0,0.0,0.0,0.0,0.0,0.0,0.0,0.0,-0.5618,0.0,0.0,0.0,0.0,0.0,0.0,0.0,0.0,0.0,0.0,-0.556,-0.5918,-0.6244,-0.6286,0.0,0.0,0.0,0.0,-0.6731,-0.752,-0.7324,-0.7061,-0.7031,-0.666,-0.625,-0.588,0.0,0.0,-0.4101,-0.3918,-0.3734,-0.3228,-0.3153,-0.3121,-0.3088,-0.281,-0.2526,-0.2254,-0.1967,-0.1803,-0.177,-0.1552,-0.1319,-1.6877,0.0,0.0,0.0,0.0,-1.5293,-1.5562,-1.6009,-1.6024,-1.5351,-1.4212,-1.4032,0.0,0.0,0.0,0.0,0.0,0.0,-1.322,-1.3959,-1.4812,-1.523,-1.523,-1.5215,-1.4975,-1.4513,-1.4229,-1.378,-1.3229,-1.2855,-1.1766,-0.9992,0.0,0.0,0.0,0.0,-1.1072,-1.0638,-1.1361,-1.1704,-1.151,-1.1506,-1.1012,-0.9929,-0.9077,-0.8387,-0.7936,-0.8086,-0.8319,-0.8597,-0.8019,0.0,0.0,0.0,0.0,0.0,0.0,0.0,0.0,0.0,0.0,0.0,0.0,0.0,0.0,0.0,0.0,0.0,0.0,0.0,-0.5674,-0.5433,-0.5249,0.0,0.0,0.0,0.0,0.0,0.0,0.0,0.0,0.0,-0.6639,-0.689,-0.7293,0.0,0.0,-0.77,-0.8231,-0.7711,-0.724,-0.7199,0.0,0.0,0.0,-0.6056,-0.6037,-0.6191,-0.5784,-0.5205,-0.4657,-0.4177,-0.3848,-0.3682,-0.3499,-0.3319,-0.3127,-0.2686,-0.235,-0.2204,-0.1989,-0.1803,-0.1792,-0.1729,-0.1593,-1.9779,-1.861,-1.7715,-1.755,-1.7863,-1.7608,-1.7728,-1.8072,-1.7802,-1.7191,-1.6323,-1.6069,-1.5262,-1.4126,-1.3872,0.0,0.0,0.0,-1.5037,-1.5561,-1.6234,-1.6548,-1.6563,-1.6548,-1.6204,-1.556,-1.5128,-1.4679,-1.4199,-1.4468,-1.354,-1.1506,0.0,0.0,-1.0683,-1.1161,-1.1346,-1.1236,-1.1585,-1.1816,-1.1801,-1.154,-1.1032,-1.0269,-0.9368,-0.8725,-0.8312,-0.8304,-0.8484,-0.8875,-0.839,-0.8121,0.0,0.0,0.0,0.0,0.0,0.0,0.0,0.0,0.0,0.0,0.0,-0.4765,-0.4232,0.0,0.0,0.0,-0.4697,-0.5049,-0.5505,-0.5599,0.0,0.0,0.0,0.0,0.0,0.0,0.0,-0.6582,-0.6963,-0.7215,-0.723,-0.7756,-0.8051,-0.7761,-0.7611,-0.7626,-0.7949,0.0,-0.6974,-0.6797,-0.6561,-0.6318,-0.6074,-0.589,-0.5822,-0.5879,-0.5575,-0.519,-0.4818,-0.4369,-0.4035,-0.3903,-0.3689,-0.3453,-0.3287,-0.288,-0.247,-0.2252,-0.2066,-0.1935,-0.1825,-0.1803,-0.1736,-2.1864,-2.1739,-2.0531,-1.9962,-1.9794,-1.9196,-1.8957,-1.8882,-1.8296,-1.8341,-1.879,-1.8207,-1.7893,-1.7743,-1.7069,0.0,0.0,-1.7175,-1.7384,-1.6875,-1.7488,-1.7757,-1.7788,-1.7773,-1.7428,-1.6786,-1.6771,-1.6159,-1.5035,-1.5574,-1.5215,-1.3947,-1.2732,-1.2089,-1.2014,-1.147,-1.1465,-1.2044,-1.1999,-1.1925,-1.1805,-1.1196,-1.0842,-1.0708,-0.9599,-0.895,-0.8905,-0.8898,-0.8935,-0.904,-0.8925,-0.8774,-0.8556,0.0,0.0,0.0,0.0,0.0,0.0,0.0,0.0,0.0,0.0,0.0,0.0,0.0,0.0,0.0,-0.5355,0.0,-0.515,-0.6021,0.0,0.0,0.0,-0.7153,-0.6662,-0.659,-0.6611,-0.6653,0.0,0.0,0.0,0.0,-0.8493,-0.6863,-0.6711,-0.6837,-0.7008,-0.6765,-0.6441,-0.6629,-0.6496,-0.6443,-0.6357,-0.6056,-0.5665,-0.5253,-0.5098,-0.5029,-0.4783,-0.4534,-0.4252,-0.4004,-0.371,-0.3527,-0.3517,-0.3266,-0.2934,-0.24,-0.2237,-0.2106,-0.1902,-0.1825,-0.1803,-2.3146,-2.3116,-2.2802,-2.2113,-2.1235,-2.1051,-2.0991,-2.0961,-2.0827,-2.0557,-2.021,-2.006,-1.9418,-1.8431,-1.7773,-1.7369,-1.7265,-1.7579,-1.7893,-1.8222,-1.8386,-1.8461,-1.8478,-1.8478,-1.8117,-1.7488,-1.7474,-1.7056,-1.6278,-1.6398,-1.6099,-1.5335,-1.5004,-1.4586,-1.4137,-1.4421,-1.4436,-1.4092,-1.3585,-1.2825,-1.1835,-1.164,-1.1106,-1.0153,-0.9815,-0.9413,-0.8935,-0.8921,-0.9338,-1.0254,-0.9239,-0.8796,-0.9218,-0.7627,0.0,0.0,0.0,0.0,0.0,0.0,0.0,0.0,0.0,-0.5714,-0.5392,0.0,-0.6037,0.0,-0.5486,-0.5859,-0.6323,-0.6503,0.0,0.0,-0.6878,-0.6737,-0.662,-0.659,-0.6753,-0.7169,-0.7716,-0.8087,-0.8087,-0.8686,-0.8791,-0.7992,-0.8581,-0.9095,-0.9142,-0.8549,-0.8038,-0.7744,-0.7202,-0.6763,-0.6425,-0.6055,-0.5645,-0.5176,-0.5098,-0.5078,-0.502,-0.4794,-0.4525,-0.4252,-0.3983,-0.3762,-0.3548,-0.3442,-0.3277,-0.2934,-0.2519,-0.2187,-0.2121,-0.1957,-0.1803,-2.4328,-2.4036,-2.4036,-2.346,-2.2517,-2.2269,-2.2128,-2.2113,-2.1829,-2.1485,-2.1141,-2.1156,-2.0737,-2.0019,-1.9627,-1.9495,-1.9447,-1.9163,-1.9238,-1.9552,-1.9286,-1.9136,-1.9136,-1.9136,-1.8792,-1.8147,-1.8132,-1.7803,-1.716,-1.6861,-1.6532,-1.6204,-1.5934,-1.5754,-1.5651,-1.574,-1.5619,-1.5245,-1.4288,-1.3301,-1.2269,-1.1954,-1.1461,-1.0772,-1.0752,-1.0438,-0.9779,-0.9749,-0.9959,-1.0329,-0.9298,-0.8883,-0.9256,-0.8103,-0.7387,0.0,0.0,0.0,0.0,0.0,0.0,0.0,0.0,0.0,0.0,0.0,-0.6783,0.0,-0.6,0.0,-0.6668,-0.6865,-0.6969,-0.705,-0.7228,-0.726,-0.7,-0.7209,-0.7473,-0.7753,-0.81,-0.8298,-0.8311,-0.8762,-0.8988,-0.8712,-0.9378,-0.9679,-0.9107,-0.8608,-0.8181,-0.7727,-0.729,-0.6858,-0.6455,-0.6211,-0.5908,-0.5518,-0.5399,-0.5351,-0.5137,-0.4874,-0.4645,-0.4485,-0.4171,-0.3869,-0.371,-0.3563,-0.3486,-0.3447,-0.3017,-0.2605,-0.2443,-0.2099,-0.1814,-2.5247,-2.4724,-2.4724,-2.4358,-2.3699,-2.3167,-2.2897,-2.2778,-2.2188,-2.1934,-2.1934,-2.1859,-2.1814,-2.1814,-2.1724,-2.1695,-2.165,-2.1077,-2.0778,-2.0658,-2.0094,-1.9783,-1.9723,-1.9723,-1.9408,-1.8837,-1.8822,-1.8493,-1.7817,-1.7234,-1.6965,-1.6936,-1.6338,-1.6338,-1.6906,-1.6353,-1.5994,-1.5903,-1.4677,-1.369,-1.2939,-1.2433,-1.2104,-1.1925,-1.1835,-1.1525,-1.0957,-1.0932,-1.0688,-1.0159,-0.9543,-0.9227,-0.9256,-0.8767,-0.8273,0.0,-0.7932,0.0,0.0,0.0,0.0,0.0,0.0,0.0,0.0,-0.707,-0.7701,-0.7772,-0.6783,-0.634,-0.6883,-0.7341,-0.7438,-0.7021,-0.7736,-0.8089,-0.7603,-0.7989,-0.8298,-0.8298,-0.8361,-0.8399,-0.8437,-0.8875,-0.9202,-0.9227,-0.9579,-0.9529,-0.8497,-0.8247,-0.8005,-0.7275,-0.713,-0.7005,-0.6647,-0.6501,-0.6369,-0.5988,-0.587,-0.5732,-0.538,-0.5129,-0.4947,-0.4855,-0.4505,-0.4131,-0.4059,-0.3822,-0.3734,-0.3963,-0.3587,-0.3129,-0.2791,-0.2304,-0.1968,-2.554,-2.5412,-2.5397,-2.5046,-2.441,-2.4276,-2.3939,-2.3415,-2.3295,-2.3251,-2.3191,-2.2733,-2.2493,-2.2478,-2.1934,-2.1695,-2.1695,-2.156,-2.1196,-2.0688,-2.0572,-2.0213,-1.9738,-1.9723,-1.9633,-1.9528,-1.9513,-1.9166,-1.8506,-1.8388,-1.8311,-1.8296,-1.7669,-1.7669,0.0,0.0,0.0,0.0,-1.58,-1.4826,-1.369,-1.4004,-1.3703,-1.2639,-1.2089,0.0,-1.1625,-1.16,-1.1565,-1.1446,-1.1065,0.0,0.0,0.0,0.0,0.0,0.0,0.0,0.0,0.0,0.0,0.0,-0.7292,-0.7504,-0.7429,-0.7083,-0.7095,-0.7718,-0.7816,-0.8047,-0.8584,-0.8723,-0.8749,-0.8636,-0.8448,-0.8261,-0.815,-0.8238,-0.8298,-0.8311,-0.8674,-0.895,-0.8976,-0.9415,-0.973,-0.973,-0.983,-0.9805,-0.9542,-0.9216,-0.8853,-0.8195,-0.7749,-0.7421,-0.7035,-0.6959,-0.6816,-0.6416,-0.6289,-0.6228,-0.6131,-0.6088,-0.5956,-0.5761,-0.5394,-0.5026,-0.4825,-0.4493,-0.4254,-0.4315,-0.4057,-0.3666,-0.3143,-0.264,-0.223,-2.6393,0.0,-2.6093,-2.5719,0.0,-2.5098,-2.4911,-2.4537,-2.3879,-2.3595,-2.358,-2.3266,-2.3152,-2.3122,-2.2787,-2.2622,-2.2622,-2.2323,-2.2029,-2.1665,-2.1021,-2.0528,-2.0183,-1.9839,-1.9723,-1.9723,-1.9723,-1.9528,-1.9199,-1.8852,-1.8702,-1.8687,-1.8042,-1.7878,-1.8177,-1.7533,-1.704,-1.6696,-1.6099,-1.5319,-1.4333,-1.3972,-1.3493,-1.2819,0.0,0.0,0.0,0.0,0.0,0.0,0.0,0.0,0.0,0.0,0.0,-0.9502,-0.9423,-0.9163,-0.8633,-0.8581,-0.8422,-0.8029,-0.8262,-0.844,-0.8448,-0.7816,-0.772,-0.8365,-0.8374,-0.8411,-0.8674,-0.8712,-0.8699,-0.8699,-0.8699,-0.8699,-0.8724,-0.8939,-0.9078,-0.9115,-0.9315,-0.9491,-0.9491,-0.9705,-0.9867,-0.9893,-0.9893,-0.9841,-0.9686,-0.9659,-0.9383,-0.8673,-0.8048,-0.7642,-0.7457,-0.7398,-0.7242,-0.6852,-0.6735,-0.6638,-0.6436,-0.6416,-0.6358,-0.6199,-0.5919,-0.5583,-0.5262,-0.4916,-0.4687,-0.4583,-0.4388,-0.4129,-0.3757,-0.3173,-0.2651,-2.7285,-2.6791,-2.6776,-2.6393,-2.5779,-2.5779,-2.5719,-2.5525,0.0,0.0,0.0,-2.3655,-2.3595,-2.3595,-2.3595,-2.3595,-2.3565,-2.3092,-2.2808,-2.2643,-2.156,-2.0987,-2.0838,-2.0183,-1.9869,-1.9887,-1.9768,-1.9723,-1.9693,-1.9136,-1.8882,-1.8807,-1.8207,-1.7757,-1.7519,-1.6995,-1.6652,-1.6532,-1.6159,-1.5649,-1.4975,-1.4002,-1.3448,-1.3325,-1.3089,-1.2714,-1.2168,-1.2564,-1.2235,-1.1047,-1.1026,-1.0787,-1.0186,-1.0032,-1.0023,-1.0071,-0.997,-0.9679,-0.9233,-0.9124,-0.9089,-0.9089,-0.9089,-0.9051,-0.8975,-0.855,-0.8512,-0.9063,-0.8675,-0.8474,-0.8564,-0.8576,-0.8587,-0.8587,-0.8988,-0.9239,-0.9277,-0.9604,-0.983,-0.9893,-0.9868,-0.988,-0.9867,-0.988,-0.9893,-0.9893,-0.9893,-0.9815,-0.958,-0.9581,-0.9384,-0.8734,-0.8191,-0.7788,-0.77,-0.7676,-0.7549,-0.7262,-0.7207,-0.7057,-0.6758,-0.6628,-0.6628,-0.6693,-0.6401,-0.6073,-0.5692,-0.5388,-0.5118,-0.4921,-0.4701,-0.456,-0.4483,-0.3844,-0.3241,-2.754,-2.7465,-2.7465,-2.7076,-2.6452,-2.6452,-2.6138,-2.5531,-2.4784,-2.447,-2.4425,-2.3864,-2.3595,-2.3595,-2.3595,-2.3595,-2.3595,-2.352,-2.3197,0.0,-2.2508,-2.2119,-2.1545,-2.0872,-2.0554,-2.0509,-1.9974,-1.9723,-1.9693,-1.9618,-1.9558,-1.9465,-1.8882,-1.7997,-1.692,-1.6741,-1.6443,-1.5949,-1.6368,-1.6278,-1.5694,-1.5979,-1.5905,-1.5364,-1.4229,-1.363,-1.3513,-1.3059,-1.2445,-1.1704,-1.193,-1.18,-1.1153,-1.0611,-1.0464,-1.0703,-1.0223,-0.9804,-0.9536,-0.9277,-0.9089,-0.9089,-0.9089,-0.89,-0.8462,-0.8338,-0.8512,-0.9037,-0.9026,-0.9177,-0.9592,-0.9654,-0.9617,-0.9642,-0.9717,-0.9793,-0.9755,-0.983,-0.9893,-0.9893,-0.9893,-0.9893,-0.9893,-0.9893,-0.9893,-0.9893,-0.9893,-0.988,-0.9738,-0.9317,-0.8841,-0.8477,-0.8305,-0.8076,-0.7817,-0.7695,-0.7656,-0.7613,-0.7579,-0.754,-0.7419,-0.7418,-0.7404,-0.7481,-0.7144,-0.6782,-0.6384,-0.6026,-0.5665,-0.5332,-0.5163,-0.5115,-0.5099,-0.4639,-0.4075,-2.7585,-2.7585,-2.7585,-2.742,-2.7136,-2.7151,-2.6971,-2.6641,-2.5974,-2.5472,-2.5128,-2.4822,-2.4492,-2.4141,-2.4163,-2.3954,-2.3595,-2.3595,-2.346,-2.3197,-2.2838,-2.2538,-2.2188,-2.156,-2.1047,-2.0688,-2.0408,-2.0049,-1.9738,-1.9723,-1.9723,-1.9693,-1.9375,-1.8762,-1.7848,-1.7788,-1.731,-1.6308,-1.6248,-1.6069,-1.5814,-1.571,-1.5545,-1.5245,-1.4303,-1.3797,-1.3797,-1.3163,-1.2654,-1.2355,-1.1969,-1.1621,-1.1313,-1.0916,-1.0667,-1.0631,-1.0335,-1.007,-0.9788,-0.9628,-0.9654,-0.9943,-0.9968,-1.0006,-1.0094,-0.9516,-0.9253,-0.9516,-0.9529,-0.9617,-0.9893,-1.0169,-1.0232,-0.9918,-1.0143,-1.0206,-0.9943,-0.9893,-0.9893,-0.9893,-0.9893,-0.9893,-0.9893,-0.9893,-0.9893,-0.9893,-0.9893,-0.9905,-0.9893,-0.962,-0.9276,-0.8924,-0.8382,-0.8062,-0.7976,-0.7817,-0.771,-0.7695,-0.7695,-0.7695,-0.7695,-0.7695,-0.7695,-0.7695,-0.753,-0.7285,-0.6895,-0.6495,-0.6106,-0.5726,-0.5435,-0.534,-0.5246,-0.4922,-0.43,-2.7585,-2.7585,-2.7585,-2.7585,-2.7585,-2.7585,-2.7585,-2.754,-2.7046,-2.6527,-2.6063,-2.5764,-2.5307,-2.4859,-2.4829,-2.4455,-2.3879,-2.3834,-2.3759,-2.3565,-2.3122,-2.2897,-2.2823,-2.2233,-2.165,-2.1156,-2.0853,-2.0438,-1.9959,-1.9783,-1.9723,-1.9723,-1.9723,-1.9346,-1.8717,-1.8702,-1.8102,-1.6965,-1.6323,-1.5948,-1.5784,-1.529,-1.5035,-1.499,-1.4391,-1.4021,-1.3991,-1.3388,-1.3017,-1.3002,-1.2261,-1.1835,-1.175,-1.1466,-1.1186,-1.0946,-1.0768,-1.056,-1.0322,-1.0295,-1.0458,-1.0858,-1.0908,-1.1096,-1.145,-1.0811,-1.0282,-1.0282,-1.0307,-1.0307,-1.0383,-1.0659,-1.0747,-1.0357,-1.0659,-1.0745,-1.037,-1.0282,-1.0282,-1.0282,-1.0182,-1.0093,-1.0081,-1.0081,-1.0168,-1.0307,-1.0282,-1.0218,-1.0039,-0.991,-0.9687,-0.9232,-0.8495,-0.8033,-0.8162,-0.7914,-0.771,-0.7695,-0.7695,-0.7695,-0.7695,-0.7695,-0.7695,-0.7695,-0.7695,-0.7427,-0.7044,-0.6706,-0.629,-0.5828,-0.5475,-0.5309,-0.5293,-0.4928,-0.4403,-2.7585,-2.7585,-2.7585,-2.7585,-2.7585,-2.7585,-2.7585,-2.7585,-2.7525,-2.748,-2.724,-2.6138,-2.5591,-2.5501,-2.5525,-2.5128,-2.453,-2.45,-2.4171,-2.367,-2.3535,-2.352,-2.343,-2.2897,-2.2568,-2.2343,-2.1321,-2.0733,-2.0524,-1.9977,-1.9723,-1.9723,-1.9723,-1.9393,-1.8792,-1.8717,-1.8341,-1.7608,-1.6965,-1.6353,-1.5844,-1.5739,-1.5709,-1.5709,-1.505,-1.4721,-1.4677,-1.4079,-1.372,-1.3692,-1.358,-1.3395,-1.3095,-1.2728,-1.2499,-1.243,-1.184,-1.1482,-1.1439,-1.1437,-1.1439,-1.1512,-1.1512,-1.1553,-1.1653,-1.1527,-1.1437,-1.1427,-1.1452,-1.1351,-1.1452,-1.1475,-1.1465,-1.1312,-1.1425,-1.1487,-1.1389,-1.1452,-1.1452,-1.1465,-1.0908,-1.0645,-1.0618,-1.0618,-1.0833,-1.1213,-1.1224,-1.1013,-1.041,-0.9985,-0.9569,-0.9085,-0.8715,-0.8418,-0.8,-0.7739,-0.7695,-0.7695,-0.7695,-0.7695,-0.7695,-0.7695,-0.7695,-0.7695,-0.7695,-0.7442,-0.6948,-0.6495,-0.6259,-0.5797,-0.5475,-0.5309,-0.5246,-0.496,-0.4468,-2.7585,-2.7585,-2.7585,-2.7585,-2.7585,-2.7585,-2.7585,-2.7585,-2.7585,-2.7585,-2.754,-2.7031,-2.6557,-2.6198,-2.6183,-2.5839,-2.5187,-2.4784,-2.447,-2.4156,-2.3789,-2.3595,-2.3565,-2.3377,-2.3062,-2.2688,-2.2134,-2.1455,-2.0707,-2.0019,-1.9723,-1.9723,-1.9723,-1.9558,-1.9301,-1.9303,-1.8957,-1.8311,-1.8027,-1.758,-1.6922,-1.6173,-1.5814,-1.5784,-1.5529,-1.5394,-1.532,-1.4737,-1.4393,-1.4363,-1.3834,-1.3548,-1.3589,-1.326,-1.2938,-1.2706,-1.2007,-1.1603,-1.1603,-1.1603,-1.1726,-1.2052,-1.2065,-1.2203,-1.25,-1.2551,-1.2538,-1.2475,-1.1964,-1.1603,-1.1638,-1.1892,-1.1939,-1.1713,-1.1864,-1.1964,-1.1628,-1.1615,-1.1603,-1.1578,-1.1387,-1.1236,-1.1224,-1.1224,-1.1337,-1.1565,-1.1615,-1.1425,-1.104,-1.0606,-1.0041,-0.942,-0.904,-0.8655,-0.8133,-0.7827,-0.7725,-0.7695,-0.7695,-0.7695,-0.7695,-0.7695,-0.7695,-0.7695,-0.7695,-0.7613,-0.7368,-0.676,-0.6351,-0.5905,-0.5507,-0.5309,-0.5309,-0.5151,-0.4858,-2.7585,-2.7585,-2.7585,-2.7585,-2.7585,-2.7585,-2.7585,-2.7585,-2.7585,-2.7585,-2.7585,-2.7585,-2.7345,-2.6926,-2.6881,-2.6522,-2.5869,-2.5375,-2.4933,-2.4605,-2.4103,-2.3789,-2.361,-2.3595,-2.3392,-2.2987,-2.2763,-2.2084,-2.1006,-2.0303,-1.9974,-1.9944,-1.9798,-1.9723,-1.9723,-1.9723,-1.945,-1.9001,-1.8807,-1.8461,-1.7909,-1.6892,-1.6233,-1.6069,-1.5888,-1.5814,-1.5784,-1.5334,-1.5065,-1.505,-1.437,-1.4038,-1.412,-1.3929,-1.3572,-1.3045,-1.2416,-1.204,-1.2052,-1.204,-1.2203,-1.2563,-1.2626,-1.2789,-1.3098,-1.321,-1.321,-1.3123,-1.2488,-1.2077,-1.209,-1.2375,-1.2425,-1.2115,-1.2413,-1.2438,-1.2128,-1.204,-1.2062,-1.2027,-1.1939,-1.1829,-1.1814,-1.1842,-1.1876,-1.2065,-1.2077,-1.1865,-1.1684,-1.1271,-1.0735,-0.9805,-0.9327,-0.8853,-0.8282,-0.7899,-0.771,-0.7695,-0.7695,-0.7695,-0.7695,-0.7695,-0.7695,-0.7695,-0.7695,-0.7554,-0.7285,-0.685,-0.6351,-0.6129,-0.5726,-0.5309,-0.5309,-0.5293,-0.5166,-2.7585,-2.7585,-2.7585,-2.7585,-2.7585,-2.7585,-2.7585,-2.7585,-2.7585,-2.7585,-2.7585,-2.7534,-2.7545,-2.746,-2.7379,-2.7156,-2.6587,-2.6437,-2.5794,-2.4784,-2.456,-2.4201,-2.3625,-2.3595,-2.3565,-2.3445,-2.3002,-2.2388,-2.165,-2.0972,-2.0658,-2.0598,-2.0049,-1.9738,-1.9723,-1.9723,-1.9708,-1.9558,-1.9031,-1.8717,-1.8565,-1.7968,-1.7295,-1.6741,-1.6114,-1.5858,-1.5829,-1.5784,-1.5739,-1.5754,-1.562,-1.5432,-1.505,-1.496,-1.4567,-1.3869,-1.3365,-1.3098,-1.306,-1.3035,-1.309,-1.3152,-1.3098,-1.3148,-1.3185,-1.321,-1.321,-1.3198,-1.3085,-1.301,-1.301,-1.2998,-1.3085,-1.3035,-1.3098,-1.3098,-1.3085,-1.2977,-1.311,-1.3002,-1.2626,-1.2375,-1.2363,-1.2379,-1.2576,-1.2889,-1.3073,-1.2801,-1.2078,-1.182,-1.1193,-1.0267,-0.9664,-0.9228,-0.8099,-0.7945,-0.7866,-0.7783,-0.7856,-0.7754,-0.7705,-0.7695,-0.7715,-0.7734,-0.7783,-0.7625,-0.7205,-0.6721,-0.6213,-0.5867,-0.557,-0.5309,-0.5309,-0.5309,-0.523,-2.7585,-2.7585,-2.7585,-2.7585,-2.7585,-2.7585,-2.7585,-2.7585,-2.7585,-2.7585,-2.7509,-2.7111,-2.6904,-2.6878,-2.6416,-2.6576,-2.7161,-2.6821,-2.6318,-2.5794,-2.5008,-2.447,-2.4216,-2.3819,-2.3595,-2.3565,-2.337,-2.2957,-2.2328,-2.1665,-2.1092,-2.0733,-2.0464,-2.0154,-1.9798,-1.9723,-1.9723,-1.9693,-1.9453,-1.9348,-1.9271,-1.8687,-1.8207,-1.7938,-1.6936,-1.6383,-1.6383,-1.6009,-1.5668,-1.5374,-1.5639,-1.5463,-1.4783,-1.447,-1.4214,-1.3901,-1.3476,-1.321,-1.321,-1.321,-1.321,-1.321,-1.321,-1.321,-1.321,-1.321,-1.321,-1.321,-1.321,-1.321,-1.321,-1.321,-1.321,-1.321,-1.321,-1.321,-1.321,-1.321,-1.321,-1.3173,-1.2998,-1.291,-1.2877,-1.2897,-1.3002,-1.316,-1.321,-1.3029,-1.2773,-1.2465,-1.1894,-1.1182,-1.0536,-0.9892,-0.9186,-0.8716,-0.8506,-0.8262,-0.8179,-0.8164,-0.8145,-0.8145,-0.8174,-0.8174,-0.8145,-0.7932,-0.7562,-0.6921,-0.6337,-0.5867,-0.5554,-0.5388,-0.5309,-0.5309,-0.5309,-2.7794,-2.76,-2.7585,-2.7585,-2.7585,-2.7585,-2.7585,-2.7585,-2.7585,-2.7585,-2.7458,-2.6826,-2.6496,-2.6363,-2.5742,-2.5877,-2.6834,-2.6629,-2.632,-2.5877,-2.5432,-2.4893,-2.4272,-2.4023,-2.3804,-2.3625,-2.3595,-2.337,-2.2972,-2.2343,-2.1804,-2.138,-2.0942,-2.0464,-2.0049,-1.9842,-1.9723,-1.9723,-1.9723,-1.9708,-1.9648,-1.9288,-1.8914,-1.8643,-1.7659,-1.706,-1.7009,-1.6413,-1.5891,-1.5514,-1.5536,-1.524,-1.4564,-1.3967,-1.3735,-1.3818,-1.3446,-1.321,-1.321,-1.321,-1.321,-1.321,-1.321,-1.321,-1.321,-1.321,-1.321,-1.321,-1.321,-1.321,-1.321,-1.321,-1.321,-1.321,-1.321,-1.321,-1.321,-1.321,-1.321,-1.321,-1.3185,-1.3185,-1.321,-1.3198,-1.3215,-1.321,-1.321,-1.3163,-1.296,-1.2738,-1.2254,-1.1653,-1.0987,-1.0424,-0.9906,-0.9528,-0.9062,-0.8806,-0.861,-0.859,-0.859,-0.86,-0.86,-0.86,-0.8486,-0.8257,-0.7803,-0.7148,-0.6582,-0.6068,-0.5765,-0.5562,-0.5444,-0.5309,-0.5336,-2.8218,-2.769,-2.7615,-2.7609,-2.7573,-2.7514,-2.7534,-2.7418,-2.7444,-2.7342,-2.7203,-2.6654,-2.6229,-2.6229,-2.5453,-2.5342,-2.5453,-2.5983,-2.5712,-2.4875,-2.5762,-2.5277,-2.376,-2.4103,-2.3993,-2.3538,-2.3573,-2.3595,-2.3475,-2.2909,-2.2545,-2.2362,-2.1317,-2.0727,-2.062,-2.0042,-1.9753,-1.969,-1.9672,-1.9672,-1.9708,-1.9597,-1.9335,-1.8927,-1.8256,-1.7833,-1.7708,-1.7006,-1.637,-1.5997,-1.549,-1.4948,-1.4488,-1.378,-1.345,-1.3728,-1.3442,-1.3245,-1.321,-1.321,-1.321,-1.321,-1.321,-1.321,-1.321,-1.321,-1.321,-1.321,-1.321,-1.321,-1.321,-1.321,-1.321,-1.321,-1.321,-1.321,-1.321,-1.321,-1.321,-1.321,-1.321,-1.321,-1.321,-1.321,-1.321,-1.321,-1.321,-1.3094,-1.2791,-1.2597,-1.2061,-1.1424,-1.1034,-1.0704,-1.0479,-1.0253,-0.9735,-0.9305,-0.9111,-0.9004,-0.9004,-0.9004,-0.9014,-0.9004,-0.8838,-0.8613,-0.8061,-0.742,-0.6839,-0.6361,-0.6075,-0.5764,-0.5608,-0.5472,-0.5406,-2.8903,-2.8308,-2.8293,-2.7988,-2.7503,-2.7042,-2.6575,-2.6108,-2.6081,-2.6081,-2.5946,-2.5315,-2.4992,-2.4809,-2.4179,-2.3842,-2.3901,-2.461,-2.4982,-2.5053,-2.5105,-2.4829,-2.4131,-2.3509,-2.3135,-2.3089,-2.3421,-2.3595,-2.3457,-2.2974,-2.2484,-2.1996,-2.1596,-2.0892,-2.0142,-2.0226,-2.0198,-1.9717,-1.9317,-1.9299,-1.9603,-1.9317,-1.9225,-1.9358,-1.8891,-1.8563,-1.847,-1.7089,-1.6118,-1.5721,-1.5737,-1.5432,-1.4713,-1.4109,-1.3697,-1.3425,-1.3288,-1.321,-1.321,-1.3223,-1.3235,-1.3223,-1.3223,-1.321,-1.321,-1.3235,-1.3265,-1.3235,-1.321,-1.321,-1.321,-1.321,-1.3261,-1.321,-1.321,-1.321,-1.321,-1.321,-1.321,-1.321,-1.321,-1.321,-1.321,-1.321,-1.321,-1.321,-1.3193,-1.3077,-1.2943,-1.2561,-1.2461,-1.2054,-1.1568,-1.0905,-1.0649,-1.0419,-1.0058,-0.9735,-0.9561,-0.9443,-0.9443,-0.9416,-0.9425,-0.9348,-0.9182,-0.8878,-0.8311,-0.7773,-0.7261,-0.6652,-0.6238,-0.598,-0.5771,-0.5674,-0.563,-2.9549,-2.8981,-2.8966,-2.8711,-2.819,-2.7496,-2.6785,-2.6189,-2.5813,-2.5591,-2.53,-2.4624,-2.4279,-2.4134,-2.3442,-2.3125,-2.3155,-2.3649,-2.4092,-2.4599,-2.4833,-2.4504,-2.4028,-2.3284,-2.2762,-2.2743,-2.3048,-2.3101,-2.2891,-2.2515,-2.2124,-2.1739,-2.1484,-2.0981,-2.0168,-2.0193,-2.001,-1.9439,-1.9079,-1.8968,-1.902,-1.8779,-1.8669,-1.876,-1.8477,-1.8224,-1.7958,-1.6847,-1.6124,-1.5875,-1.5771,-1.5344,-1.4805,-1.4523,-1.4217,-1.3948,-1.3848,-1.386,-1.3804,-1.3679,-1.3659,-1.376,-1.3659,-1.3659,-1.3767,-1.3835,-1.3848,-1.383,-1.3855,-1.3817,-1.3842,-1.383,-1.383,-1.3817,-1.3453,-1.3248,-1.321,-1.321,-1.321,-1.321,-1.321,-1.321,-1.321,-1.321,-1.321,-1.3198,-1.3047,-1.282,-1.265,-1.221,-1.2018,-1.1733,-1.1113,-1.0706,-1.0697,-1.0525,-1.0341,-1.0156,-1.0019,-0.9922,-0.9873,-0.9873,-0.9873,-0.9747,-0.9591,-0.9377,-0.8862,-0.8408,-0.7904,-0.7227,-0.6569,-0.6423,-0.6302,-0.5996,-0.5914,-3.0138,-2.9545,-2.9555,-2.9391,-2.9099,-2.8282,-2.7499,-2.7088,-2.6379,-2.5702,-2.525,-2.4673,-2.4305,-2.4122,-2.3547,-2.3208,-2.3108,-2.3155,-2.3245,-2.3636,-2.4275,-2.4361,-2.3342,-2.3245,-2.3029,-2.2649,-2.2647,-2.2391,-2.2104,-2.1789,-2.1649,-2.1553,-2.1107,-2.0777,-2.05,-2.0049,-1.9631,-1.9182,-1.8925,-1.8623,-1.8301,-1.81,-1.7927,-1.7544,-1.7476,-1.725,-1.6883,-1.6617,-1.6483,-1.6362,-1.5659,-1.5215,-1.4998,-1.4947,-1.4928,-1.4771,-1.4878,-1.4783,-1.4733,-1.4374,-1.4299,-1.4651,-1.4387,-1.4337,-1.4645,-1.4657,-1.467,-1.4695,-1.472,-1.4783,-1.4771,-1.4758,-1.4758,-1.472,-1.3935,-1.3416,-1.3261,-1.3261,-1.321,-1.321,-1.321,-1.321,-1.321,-1.321,-1.321,-1.3129,-1.2843,-1.2461,-1.2102,-1.1726,-1.0962,-1.0687,-1.0649,-1.0525,-1.0505,-1.0486,-1.0322,-1.0273,-1.0195,-1.0175,-1.0166,-1.0166,-1.0175,-1.0059,-0.9951,-0.9728,-0.9384,-0.8891,-0.8364,-0.7714,-0.7284,-0.707,-0.6724,-0.6361,-0.6191,-3.0134,-2.8559,-2.9117,-2.8693,-2.7618,-2.6844,-2.6192,-2.5563,-2.5345,-2.5179,-2.4895,-2.4777,-2.4422,-2.4086,-2.3864,-2.3521,-2.3221,-2.3108,-2.3095,-2.3155,-2.3442,-2.3299,-2.2805,-2.3111,-2.303,-2.2525,-2.2524,-2.2504,-2.23,-2.1464,-2.1066,-2.1028,-2.0855,-2.0513,-2.0147,-2.0315,-2.0166,-1.9529,-1.8721,-1.8535,-1.8536,-1.7888,-1.7666,-1.7881,-1.751,-1.7242,-1.7034,-1.6701,-1.6514,-1.6477,-1.6254,-1.5881,-1.555,-1.55,-1.5349,-1.506,-1.4947,-1.4921,-1.4916,-1.479,-1.4771,-1.4859,-1.4815,-1.4733,-1.4859,-1.4896,-1.4896,-1.4884,-1.4884,-1.4934,-1.4921,-1.4934,-1.4921,-1.4808,-1.4331,-1.3891,-1.379,-1.3483,-1.321,-1.321,-1.3261,-1.3286,-1.3261,-1.3278,-1.3235,-1.3141,-1.2791,-1.2389,-1.2029,-1.1412,-1.0734,-1.0734,-1.0668,-1.0448,-1.0341,-1.0341,-1.0322,-1.0322,-1.0293,-1.0263,-1.0254,-1.0254,-1.0263,-1.0244,-1.0175,-0.999,-0.9608,-0.9149,-0.8622,-0.8183,-0.7664,-0.7273,-0.6933,-0.6577,-0.6516,-2.9992,-2.8446,-2.8984,-2.8632,-2.7727,-2.698,-2.6283,-2.5666,-2.5277,-2.5008,-2.4775,-2.4537,-2.4412,-2.4305,-2.3853,-2.3627,-2.3446,-2.3208,-2.3095,-2.3095,-2.3155,-2.2949,-2.2816,-2.309,-2.2897,-2.2397,-2.2443,-2.2168,-2.1731,-2.1055,-2.0668,-2.0423,-2.0371,-2.0165,-1.9907,-2.0112,-2.0097,-1.9453,-1.8815,-1.861,-1.8535,-1.803,-1.7718,-1.7795,-1.7483,-1.7269,-1.6973,-1.6659,-1.6522,-1.65,-1.6475,-1.6337,-1.6095,-1.6024,-1.5881,-1.56,-1.5555,-1.558,-1.5525,-1.5379,-1.5341,-1.5454,-1.5392,-1.5387,-1.555,-1.5588,-1.5588,-1.5625,-1.5588,-1.5567,-1.5567,-1.5567,-1.5567,-1.5575,-1.5097,-1.4702,-1.4488,-1.4155,-1.3942,-1.3905,-1.3905,-1.3779,-1.3616,-1.3584,-1.3428,-1.3139,-1.2579,-1.23,-1.2029,-1.1311,-1.0746,-1.071,-1.0612,-1.0409,-1.0322,-1.0322,-1.0322,-1.0322,-1.0322,-1.0322,-1.0322,-1.0322,-1.0322,-1.0322,-1.0322,-1.0215,-0.9858,-0.9545,-0.9215,-0.87,-0.8037,-0.7494,-0.7163,-0.681,-0.6753,-2.9611,-2.8734,-2.883,-2.8812,-2.8497,-2.7861,-2.7118,-2.67,-2.6019,-2.546,-2.5071,-2.4531,-2.4695,-2.4788,-2.3998,-2.3584,-2.3941,-2.3333,-2.3145,-2.3095,-2.3095,-2.3045,-2.305,-2.3085,-2.2888,-2.2484,-2.2359,-2.187,-2.1323,-2.0938,-2.0441,-2.0153,-1.9964,-1.9824,-1.9826,-1.9831,-1.954,-1.9265,-1.9031,-1.8737,-1.8488,-1.8232,-1.7987,-1.767,-1.7489,-1.71,-1.6725,-1.65,-1.6513,-1.6513,-1.6513,-1.6475,-1.645,-1.6475,-1.645,-1.6421,-1.6325,-1.6362,-1.6409,-1.5982,-1.5936,-1.6212,-1.5969,-1.5969,-1.6271,-1.6312,-1.6333,-1.6321,-1.6488,-1.6362,-1.635,-1.6425,-1.6362,-1.6271,-1.5957,-1.5575,-1.5185,-1.4972,-1.4884,-1.4884,-1.4871,-1.462,-1.4362,-1.4135,-1.4009,-1.3843,-1.3167,-1.2759,-1.2321,-1.1615,-1.101,-1.0577,-1.0489,-1.0341,-1.0322,-1.0322,-1.0322,-1.0322,-1.0322,-1.0322,-1.0322,-1.0322,-1.0322,-1.0322,-1.0322,-1.0322,-1.0225,-0.9925,-0.9642,-0.9193,-0.8523,-0.7946,-0.7425,-0.7052,-0.6873,-2.8395,-2.7095,-2.7703,-2.7604,-2.7074,-2.685,-2.6705,-2.6578,-2.6388,-2.6185,-2.6084,-2.5971,-2.5707,-2.5398,-2.4662,-2.433,-2.3991,-2.3409,-2.3108,-2.3095,-2.3095,-2.3095,-2.3095,-2.3095,-2.3032,-2.2807,-2.2468,-2.2184,-2.1807,-2.1157,-2.0641,-2.0465,-2.0049,-1.9798,-1.9812,-1.9788,-1.9775,-1.9573,-1.9244,-1.9003,-1.8805,-1.848,-1.8229,-1.8003,-1.7614,-1.7099,-1.6638,-1.6513,-1.6513,-1.6513,-1.6513,-1.6513,-1.6513,-1.6513,-1.6513,-1.6513,-1.6513,-1.6513,-1.6475,-1.6375,-1.635,-1.6437,-1.6375,-1.6362,-1.645,-1.6513,-1.6513,-1.6513,-1.6513,-1.6513,-1.6513,-1.6513,-1.6513,-1.6463,-1.6375,-1.6237,-1.6057,-1.5392,-1.5047,-1.4972,-1.4972,-1.4859,-1.4752,-1.467,-1.4544,-1.4425,-1.3925,-1.3388,-1.2664,-1.1861,-1.1358,-1.0812,-1.0684,-1.0645,-1.0645,-1.0655,-1.0655,-1.0645,-1.0606,-1.0577,-1.0567,-1.0381,-1.041,-1.0371,-1.0322,-1.0322,-1.0322,-1.0176,-0.9836,-0.941,-0.8967,-0.8329,-0.7752,-0.7356,-0.7,-2.742,-2.6577,-2.696,-2.6905,-2.6521,-2.6487,-2.6487,-2.6487,-2.6487,-2.6487,-2.6424,-2.6235,-2.6059,-2.5959,-2.5209,-2.4632,-2.4199,-2.3471,-2.3095,-2.3095,-2.3095,-2.3095,-2.3095,-2.3095,-2.3095,-2.3058,-2.2844,-2.2569,-2.2184,-2.1719,-2.1245,-2.0717,-2.0351,-2.0062,-1.9836,-1.9811,-1.9811,-1.9761,-1.956,-1.9359,-1.9321,-1.9133,-1.8781,-1.8455,-1.7852,-1.72,-1.6986,-1.6647,-1.6538,-1.6513,-1.6513,-1.6513,-1.6513,-1.6513,-1.6513,-1.6513,-1.6513,-1.6513,-1.6513,-1.6513,-1.65,-1.6513,-1.6513,-1.6513,-1.6513,-1.6513,-1.6513,-1.6513,-1.6513,-1.6513,-1.6513,-1.6513,-1.6513,-1.6513,-1.6513,-1.6513,-1.64,-1.5982,-1.5643,-1.5643,-1.5706,-1.5517,-1.5392,-1.5107,-1.4621,-1.4312,-1.3403,-1.2872,-1.2611,-1.1913,-1.1641,-1.1256,-1.1087,-1.1018,-1.1018,-1.1038,-1.1087,-1.1106,-1.1126,-1.1116,-1.1116,-1.0831,-1.0537,-1.0469,-1.0361,-1.0322,-1.0283,-1.0137,-0.9952,-0.9498,-0.9019,-0.8541,-0.807,-0.7627,-0.7252,-2.6497,-2.6361,-2.6373,-2.6411,-2.6487,-2.6487,-2.6487,-2.6487,-2.6487,-2.6487,-2.6424,-2.5959,-2.6122,-2.6172,-2.541,-2.4888,-2.4399,-2.381,-2.3308,-2.3108,-2.3095,-2.3095,-2.3095,-2.3095,-2.3095,-2.3095,-2.3045,-2.2807,-2.256,-2.2297,-2.1769,-2.1094,-2.0855,-2.0553,-2.0087,-1.9936,-1.9924,-1.9823,-1.9748,-1.9723,-1.9736,-1.9685,-1.9434,-1.8845,-1.8292,-1.7702,-1.7488,-1.7149,-1.6826,-1.6751,-1.6697,-1.6638,-1.6613,-1.6513,-1.6513,-1.6513,-1.6513,-1.6513,-1.6513,-1.6513,-1.6513,-1.6513,-1.6513,-1.6513,-1.6513,-1.6513,-1.6513,-1.6513,-1.6513,-1.6513,-1.6513,-1.6513,-1.6513,-1.6513,-1.6513,-1.6513,-1.6513,-1.6513,-1.6387,-1.6387,-1.6191,-1.6003,-1.5636,-1.5283,-1.4711,-1.4101,-1.317,-1.2529,-1.2335,-1.2154,-1.1969,-1.163,-1.1449,-1.1312,-1.1292,-1.1332,-1.139,-1.1447,-1.1528,-1.1538,-1.1528,-1.1252,-1.0919,-1.0557,-1.043,-1.0391,-1.0293,-1.0147,-0.9883,-0.9518,-0.905,-0.8533,-0.8172,-0.7863,-0.7489,-2.5378,-2.5737,-2.5737,-2.6047,-2.6449,-2.6487,-2.6487,-2.6487,-2.6487,-2.6487,-2.6474,-2.6386,-2.6361,-2.6298,-2.5812,-2.5021,-2.4368,-2.3879,-2.354,-2.317,-2.3095,-2.3095,-2.3095,-2.3095,-2.3095,-2.3095,-2.3095,-2.3007,-2.2832,-2.2535,-2.218,-2.1945,-2.1568,-2.1066,-2.0641,-2.0503,-2.0226,-1.9849,-1.9798,-1.9798,-1.9798,-1.9773,-1.9597,-1.9108,-1.8707,-1.8442,-1.8129,-1.7978,-1.7928,-1.789,-1.7488,-1.7287,-1.7162,-1.6848,-1.6613,-1.6513,-1.6513,-1.6513,-1.6513,-1.6513,-1.6513,-1.6513,-1.6513,-1.6513,-1.6513,-1.6513,-1.6513,-1.6513,-1.6513,-1.6513,-1.6513,-1.6513,-1.65,-1.65,-1.6436,-1.6414,-1.6414,-1.6414,-1.6349,-1.6262,-1.6281,-1.6213,-1.5639,-1.515,-1.4692,-1.4226,-1.3672,-1.3177,-1.297,-1.2769,-1.2579,-1.2181,-1.177,-1.1655,-1.1538,-1.1596,-1.1665,-1.1712,-1.177,-1.1802,-1.1753,-1.1606,-1.131,-1.1045,-1.0703,-1.0537,-1.04,-1.0262,-1.0023,-0.979,-0.9194,-0.8573,-0.8265,-0.7982,-0.7539,-2.5297,-2.6059,-2.6072,-2.6235,-2.6461,-2.6487,-2.6487,-2.6487,-2.6487,-2.6487,-2.6487,-2.6487,-2.6487,-2.6411,-2.6235,-2.5481,-2.4607,-2.4092,-2.369,-2.3208,-2.3095,-2.3095,-2.3095,-2.3095,-2.3095,-2.3095,-2.3095,-2.3095,-2.3083,-2.2869,-2.2556,-2.2284,-2.2008,-2.1506,-2.0867,-2.0654,-2.0377,-1.9949,-1.9823,-1.9811,-1.9798,-1.9798,-1.9623,-1.9472,-1.9146,-1.887,-1.8644,-1.8292,-1.8204,-1.8129,-1.7953,-1.784,-1.7714,-1.7513,-1.7089,-1.6676,-1.6538,-1.6513,-1.6513,-1.6513,-1.6513,-1.6513,-1.6525,-1.6513,-1.6513,-1.6513,-1.6563,-1.6538,-1.6513,-1.6513,-1.6513,-1.655,-1.6358,-1.6095,-1.6076,-1.5969,-1.5756,-1.5876,-1.5844,-1.5768,-1.5754,-1.5588,-1.5197,-1.4801,-1.4527,-1.426,-1.399,-1.3718,-1.3433,-1.3175,-1.2872,-1.2662,-1.225,-1.2191,-1.2086,-1.2077,-1.2054,-1.2083,-1.2113,-1.2135,-1.2103,-1.2025,-1.1895,-1.1697,-1.1338,-1.1007,-1.0844,-1.0824,-1.0466,-1.0068,-0.9585,-0.9063,-0.8533,-0.8084,-0.7681,-2.5297,-2.6311,-2.6323,-2.6386,-2.6474,-2.6487,-2.6487,-2.6487,-2.6487,-2.6487,-2.6487,-2.6487,-2.6487,-2.6487,-2.6373,-2.5933,-2.4946,-2.4418,-2.3904,-2.3384,-2.3158,-2.3095,-2.3095,-2.3095,-2.3095,-2.3095,-2.3095,-2.3095,-2.3095,-2.3045,-2.2832,-2.2619,-2.2456,-2.202,-2.1295,-2.1207,-2.0614,-2.0189,-1.9974,-1.9949,-1.9836,-1.9798,-1.9798,-1.9786,-1.9397,-1.9171,-1.9121,-1.8845,-1.8657,-1.8606,-1.848,-1.8367,-1.8355,-1.8267,-1.779,-1.7014,-1.6751,-1.6626,-1.6513,-1.6513,-1.6575,-1.6773,-1.6722,-1.6773,-1.6901,-1.7027,-1.6926,-1.6848,-1.6889,-1.6951,-1.7014,-1.6923,-1.6589,-1.6184,-1.6015,-1.5726,-1.536,-1.5223,-1.5154,-1.5131,-1.5175,-1.4949,-1.4548,-1.4376,-1.4097,-1.3718,-1.3443,-1.3382,-1.3128,-1.3089,-1.2888,-1.2904,-1.2778,-1.2768,-1.2709,-1.2641,-1.2612,-1.2573,-1.2582,-1.2582,-1.2582,-1.2553,-1.2393,-1.2213,-1.2129,-1.1836,-1.1644,-1.1202,-1.0733,-1.0298,-0.9959,-0.9364,-0.8503,-0.8174,-0.7946,-2.472,-2.5699,-2.5699,-2.6021,-2.6461,-2.6487,-2.6487,-2.6487,-2.6487,-2.6487,-2.6487,-2.6487,-2.6487,-2.6487,-2.6487,-2.6109,-2.5473,-2.4883,-2.433,-2.3791,-2.3321,-2.3095,-2.3095,-2.3095,-2.3095,-2.3095,-2.3095,-2.3095,-2.3095,-2.3095,-2.3083,-2.2945,-2.2869,-2.2644,-2.197,-2.1857,-2.1581,-2.0779,-2.0578,-2.0339,-1.995,-1.9823,-1.9798,-1.9773,-1.971,-1.9635,-1.9623,-1.9459,-1.9447,-1.9447,-1.9096,-1.8933,-1.8832,-1.8418,-1.8205,-1.7903,-1.7564,-1.7074,-1.6738,-1.6701,-1.6886,-1.72,-1.731,-1.7551,-1.7677,-1.7779,-1.7815,-1.8016,-1.794,-1.784,-1.7766,-1.7915,-1.7576,-1.7039,-1.655,-1.6028,-1.5472,-1.5061,-1.4949,-1.4475,-1.4502,-1.4266,-1.3931,-1.3813,-1.3661,-1.3262,-1.2954,-1.2929,-1.2915,-1.2915,-1.2915,-1.2915,-1.2915,-1.2915,-1.2915,-1.2915,-1.2915,-1.2915,-1.2915,-1.2915,-1.2846,-1.2778,-1.2827,-1.269,-1.2612,-1.2303,-1.1777,-1.1303,-1.088,-1.0451,-1.0012,-0.9149,-0.8169,-0.8062,-0.8187,-2.4619,-2.5586,-2.5586,-2.5925,-2.6461,-2.6487,-2.6487,-2.6487,-2.6487,-2.6487,-2.6487,-2.6487,-2.6487,-2.6487,-2.6487,-2.616,-2.5586,-2.5071,-2.4519,-2.4004,-2.3434,-2.312,-2.3095,-2.3095,-2.3095,-2.3095,-2.3095,-2.3095,-2.3095,-2.3095,-2.3095,-2.3095,-2.307,-2.2807,-2.2393,-2.2334,-2.1845,-2.1255,-2.0867,-2.0578,-2.0302,-1.9987,-1.9798,-1.9798,-1.9798,-1.9798,-1.9798,-1.9798,-1.9798,-1.9761,-1.9535,-1.9459,-1.9434,-1.9221,-1.902,-1.8632,-1.8468,-1.8066,-1.7601,-1.7476,-1.7589,-1.7739,-1.7865,-1.7953,-1.8166,-1.8242,-1.8242,-1.8191,-1.8191,-1.8229,-1.8254,-1.8204,-1.7533,-1.7046,-1.6852,-1.5854,-1.5264,-1.5246,-1.4931,-1.4366,-1.3875,-1.3813,-1.3672,-1.3473,-1.3371,-1.3152,-1.2929,-1.2929,-1.2915,-1.2915,-1.2915,-1.2915,-1.2915,-1.2915,-1.2915,-1.2915,-1.2915,-1.2915,-1.2915,-1.2915,-1.2915,-1.2895,-1.2915,-1.2905,-1.2773,-1.2387,-1.1841,-1.1532,-1.1232,-1.0639,-1.0019,-0.9215,-0.8482,-0.8447,-0.8528,-2.4343,-2.5209,-2.5485,-2.585,-2.6298,-2.6436,-2.6487,-2.6487,-2.6487,-2.6487,-2.6487,-2.6487,-2.6487,-2.6487,-2.6461,-2.6273,-2.5812,-2.5259,-2.472,-2.4167,-2.3622,-2.3271,-2.3145,-2.3095,-2.3095,-2.3095,-2.3095,-2.3095,-2.3095,-2.3095,-2.3095,-2.3095,-2.3095,-2.2907,-2.2631,-2.2506,-2.2272,-2.1732,-2.1207,-2.088,-2.0616,-2.0264,-2.0013,-1.9861,-1.9798,-1.9798,-1.9798,-1.9798,-1.9798,-1.9786,-1.9773,-1.9723,-1.971,-1.9648,-1.9522,-1.9271,-1.9133,-1.897,-1.8581,-1.8355,-1.8329,-1.8392,-1.8581,-1.8694,-1.8681,-1.8593,-1.8618,-1.8731,-1.8719,-1.8694,-1.8606,-1.8656,-1.8017,-1.7347,-1.671,-1.559,-1.4754,-1.492,-1.4845,-1.4311,-1.3936,-1.3856,-1.3651,-1.3288,-1.3086,-1.2969,-1.2915,-1.2915,-1.2915,-1.2915,-1.2915,-1.2915,-1.2915,-1.2915,-1.2915,-1.2915,-1.2915,-1.2915,-1.2915,-1.2915,-1.2915,-1.2915,-1.2915,-1.2905,-1.2856,-1.2391,-1.1785,-1.1688,-1.1532,-1.0631,-0.9839,-0.946,-0.9018,-0.891,-0.8765,-2.3521,-2.418,-2.5172,-2.5611,-2.5724,-2.6285,-2.6487,-2.6487,-2.6487,-2.6487,-2.6487,-2.6487,-2.6487,-2.6487,-2.6487,-2.6449,-2.6373,-2.5799,-2.5247,-2.4707,-2.4205,-2.3659,-2.3396,-2.3221,-2.3145,-2.3095,-2.3095,-2.3095,-2.3095,-2.3095,-2.3095,-2.3095,-2.3095,-2.3083,-2.2995,-2.2869,-2.2694,-2.2221,-2.1707,-2.1245,-2.0968,-2.0654,-2.0402,-1.9949,-1.9836,-1.9811,-1.9798,-1.9798,-1.9798,-1.9798,-1.9798,-1.9798,-1.9798,-1.9798,-1.9698,-1.9648,-1.961,-1.9535,-1.9334,-1.8869,-1.8581,-1.8945,-1.9284,-1.9459,-1.9397,-1.9547,-1.9622,-1.9345,-1.903,-1.9256,-1.9382,-1.9468,-1.8396,-1.7721,-1.6877,-1.6071,-1.5275,-1.4903,-1.478,-1.4272,-1.406,-1.406,-1.3893,-1.359,-1.3271,-1.3145,-1.2925,-1.2915,-1.2915,-1.2915,-1.2915,-1.2915,-1.2915,-1.2915,-1.2915,-1.2915,-1.2915,-1.2915,-1.2915,-1.2915,-1.2915,-1.2915,-1.2915,-1.2798,-1.2691,-1.2212,-1.1765,-1.1541,-1.1116,-1.0287,-0.9633,-0.9263,-0.9035,-0.8857,-0.8778,-2.3233,-2.3534,-2.4657,-2.531,-2.5649,-2.626,-2.6487,-2.6487,-2.6487,-2.6487,-2.6487,-2.6487,-2.6487,-2.6487,-2.6487,-2.6487,-2.6399,-2.5862,-2.5511,-2.5197,-2.4745,-2.4205,-2.3841,-2.3602,-2.3484,-2.3221,-2.3133,-2.3095,-2.3095,-2.3108,-2.3108,-2.3095,-2.3095,-2.3095,-2.3095,-2.3095,-2.2945,-2.2732,-2.228,-2.1845,-2.1707,-2.132,-2.093,-2.0415,-2.0352,-2.0138,-1.9899,-1.9811,-1.9798,-1.9798,-1.9798,-1.9798,-1.9798,-1.9798,-1.9798,-1.9798,-1.9798,-1.9798,-1.9798,-1.9371,-1.9296,-1.9397,-1.9673,-1.9773,-1.9695,-1.9423,-1.9164,-1.8994,-1.8768,-1.8741,-1.9059,-1.8691,-1.8001,-1.7638,-1.7108,-1.6353,-1.5756,-1.524,-1.4961,-1.4609,-1.4473,-1.4422,-1.4226,-1.3958,-1.3662,-1.3369,-1.313,-1.2925,-1.2964,-1.2915,-1.2915,-1.2915,-1.2915,-1.2915,-1.2915,-1.2915,-1.2915,-1.2915,-1.2915,-1.2915,-1.2915,-1.2915,-1.2881,-1.274,-1.2535,-1.2089,-1.1674,-1.1316,-1.0737,-0.9935,-0.9413,-0.9061,-0.8883,-0.8804,-0.8778,-2.3095,-2.3246,-2.4324,-2.5001,-2.5435,-2.6172,-2.6487,-2.6487,-2.6487,-2.6487,-2.6487,-2.6487,-2.6487,-2.6487,-2.6487,-2.6487,-2.6399,-2.6109,-2.5787,-2.5498,-2.5172,-2.4745,-2.4418,-2.4205,-2.4048,-2.3622,-2.3396,-2.3427,-2.3421,-2.3208,-2.312,-2.3095,-2.3095,-2.3095,-2.3095,-2.3095,-2.3095,-2.2982,-2.2782,-2.2422,-2.2272,-2.1933,-2.1496,-2.0968,-2.0767,-2.0503,-2.0151,-1.9987,-1.9798,-1.9798,-1.9798,-1.9798,-1.9798,-1.9798,-1.9798,-1.9798,-1.9798,-1.9798,-1.9773,-1.9553,-1.9463,-1.931,-1.9348,-1.9423,-1.9333,-1.8992,-1.8847,-1.8715,-1.8151,-1.7797,-1.834,-1.8015,-1.7578,-1.7191,-1.6968,-1.6352,-1.5803,-1.5293,-1.5176,-1.5,-1.4922,-1.4863,-1.4707,-1.4465,-1.4121,-1.3769,-1.3408,-1.3203,-1.3145,-1.3081,-1.2915,-1.2915,-1.2915,-1.2915,-1.2915,-1.2915,-1.2915,-1.2915,-1.2915,-1.2915,-1.2915,-1.2915,-1.2881,-1.2822,-1.251,-1.1999,-1.1434,-1.0864,-1.0269,-0.9588,-0.9211,-0.8883,-0.8857,-0.8778,-0.8778,-2.3095,-2.3246,-2.4299,-2.4788,-2.5021,-2.6013,-2.6487,-2.6487,-2.6487,-2.6487,-2.6487,-2.6487,-2.6487,-2.6487,-2.6487,-2.6487,-2.6487,-2.6411,-2.6185,-2.5762,-2.5661,-2.5272,-2.4971,-2.475,-2.4637,-2.46,-2.428,-2.3979,-2.3979,-2.3609,-2.3358,-2.3258,-2.3333,-2.317,-2.312,-2.3095,-2.3095,-2.3095,-2.3045,-2.2744,-2.2498,-2.2334,-2.1995,-2.1518,-2.1169,-2.0918,-2.0654,-2.0326,-2.0175,-2.015,-1.9999,-1.991,-1.9793,-1.9797,-1.9785,-1.9695,-1.9773,-1.9798,-1.9708,-1.9097,-1.8821,-1.8821,-1.89,-1.8715,-1.8715,-1.8581,-1.8394,-1.8097,-1.7688,-1.7457,-1.755,-1.7468,-1.7006,-1.6838,-1.6624,-1.6255,-1.5661,-1.541,-1.5293,-1.5225,-1.5322,-1.5352,-1.5215,-1.501,-1.4619,-1.4219,-1.3779,-1.3545,-1.3467,-1.3359,-1.3213,-1.3081,-1.3081,-1.2974,-1.2974,-1.2925,-1.2915,-1.2915,-1.2915,-1.2915,-1.2915,-1.2915,-1.2881,-1.2847,-1.2559,-1.2098,-1.1208,-1.0312,-0.9744,-0.9211,-0.9035,-0.8804,-0.8778,-0.8778,-0.8778,-2.3095,-2.317,-2.3954,-2.4494,-2.4913,-2.5988,-2.6487,-2.6487,-2.6487,-2.6487,-2.6487,-2.6487,-2.6487,-2.6487,-2.6487,-2.6487,-2.6487,-2.6487,-2.6273,-2.6223,-2.6126,-2.5799,-2.5485,-2.531,-2.5151,-2.4838,-2.4582,-2.4544,-2.4512,-2.4173,-2.4199,-2.4173,-2.3772,-2.3459,-2.3208,-2.3095,-2.3095,-2.3095,-2.3083,-2.2995,-2.2844,-2.2782,-2.2556,-2.2033,-2.1782,-2.1518,-2.1189,-2.0809,-2.0763,-2.0634,-2.0484,-2.0124,-1.9824,-1.9754,-1.9562,-1.9394,-1.9396,-1.9527,-1.9059,-1.8463,-1.8286,-1.8363,-1.8232,-1.7988,-1.795,-1.7468,-1.733,-1.7163,-1.6754,-1.6585,-1.6726,-1.6312,-1.6036,-1.6397,-1.6236,-1.5835,-1.541,-1.541,-1.5371,-1.5361,-1.541,-1.542,-1.5332,-1.5273,-1.4971,-1.4718,-1.4319,-1.4026,-1.3899,-1.3831,-1.3714,-1.3467,-1.332,-1.316,-1.3042,-1.2983,-1.2925,-1.2915,-1.2915,-1.2915,-1.2915,-1.2915,-1.2915,-1.2881,-1.2593,-1.2206,-1.1133,-1.0115,-0.9361,-0.8883,-0.8804,-0.8778,-0.8778,-0.8778,-0.8778,-2.3095,-2.317,-2.3753,-2.4318,-2.4888,-2.5787,-2.6298,-2.6461,-2.6487,-2.6487,-2.6487,-2.6487,-2.6487,-2.6487,-2.6487,-2.6487,-2.6487,-2.6487,-2.6487,-2.6487,-2.6474,-2.6223,-2.6021,-2.5896,-2.5774,-2.5385,-2.5159,-2.5084,-2.5059,-2.4863,-2.4725,-2.46,-2.4456,-2.4004,-2.3559,-2.3296,-2.3095,-2.3095,-2.3095,-2.3095,-2.3045,-2.302,-2.292,-2.2606,-2.2301,-2.1964,-2.1538,-2.1381,-2.1353,-2.1073,-2.0695,-2.0284,-1.9916,-1.9527,-1.9304,-1.9085,-1.9085,-1.9136,-1.858,-1.8114,-1.8038,-1.8266,-1.7628,-1.7268,-1.7191,-1.6866,-1.6708,-1.6407,-1.5798,-1.5817,-1.6011,-1.5517,-1.5653,-1.6048,-1.5874,-1.5478,-1.541,-1.541,-1.542,-1.542,-1.542,-1.542,-1.542,-1.541,-1.5283,-1.5089,-1.4903,-1.4621,-1.4338,-1.4241,-1.4133,-1.386,-1.3603,-1.3398,-1.3184,-1.3013,-1.2964,-1.2915,-1.2964,-1.3032,-1.2915,-1.2915,-1.2915,-1.2891,-1.2646,-1.2135,-1.0956,-0.9987,-0.9211,-0.8831,-0.8804,-0.8778,-0.8778,-0.8778,-0.8778,-2.3095,-2.3183,-2.374,-2.4293,-2.4838,-2.5498,-2.6034,-2.6474,-2.6487,-2.6487,-2.6487,-2.6487,-2.6487,-2.6487,-2.6487,-2.6487,-2.6487,-2.6487,-2.6487,-2.6487,-2.6487,-2.6411,-2.6424,-2.6373,-2.6248,-2.6185,-2.5984,-2.5636,-2.5561,-2.5372,-2.5134,-2.4921,-2.4883,-2.4494,-2.401,-2.3659,-2.3346,-2.3195,-2.3095,-2.3095,-2.3095,-2.3095,-2.3045,-2.2827,-2.2496,-2.193,-2.1496,-2.1289,-2.0955,-2.062,-2.0239,-2.0146,-1.9878,-1.9356,-1.9048,-1.8896,-1.8959,-1.8708,-1.8327,-1.7907,-1.7663,-1.7677,-1.7095,-1.6673,-1.6592,-1.6622,-1.6586,-1.642,-1.6039,-1.5753,-1.5566,-1.5547,-1.5547,-1.5605,-1.5566,-1.543,-1.542,-1.542,-1.542,-1.542,-1.542,-1.542,-1.542,-1.542,-1.542,-1.5342,-1.5147,-1.505,-1.4777,-1.4552,-1.4426,-1.4221,-1.3965,-1.3682,-1.3467,-1.332,-1.3301,-1.3359,-1.3242,-1.3242,-1.3086,-1.2943,-1.2922,-1.2875,-1.2746,-1.2029,-1.0694,-0.9718,-0.9008,-0.8785,-0.8791,-0.8778,-0.8778,-0.8778,-0.8778,-2.3095,-2.312,-2.3283,-2.391,-2.4895,-2.5812,-2.6361,-2.6487,-2.6487,-2.6487,-2.6487,-2.6487,-2.6487,-2.6487,-2.6487,-2.6487,-2.6487,-2.6487,-2.6487,-2.6487,-2.6487,-2.6487,-2.6487,-2.6487,-2.6487,-2.6436,-2.6311,-2.6172,-2.6197,-2.5971,-2.5649,-2.5448,-2.5273,-2.4948,-2.4598,-2.4342,-2.3729,-2.331,-2.3172,-2.3145,-2.309,-2.3047,-2.3035,-2.2845,-2.2274,-2.1721,-2.1443,-2.1016,-2.0715,-2.0491,-2.0072,-1.9772,-1.9011,-1.892,-1.891,-1.8881,-1.8829,-1.8654,-1.8089,-1.785,-1.7647,-1.7281,-1.6857,-1.6735,-1.6656,-1.6667,-1.6637,-1.6476,-1.6365,-1.6174,-1.6005,-1.5956,-1.5918,-1.585,-1.5732,-1.5547,-1.5518,-1.5449,-1.5439,-1.542,-1.542,-1.542,-1.542,-1.542,-1.542,-1.542,-1.5381,-1.5303,-1.5205,-1.4971,-1.4805,-1.4582,-1.4385,-1.4121,-1.3958,-1.3821,-1.3802,-1.3809,-1.3662,-1.3526,-1.342,-1.3247,-1.3015,-1.2634,-1.2174,-1.1336,-1.0241,-0.9497,-0.9018,-0.8858,-0.8838,-0.8818,-0.8785,-0.8831,-0.8791,-2.3095,-2.3095,-2.3095,-2.376,-2.4838,-2.5737,-2.626,-2.6449,-2.6487,-2.6487,-2.6487,-2.6487,-2.6487,-2.6487,-2.6487,-2.6487,-2.6487,-2.6487,-2.6487,-2.6487,-2.6487,-2.6487,-2.6487,-2.6487,-2.6487,-2.6487,-2.6487,-2.6411,-2.6418,-2.6427,-2.6223,-2.5954,-2.5676,-2.5071,-2.4551,-2.3962,-2.3598,-2.3386,-2.3306,-2.3273,-2.3105,-2.2818,-2.2659,-2.2463,-2.1803,-2.1322,-2.1005,-2.0462,-2.0462,-2.0171,-1.9682,-1.9425,-1.8804,-1.8723,-1.8406,-1.8344,-1.8417,-1.8154,-1.7776,-1.7845,-1.7553,-1.7337,-1.7174,-1.7236,-1.7073,-1.698,-1.6801,-1.6633,-1.665,-1.6638,-1.656,-1.6482,-1.6416,-1.6328,-1.6025,-1.5723,-1.5605,-1.5498,-1.5459,-1.543,-1.542,-1.542,-1.542,-1.542,-1.542,-1.542,-1.542,-1.5391,-1.5352,-1.5273,-1.5166,-1.5039,-1.4814,-1.458,-1.4436,-1.428,-1.4153,-1.4065,-1.3958,-1.3842,-1.3755,-1.3295,-1.2815,-1.21,-1.1375,-1.0662,-1.0122,-0.9658,-0.9252,-0.9118,-0.9085,-0.9172,-0.9112,-0.8925,-0.8891,-2.3095,-2.3108,-2.3158,-2.3822,-2.482,-2.541,-2.5984,-2.6461,-2.6487,-2.6487,-2.6487,-2.6487,-2.6487,-2.6487,-2.6487,-2.6487,-2.6487,-2.6487,-2.6487,-2.6487,-2.6487,-2.6487,-2.6487,-2.6487,-2.6487,-2.6487,-2.6267,-2.5943,-2.6094,-2.5896,-2.5697,-2.6198,-2.5263,-2.4531,-2.4096,-2.3536,-2.3225,-2.3177,-2.332,-2.335,-2.2868,-2.2364,-2.1784,-2.1647,-2.0942,-2.0236,-1.9792,-1.9759,-2.0009,-1.9464,-1.9156,-1.9081,-1.8795,-1.8485,-1.7966,-1.7807,-1.8032,-1.7939,-1.778,-1.7846,-1.7937,-1.7915,-1.7998,-1.7852,-1.7578,-1.7321,-1.7145,-1.7096,-1.7135,-1.7145,-1.7087,-1.6911,-1.6816,-1.667,-1.6436,-1.6211,-1.6084,-1.5869,-1.5586,-1.5527,-1.542,-1.542,-1.542,-1.542,-1.542,-1.542,-1.542,-1.542,-1.542,-1.542,-1.5381,-1.5332,-1.5156,-1.4941,-1.4853,-1.466,-1.4436,-1.4319,-1.4245,-1.4012,-1.383,-1.3226,-1.2494,-1.1643,-1.0804,-1.0673,-1.0279,-0.9796,-0.9499,-0.9506,-0.9506,-0.9641,-0.9514,-0.9246,-0.9132,-2.3095,-2.3145,-2.3584,-2.4217,-2.4825,-2.5372,-2.5959,-2.6474,-2.6487,-2.6487,-2.6487,-2.6487,-2.6487,-2.6487,-2.6487,-2.6487,-2.6487,-2.6487,-2.6487,-2.6487,-2.6487,-2.6487,-2.6452,-2.6383,-2.6418,-2.6233,-2.5804,-2.504,-2.4696,-2.4433,-2.4289,-2.4289,-2.3891,-2.3718,-2.358,-2.305,-2.2914,-2.2853,-2.2696,-2.2834,-2.2638,-2.1649,-2.0878,-2.0666,-2.0096,-1.9595,-1.9144,-1.8787,-1.8697,-1.8303,-1.8303,-1.8293,-1.8269,-1.8076,-1.7969,-1.79,-1.793,-1.7891,-1.7891,-1.792,-1.7988,-1.8008,-1.8008,-1.8008,-1.792,-1.7773,-1.7676,-1.7623,-1.7613,-1.7603,-1.7545,-1.7383,-1.7207,-1.7041,-1.6836,-1.6699,-1.6543,-1.6143,-1.5762,-1.5576,-1.5449,-1.542,-1.542,-1.542,-1.542,-1.542,-1.542,-1.542,-1.542,-1.542,-1.542,-1.5381,-1.5391,-1.5244,-1.5166,-1.4897,-1.4572,-1.4601,-1.4592,-1.4305,-1.3841,-1.2814,-1.1782,-1.0975,-1.0299,-1.0363,-1.0295,-0.9903,-0.9686,-0.9829,-0.9856,-0.9916,-0.9856,-0.9635,-0.9546,-2.3095,-2.3145,-2.3446,-2.4061,-2.4795,-2.5134,-2.5711,-2.6399,-2.6487,-2.6487,-2.6487,-2.6487,-2.6487,-2.6487,-2.6487,-2.6452,-2.6452,-2.6487,-2.6487,-2.6487,-2.6349,-2.6487,-2.6383,-2.6025,-2.5804,-2.5594,-2.4814,-2.4,-2.3404,-2.3551,-2.3588,-2.3331,-2.3184,-2.284,-2.2765,-2.2531,-2.236,-2.2349,-2.1921,-2.1813,-2.1947,-2.1029,-2.0324,-2.0049,-1.9446,-1.8926,-1.863,-1.8236,-1.8144,-1.8008,-1.8076,-1.8076,-1.8076,-1.8042,-1.8008,-1.7988,-1.7998,-1.8008,-1.8008,-1.8008,-1.8008,-1.8008,-1.8008,-1.8008,-1.8008,-1.7871,-1.7871,-1.7852,-1.7852,-1.7852,-1.7808,-1.7695,-1.7666,-1.7559,-1.7207,-1.6934,-1.6562,-1.6144,-1.5791,-1.5498,-1.542,-1.542,-1.542,-1.542,-1.542,-1.542,-1.542,-1.542,-1.542,-1.542,-1.542,-1.542,-1.542,-1.5381,-1.5293,-1.4974,-1.4557,-1.467,-1.4697,-1.3775,-1.2844,-1.1951,-1.103,-1.0581,-1.0322,-1.036,-1.0208,-1.0,-1.0084,-1.0224,-1.0204,-1.0164,-1.0084,-1.003,-1.0023,-2.3095,-2.3095,-2.3108,-2.371,-2.4625,-2.4775,-2.5398,-2.6273,-2.6461,-2.6487,-2.6487,-2.6487,-2.6487,-2.6487,-2.6302,-2.6314,-2.6129,-2.5687,-2.5861,-2.5861,-2.5873,-2.5616,-2.5394,-2.5217,-2.4814,-2.4289,-2.3661,-2.322,-2.2787,-2.2776,-2.2702,-2.2888,-2.2478,-2.18,-2.1555,-2.127,-2.1094,-2.1326,-2.1135,-2.0791,-2.0601,-2.0367,-1.9979,-1.9414,-1.8813,-1.8149,-1.8096,-1.8027,-1.8027,-1.8008,-1.8008,-1.8008,-1.8008,-1.8008,-1.8008,-1.8008,-1.8008,-1.8008,-1.8008,-1.8008,-1.8008,-1.8008,-1.8008,-1.8008,-1.8008,-1.8008,-1.8008,-1.8008,-1.8008,-1.8008,-1.7998,-1.7988,-1.7978,-1.7939,-1.7529,-1.7178,-1.6731,-1.63,-1.6007,-1.5654,-1.5527,-1.5537,-1.543,-1.543,-1.542,-1.542,-1.542,-1.542,-1.542,-1.542,-1.542,-1.542,-1.542,-1.5381,-1.5225,-1.4835,-1.4362,-1.3965,-1.3765,-1.2818,-1.1958,-1.1351,-1.0926,-1.0699,-1.0519,-1.0479,-1.0492,-1.0405,-1.0499,-1.0512,-1.0452,-1.0365,-1.0385,-1.0365,-1.0459,-2.3095,-2.3095,-2.3095,-2.3509,-2.418,-2.46,-2.5184,-2.5774,-2.6298,-2.6487,-2.6452,-2.6487,-2.6487,-2.6452,-2.5581,-2.5288,-2.517,-2.4731,-2.4217,-2.4036,-2.4469,-2.4289,-2.4108,-2.4072,-2.332,-2.2802,-2.2366,-2.1924,-2.1821,-2.1489,-2.1231,-2.1308,-2.1242,-2.0934,-2.0905,-2.0644,-2.0702,-2.0836,-2.0836,-2.062,-2.0394,-2.0098,-1.9558,-1.9137,-1.8811,-1.8559,-1.8412,-1.8164,-1.8057,-1.8008,-1.8027,-1.8037,-1.8008,-1.8008,-1.8008,-1.8008,-1.8008,-1.8008,-1.8008,-1.8008,-1.8008,-1.8008,-1.8008,-1.8008,-1.8008,-1.8008,-1.8008,-1.8008,-1.8008,-1.8008,-1.7998,-1.7998,-1.7998,-1.7998,-1.7764,-1.751,-1.7191,-1.6966,-1.6741,-1.6299,-1.5947,-1.5771,-1.5498,-1.5488,-1.5459,-1.5449,-1.542,-1.542,-1.542,-1.542,-1.5352,-1.5352,-1.5323,-1.4923,-1.456,-1.4392,-1.3974,-1.3524,-1.2948,-1.2212,-1.16,-1.1108,-1.0744,-1.0618,-1.0586,-1.0553,-1.0586,-1.0586,-1.0579,-1.0559,-1.0573,-1.0553,-1.0586,-1.0586,-1.0586]},{"header":{"parameterUnit":"m.s-1","parameterCategory":1,"la1":31.0,"la2":29.5877,"lo1":-88.7671,"lo2":-86.6584,"dy":0.0162,"dx":0.0185,"nx":115,"ny":88,"refTime":"2026-03-23T12:00:00:Z","depth":0,"parameterNumber":3,"parameterNumberName":"V-component_of_WINDS"},"data":[0.0,0.0,0.0,0.0,0.0,0.0,0.0,0.0,0.0,0.0,0.0,0.0,0.0,0.0,0.0,0.0,0.0,0.0,0.0,0.0,0.0,0.0,0.0,0.0,0.0,0.0,0.0,0.0,0.0,0.0,0.0,0.0,0.0,0.0,0.0,0.0,0.0,0.0,0.0,0.0,0.0,0.0,0.0,0.0,0.0,0.0,0.0,0.0,0.0,0.0,0.0,0.0,0.0,0.0,0.0,0.0,0.0,0.0,0.0,0.0,0.0,0.0,0.0,0.0,0.0,0.0,0.0,0.0,0.0,0.0,0.0,0.0,0.0,0.0,0.0,0.0,0.0,0.0,0.0,0.0,0.0,0.0,0.0,0.0,0.0,0.0,0.0,0.0,0.0,0.0,0.0,0.0,0.0,0.0,0.0,0.0,0.0,0.0,0.0,0.0,0.0,0.0,0.0,0.0,0.0,0.0,0.0,0.0,0.0,0.0,0.0,0.0,0.0,0.0,0.0,0.0,0.0,0.0,0.0,0.0,0.0,0.0,0.0,0.0,0.0,0.0,0.0,0.0,0.0,0.0,0.0,0.0,0.0,0.0,0.0,0.0,0.0,0.0,0.0,0.0,0.0,0.0,0.0,0.0,0.0,0.0,0.0,0.0,0.0,0.0,0.0,0.0,0.0,0.0,0.0,0.0,0.0,0.0,0.0,0.0,0.0,0.0,0.0,0.0,0.0,0.0,0.0,0.0,0.0,0.0,0.0,0.0,0.0,0.0,0.0,0.0,0.0,0.0,0.0,0.0,0.0,0.0,0.0,0.0,0.0,0.0,0.0,0.0,0.0,0.0,0.0,0.0,0.0,0.0,0.0,0.0,0.0,0.0,0.0,0.0,0.0,0.0,0.0,0.0,0.0,0.0,0.0,0.0,0.0,0.0,0.0,0.0,0.0,0.0,0.0,0.0,0.0,0.0,0.0,0.0,0.0,0.0,0.0,0.0,0.0,0.0,0.0,0.0,0.0,0.0,0.0,0.0,0.0,0.0,0.0,0.0,0.0,0.0,0.0,0.0,0.0,0.0,0.0,0.0,0.0,0.0,0.0,0.0,0.0,0.0,0.0,0.0,0.0,0.0,0.0,0.0,0.0,0.0,0.0,0.0,0.0,0.0,0.0,0.0,0.0,0.0,0.0,0.0,0.0,0.0,0.0,0.0,0.0,0.0,0.0,0.0,0.0,0.0,0.0,0.0,0.0,0.0,0.0,0.0,0.0,0.0,0.0,0.0,0.0,0.0,0.0,0.0,0.0,0.0,0.0,0.0,0.0,0.0,0.0,0.0,0.0,0.0,0.0,0.0,0.0,0.0,0.0,0.0,0.0,0.0,0.0,0.0,0.0,0.0,0.0,0.0,0.0,0.0,0.0,0.0,0.0,0.0,0.0,0.0,0.0,0.0,0.0,0.0,0.0,0.0,0.0,0.0,0.0,0.0,0.0,0.0,0.0,0.0,0.0,0.0,0.0,0.0,0.0,0.0,0.0,0.0,0.0,0.0,0.0,0.0,0.0,0.0,0.0,0.0,0.0,0.0,0.0,0.0,0.0,0.0,0.0,0.0,0.0,0.0,0.0,0.0,0.0,0.0,0.0,0.0,0.0,0.0,0.0,0.0,0.0,0.0,0.0,0.0,0.0,0.0,0.0,0.0,0.0,0.0,0.0,0.0,0.0,0.0,0.0,0.0,0.0,0.0,0.0,0.0,0.0,0.0,0.0,0.0,0.0,0.0,0.0,0.0,0.0,0.0,0.0,0.0,0.0,0.0,0.0,0.0,0.0,0.0,0.0,0.0,0.0,0.0,0.0,0.0,0.0,0.0,0.0,0.0,0.0,0.0,0.0,0.0,0.0,0.0,0.0,0.0,0.0,0.0,0.0,0.0,0.0,0.0,0.0,0.0,0.0,0.0,0.0,0.0,0.0,0.0,0.0,0.0,0.0,0.0,0.0,0.0,0.0,0.0,0.0,0.0,0.0,0.0,0.0,0.0,0.0,0.0,0.0,0.0,0.0,0.0,0.0,0.0,0.0,0.0,0.0,0.0,0.0,0.0,0.0,0.0,0.0,0.0,0.0,0.0,0.0,0.0,0.0,0.0,0.0,0.0,0.0,0.0,0.0,0.0,0.0,0.0,0.0,0.0,0.0,0.0,0.0,0.0,0.0,0.0,0.0,0.0,0.0,0.0,0.0,0.0,0.0,0.0,0.0,0.0,0.0,0.0,0.0,0.0,0.0,0.0,0.0,0.0,0.0,0.0,0.0,0.0,0.0,0.0,0.0,0.0,0.0,0.0,0.0,0.0,0.0,0.0,0.0,0.0,0.0,0.0,0.0,0.0,0.0,0.0,0.0,0.0,0.0,0.0,0.0,0.0,0.0,0.0,0.0,0.0,0.0,0.0,0.0,0.0,0.0,0.0,0.0,0.0,0.0,0.0,0.0,0.0,0.0,0.0,0.0,0.0,0.0,0.0,0.0,0.0,0.0,0.0,0.0,0.0,0.0,0.0,0.0,0.0,0.0,0.0,0.0,0.0,0.0,0.0,0.0,0.0,0.0,0.0,0.0,0.0,0.0,0.0,0.0,0.0,0.0,0.0,0.0,0.0,0.0,0.0,0.0,0.0,0.0,0.0,0.0,0.0,0.0,0.0,0.0,0.0,0.0,0.0,0.0,0.0,0.0,0.0,0.0,0.0,0.0,0.0,0.0,0.0,0.0,0.0,0.0,0.0,0.0,0.0,0.0,0.0,0.0,0.0,0.0,0.0,0.0,0.0,0.0,0.0,0.0,0.0,0.0,0.0,0.0,0.0,0.0,0.0,0.0,0.0,0.0,0.0,0.0,0.0,0.0,0.0,0.0,0.0,0.0,0.0,0.0,0.0,0.0,0.0,0.0,0.0,0.0,0.0,0.0,0.0,0.0,0.0,0.0,0.0,0.0,0.0,0.0,0.0,0.0,0.0,0.0,0.0,0.0,0.0,0.0,0.0,0.0,0.0,0.0,0.0,0.0,0.0,0.0,0.0,0.0,0.0,0.0,0.0,0.0,0.0,0.0,0.0,0.0,0.0,0.0,0.0,0.0,0.0,0.0,0.0,0.0,0.0,0.0,0.0,0.0,0.0,0.0,0.0,0.0,0.0,0.0,0.0,0.0,0.0,0.0,0.0,0.0,0.0,0.0,0.0,0.0,0.0,0.0,0.0,0.0,0.0,0.0,0.0,0.0,0.0,0.0,0.0,0.0,0.0,0.0,0.0,0.0,0.0,0.0,0.0,0.0,0.0,0.0,0.0,0.0,0.0,0.0,0.0,0.0,0.0,0.0,0.0,0.0,0.0,0.0,0.0,0.0,0.0,0.0,0.0,0.0,0.0,0.0,0.0,0.0,0.0,0.0,0.0,0.0,0.0,0.0,0.0,0.0,0.0,0.0,0.0,0.0,0.0,0.0,0.0,0.0,0.0,0.0,0.0,0.0,0.0,0.0,0.0,0.0,0.0,0.0,0.0,0.0,0.0,0.0,0.0,0.0,0.0,0.0,0.0,0.0,0.0,0.0,0.0,0.0,0.0,0.0,0.0,0.0,0.0,0.0,0.0,0.0,0.0,0.0,0.0,0.0,0.0,0.0,0.0,0.0,0.0,0.0,0.0,0.0,0.0,0.0,0.0,0.0,0.0,0.0,0.0,0.0,0.0,0.0,0.0,0.0,0.0,0.0,0.0,0.0,0.0,0.0,0.0,0.0,0.0,0.0,0.0,0.0,0.0,0.0,0.0,0.0,0.0,0.0,0.0,0.0,0.0,0.0,0.0,0.0,0.0,0.0,0.0,0.0,0.0,0.0,0.0,0.0,0.0,0.0,0.0,0.0,0.0,0.0,0.0,0.0,0.0,0.0,0.0,0.0,0.0,0.0,0.0,0.0,0.0,0.0,0.0,0.0,0.0,0.0,0.0,0.0,0.0,0.0,0.0,0.0,0.0,0.0,0.0,0.0,0.0,0.0,0.0,0.0,0.0,0.0,0.0,0.0,0.0,0.0,0.0,0.0,0.0,0.0,0.0,0.0,0.0,0.0,0.0,0.0,0.0,0.0,0.0,0.0,0.0,0.0,0.0,0.0,0.0,0.0,0.0,0.0,0.0,0.0,0.0,0.0,0.0,0.0,0.0,0.0,0.0,0.0,0.0,0.0,0.0,0.0,0.0,0.0,0.0,0.0,0.0,0.0,0.0,0.0,0.0,0.0,0.0,0.0,0.0,0.3506,0.0,0.0,0.0,0.0,0.0,0.0,0.0,0.0,0.0,0.0,0.0,0.0,0.0,0.0,0.0,0.0,0.0,0.0,0.0,0.0,0.0,0.0,0.0,0.0,0.0,0.0,0.0,0.0,0.0,0.0,0.0,0.0,0.0,0.0,0.0,0.0,0.0,0.0,0.0,0.0,0.0,0.0,0.0,0.0,0.0,0.0,0.0,0.0,0.0,0.0,0.0,0.0,0.0,0.0,0.0,0.0,0.0,0.0,0.0,0.0,0.0,0.0,0.0,0.0,0.0,0.0,0.0,0.0,0.0,0.0,0.0,0.0,0.0,0.0,0.0,0.0,0.0,0.0,0.0,0.0,0.0,0.0,0.0,0.0,0.0,0.0,0.0,0.0,0.0,0.0,0.0,0.0,0.0,0.0,0.0,0.0,0.0,0.0,0.0,0.0,0.0,0.0,0.0,0.0,0.0,0.0,0.0,0.0,0.0,0.0,0.358,0.371,0.372,0.3796,0.3914,0.0,0.0,0.0,0.0,0.0,0.0,0.0,0.0,0.0,0.0,0.0,0.0,0.0,0.0,0.0,0.0,0.0,0.0,0.0,0.0,0.0,0.0,0.0,0.0,0.0,0.0,0.0,0.0,0.0,0.0,0.0,0.0,0.0,0.0,0.0,0.0,0.0,0.0,0.0,0.0,0.0,0.0,0.0,0.0,0.0,0.0,0.0,0.0,0.0,0.0,0.0,0.0,0.0,0.0,0.0,0.0,0.0,0.0,0.0,0.0,0.0,0.0,0.0,0.0,0.0,0.0,0.0,0.0,0.0,0.0,0.0,0.0,0.0,0.0,0.0,0.0,0.0,0.0,0.0,0.0,0.0,0.0,0.0,0.0,0.0,0.0,0.0,0.0,0.0,0.0,0.0,0.0,0.0,0.0,0.0,0.0,0.0,0.0,0.0,0.0,0.0,0.0,0.0,0.0,0.0,0.0,0.0,0.0,0.0,0.0,0.0,0.0,0.416,0.4248,0.4449,0.0,0.0,0.0,0.0,0.0,0.0,0.0,0.0,0.0,0.0,0.0,0.0,0.0,0.0,0.0,0.0,0.0,0.0,0.0,0.0,0.0,0.0,0.0,0.0,0.0,0.0,0.0,0.0,0.0,0.0,0.0,0.0,0.0,0.0,0.0,0.0,0.0,0.0,0.0,0.0,0.0,0.0,0.0,0.0,0.0,0.0,0.0,0.0,0.0,0.0,0.0,0.0,0.0,0.0,0.0,0.0,0.0,0.0,0.0,0.0,0.0,0.0,0.0,0.0,0.0,0.0,0.0,0.0,0.0,0.0,0.0,0.0,0.0,0.0,0.0,0.0,0.0,0.0,0.0,0.0,0.0,0.0,0.0,0.0,0.0,0.0,0.0,0.0,0.0,0.0,0.0,0.0,0.0,0.0,0.0,0.0,0.0,0.0,0.0,0.0,0.0,0.0,0.0,0.0,0.0,0.0,0.0,0.0,0.0,0.0,0.4191,0.4877,0.4908,0.0,0.4925,0.0,0.0,0.0,0.0,0.0,0.0,0.0,0.0,0.0,0.0,0.0,0.0,0.0,0.0,0.0,0.0,0.0,0.0,0.0,0.0,0.0,0.0,0.0,0.0,0.0,0.0,0.0,0.0,0.0,0.0,0.0,0.0,0.0,0.0,0.0,0.0,0.0,0.0,0.0,0.0,0.0,0.0,0.0,0.0,0.0,0.0,0.0,0.0,0.0,0.0,0.0,0.0,0.0,0.0,0.0,0.0,0.0,0.0,0.0,0.0,0.0,0.0,0.0,0.0,0.0,0.0,0.0,0.0,0.0,0.0,0.0,0.0,0.0,0.0,0.0,0.0,0.0,0.0,0.0,0.0,0.0,0.0,0.0,0.0,0.0,0.0,0.0,0.0,0.0,0.0,0.0,0.0,0.0,0.0,0.0,0.0,0.0,0.0,0.0,0.0,0.0,0.0,0.0,0.0,0.0,0.0,0.0,0.0,0.0,0.0,0.4608,0.5232,0.5397,0.5342,0.0,0.0,0.0,0.0,0.0,0.0,0.0,0.0,0.0,0.0,0.0,0.0,0.0,0.0,0.0,0.0,0.0,0.0,0.0,0.0,0.0,0.0,0.0,0.0,0.0,0.0,0.0,0.0,0.0,0.0,0.0,0.0,0.0,0.0,0.0,0.0,0.0,0.0,0.0,0.0,0.0,0.0,0.0,0.0,0.0,0.0,0.0,0.0,0.0,0.0,0.0,0.0,0.0,0.0,0.0,0.0,0.0,0.0,0.0,0.0,0.0,0.0,0.0,0.0,0.0,0.0,0.0,0.0,0.0,0.0,0.0,0.0,0.0,0.0,0.0,0.0,0.0,0.0,0.0,0.0,0.0,0.0,0.0,0.0,0.0,0.0,0.0,0.0,0.0,0.0,0.0,0.0,0.0,0.0,0.0,0.0,0.0,0.0,0.0,0.0,0.0,0.0,0.0,0.0,0.0,0.0,0.0,0.0,0.0,0.0,0.4585,0.0,0.5634,0.5647,0.5508,0.5302,0.0,0.0,0.0,0.0,0.0,0.0,0.0,0.0,0.0,0.0,0.0,0.0,0.0,0.0,0.0,0.0,0.0,0.0,0.0,0.0,0.0,0.0,0.0,0.0,0.0,0.0,0.0,0.0,0.0,0.0,0.0,0.0,0.0,0.0,0.0,0.0,0.0,0.0,0.0,0.0,0.0,0.0,0.0,0.0,0.0,0.0,0.0,0.0,0.0,0.0,0.0,0.0,0.0,0.0,0.0,0.0,0.0,0.0,0.0,0.0,0.0,0.0,0.0,0.0,0.0,0.0,0.0,0.0,0.0,0.0,0.0,0.0,0.0,0.0,0.0,0.0,0.0,0.0,0.0,0.0,0.0,0.0,0.0,0.0,0.0,0.0,0.0,0.0,0.0,0.0,0.0,0.0,0.0,0.0,0.0,0.0,0.0,0.0,0.0,0.0,0.0,0.0,0.0,0.0,0.0,0.0,0.0,0.0,0.0,0.5153,0.5409,0.6292,0.5565,0.5332,0.0,0.0,0.0,0.0,0.0,0.0,0.0,0.0,0.0,0.0,0.0,0.0,0.0,0.0,0.0,0.0,0.0,0.0,0.0,0.0,0.0,0.0,0.0,0.0,0.0,0.0,0.0,0.0,0.0,0.0,0.0,0.0,0.0,0.0,0.0,0.0,0.0,0.0,0.0,0.0,0.0,0.0,0.0,0.0,0.0,0.0,0.0,0.0,0.0,0.0,0.0,0.0,0.0,0.0,0.0,0.0,0.0,0.0,0.0,0.0,0.0,0.0,0.0,0.0,0.0,0.0,0.0,0.0,0.0,0.0,0.0,0.0,0.0,0.0,0.0,0.0,0.0,0.0,0.0,0.0,0.0,0.0,0.0,0.0,0.0,0.0,0.0,0.0,0.0,0.0,0.0,0.0,0.0,0.0,0.0,0.0,0.0,0.0,0.0,0.0,0.0,0.0,0.0,0.0,0.0,0.0,0.0,0.0,0.0,0.4749,0.5245,0.5662,0.5986,0.5714,0.5478,0.0,0.0,0.0,0.0,0.0,0.0,0.0,0.0,0.0,0.0,0.0,0.0,0.0,0.0,0.0,0.0,0.0,0.0,0.0,0.0,0.0,0.0,0.0,0.0,0.0,0.0,0.0,0.0,0.0,0.0,0.0,0.0,0.0,0.0,0.0,0.0,0.0,0.0,0.0,0.0,0.0,0.0,0.0,0.0,0.0,0.0,0.0,0.0,0.0,0.0,0.0,0.0,0.0,0.0,0.0,0.0,0.0,0.0,0.0,0.0,0.0,0.0,0.0,0.0,0.0,0.0,0.0,0.0,0.0,0.0,0.0,0.0,0.0,0.0,0.0,0.0,0.0,0.0,0.0,0.0,0.0,0.0,0.0,0.0,0.0,0.0,0.0,0.0,0.0,0.0,0.0,0.0,0.0,0.0,0.0,0.0,0.0,0.0,0.0,0.0,0.0,0.0,0.0,0.0,0.0,0.0,0.0,0.0,0.0,0.4643,0.0,0.5792,0.0,0.5645,0.5419,0.0,0.0,0.0,0.0,0.0,0.0,0.0,0.0,0.0,0.0,0.0,0.0,0.0,0.0,0.0,0.0,0.0,0.0,0.0,0.0,0.0,0.0,0.0,0.0,0.0,0.0,0.0,0.0,0.0,0.0,0.0,0.0,0.0,0.0,0.0,0.0,0.0,0.0,0.0,0.0,0.0,0.0,0.0,0.0,0.0,0.0,0.0,0.0,0.0,0.0,0.0,0.0,0.0,0.0,0.0,0.0,0.0,0.0,0.0,0.0,0.0,0.0,0.0,0.0,0.0,0.0,0.0,0.0,0.0,0.0,0.0,0.0,0.0,0.0,0.0,0.0,0.0,0.0,0.0,0.0,0.0,0.0,0.0,0.0,0.0,0.0,0.0,0.0,0.0,0.0,0.0,0.0,0.0,0.0,0.0,0.0,0.0,0.0,0.0,0.0,0.0,0.0,0.0,0.0,0.0,0.0,0.0,0.0,0.4391,0.5329,0.5653,0.5803,0.5804,0.5361,0.5127,0.0,0.0,0.0,0.0,0.0,0.0,0.0,0.0,0.0,0.0,0.0,0.0,0.0,0.0,0.0,0.0,0.0,0.0,0.0,0.0,0.0,0.0,0.0,0.0,0.0,0.0,0.0,0.0,0.0,0.0,0.0,0.0,0.0,0.0,0.0,0.0,0.0,0.0,0.0,0.0,0.0,0.0,0.0,0.0,0.0,0.0,0.0,0.0,0.0,0.0,0.0,0.0,0.0,0.0,0.0,0.0,0.0,0.0,0.0,0.0,0.0,0.0,0.0,0.0,0.0,0.0,0.0,0.0,0.0,0.0,0.0,0.0,0.0,0.0,0.0,0.0,0.0,0.0,0.0,0.0,0.0,0.0,0.0,0.0,0.0,0.0,0.0,0.0,0.0,0.0,0.0,0.0,0.0,0.0,0.0,0.0,0.0,0.0,0.0,0.0,0.0,0.0,0.0,0.0,0.0,0.0,0.0,0.0,0.0,0.4924,0.5486,0.5903,0.6118,0.5472,0.5373,0.0,0.0,0.0,0.0,0.0,0.0,0.0,0.0,0.0,0.0,0.0,0.0,0.0,0.0,0.0,0.0,0.0,0.0,0.0,0.0,0.0,0.0,0.0,0.0,0.0,0.0,0.0,0.0,0.0,0.0,0.0,0.0,0.0,0.0,0.0,0.0,0.0,0.0,0.0,0.0,0.0,0.0,0.0,0.0,0.0,0.0,0.0,0.0,0.0,0.0,0.0,0.0,0.0,0.0,0.0,0.0,0.0,0.0,0.0,0.0,0.0,0.0,0.0,0.0,0.0,0.0,0.0,0.0,0.0,0.0,0.0,0.0,0.0,0.0,0.0,0.0,0.0,0.0,0.0,0.0,0.0,0.0,0.0,0.0,0.0,0.0,0.0,0.0,0.0,0.0,0.0,0.0,0.0,0.0,0.0,0.0,0.0,0.0,0.0,0.0,0.0,0.0,0.0,0.0,0.0,0.0,0.0,0.0,0.0,0.5154,0.5714,0.6062,0.6106,0.5622,0.5512,0.5817,0.0,0.0,0.0,0.0,0.0,0.0,0.0,0.0,0.0,0.0,0.0,0.0,0.0,0.0,0.0,0.0,0.0,0.0,0.0,0.0,0.0,0.0,0.0,0.0,0.0,0.0,0.0,0.0,0.0,0.0,0.0,0.0,0.0,0.0,0.0,0.0,0.0,0.0,0.0,0.0,0.0,0.0,0.0,0.0,0.0,0.0,0.0,0.0,0.0,0.0,0.0,0.0,0.0,0.0,0.0,0.0,0.0,0.0,0.0,0.0,0.0,0.0,0.0,0.0,0.0,0.0,0.0,0.0,0.0,0.0,0.0,0.0,0.0,0.0,0.0,0.0,0.0,0.0,0.0,0.0,0.0,0.0,0.0,0.0,0.0,0.0,0.0,0.0,0.0,0.0,0.0,0.0,0.0,0.0,0.0,0.0,0.0,0.0,0.0,0.0,0.0,0.0,0.0,0.0,0.0,0.0,0.0,0.0,0.5852,0.6274,0.6317,0.5918,0.5858,0.5639,0.0,0.0,0.0,0.0,0.0,0.0,0.0,0.0,0.0,0.0,0.0,0.0,0.0,0.0,0.0,0.0,0.0,0.0,0.0,0.0,0.0,0.0,0.0,0.0,0.0,0.0,0.0,0.0,0.0,0.0,0.0,0.0,0.0,0.0,0.0,0.0,0.0,0.0,0.0,0.0,0.0,0.0,0.0,0.0,0.0,0.0,0.0,0.0,0.0,0.0,0.0,0.0,0.0,0.0,0.0,0.0,0.0,0.0,0.0,0.0,0.0,0.0,0.0,0.0,0.0,0.0,0.0,0.0,0.0,0.0,0.0,0.0,0.0,0.0,0.0,0.0,0.0,0.0,0.0,0.0,0.0,0.0,0.0,0.0,0.0,0.0,0.0,0.0,0.0,0.0,0.0,0.0,0.0,0.0,0.0,0.0,0.0,0.0,0.0,0.0,0.0,0.0,0.0,0.0,0.0,0.0,0.0,0.0,0.0,0.6281,0.7271,0.7498,0.6933,0.6425,0.6202,0.0,0.0,0.0,0.0,0.0,0.0,0.0,0.0,0.0,0.0,0.0,0.0,0.0,0.0,0.0,0.0,0.0,0.0,0.0,0.0,0.0,0.0,0.0,0.0,0.0,0.0,0.0,0.0,0.0,0.0,0.0,0.0,0.0,0.0,0.0,0.0,0.0,0.0,0.0,0.0,0.0,0.0,0.0,0.0,0.0,0.0,0.0,0.0,0.0,0.0,0.0,0.0,0.0,0.0,0.0,0.0,0.0,0.0,0.0,0.0,0.0,0.0,0.0,0.0,0.0,0.0,0.0,0.0,0.0,0.0,0.0,0.0,0.0,0.0,0.0,0.0,0.0,0.0,0.0,0.0,0.0,0.0,0.0,0.0,0.0,0.0,0.0,0.0,0.0,0.0,0.0,0.0,0.0,0.0,0.0,0.0,0.0,0.0,0.0,0.0,0.0,0.0,0.0,0.0,0.0,0.0,0.0,0.0,0.6561,0.6428,0.7691,0.8031,0.7315,0.7169,0.698,0.0,0.0,0.0,0.0,0.0,0.0,0.0,0.0,0.0,0.0,0.0,0.0,0.0,0.0,0.0,0.0,0.0,0.0,0.0,0.0,0.0,0.0,0.0,0.0,0.0,0.0,0.0,0.0,0.0,0.0,0.0,0.0,0.0,0.0,0.0,0.0,0.0,0.0,0.0,0.0,0.0,0.0,0.0,0.0,0.0,0.0,0.0,0.0,0.0,0.0,0.0,0.0,0.0,0.0,0.0,0.0,0.0,0.0,0.0,0.0,0.0,0.0,0.0,0.0,0.0,0.0,0.0,0.0,0.0,0.0,0.0,0.0,0.0,0.0,0.0,0.0,0.0,0.0,0.0,0.0,0.0,0.0,0.0,0.0,0.0,0.0,0.0,0.0,0.0,0.0,0.0,0.0,0.0,0.0,0.0,0.0,0.0,0.0,0.0,0.0,0.0,0.0,0.0,0.0,0.0,0.0,0.0,0.0,0.6723,0.6464,0.7704,0.8062,0.7394,0.7871,0.7714,0.0,0.0,0.0,0.0,0.0,0.0,0.0,0.0,0.0,0.0,0.0,0.0,0.0,0.0,0.0,0.0,0.0,0.0,0.0,0.0,0.0,0.0,0.0,0.0,0.0,0.0,0.0,0.0,0.0,0.0,0.0,0.0,0.0,0.0,0.0,0.0,0.0,0.0,0.0,0.0,0.0,0.0,0.0,0.0,0.0,0.0,0.0,0.0,0.0,0.0,0.0,0.0,0.0,0.0,0.0,0.0,0.0,0.0,0.0,0.0,0.0,0.0,0.0,0.0,0.0,0.0,0.0,0.0,0.0,0.0,0.0,0.0,0.0,0.0,0.0,0.0,0.0,0.0,0.0,0.0,0.0,0.0,0.0,0.0,0.0,0.0,0.0,0.0,0.0,0.0,0.0,0.0,0.0,0.0,0.0,0.0,0.0,0.0,0.0,0.0,0.0,0.0,0.0,0.0,0.0,0.0,0.0,0.0,0.6278,0.6718,0.7264,0.7577,0.7621,0.7839,0.756,0.0,0.0,0.0,0.0,0.0,0.0,0.0,0.0,0.0,0.0,0.0,0.0,0.0,0.0,0.0,0.0,0.0,0.0,0.0,0.0,0.0,0.0,0.0,0.0,0.0,0.0,0.0,0.0,0.0,0.0,0.0,0.0,0.0,0.0,0.0,0.0,0.0,0.0,0.0,0.0,0.0,0.0,0.0,0.0,0.0,0.0,0.0,0.0,0.4713,0.0,0.0,0.0,0.0,0.0,0.0,0.0,0.0,0.0,0.0,0.0,0.0,0.0,0.0,0.0,0.0,0.0,0.0,0.0,0.0,0.0,0.0,0.0,0.0,0.0,0.0,0.0,0.0,0.0,0.0,0.0,0.0,0.0,0.0,0.0,0.0,0.0,0.0,0.0,0.0,0.0,0.0,0.0,0.0,0.0,0.0,0.0,0.0,0.0,0.0,0.0,0.0,0.0,0.0,0.0,0.0,0.0,0.0,0.0,0.6609,0.6801,0.7158,0.7368,0.7421,0.7856,0.7745,0.0,0.0,0.0,0.0,0.0,0.0,0.0,0.0,0.0,0.0,0.0,0.0,0.0,0.0,0.0,0.0,0.0,0.0,0.0,0.0,0.0,0.0,0.0,0.0,0.0,0.0,0.0,0.0,0.0,0.0,0.0,0.0,0.0,0.0,0.0,0.0,0.0,0.0,0.0,0.0,0.0,0.0,0.0,0.0,0.0,0.0,0.0,0.0,0.0,0.0,0.0,0.0,0.0,0.0,0.0,0.0,0.0,0.0,0.0,0.0,0.0,0.0,0.0,0.0,0.0,0.0,0.0,0.0,0.0,0.0,0.0,0.0,0.0,0.0,0.0,0.0,0.0,0.0,0.0,0.0,0.0,0.0,0.0,0.0,0.0,0.0,0.0,0.0,0.0,0.0,0.0,0.0,0.0,0.0,0.0,0.0,0.0,0.0,0.0,0.0,0.0,0.0,0.0,0.0,0.0,0.0,0.0,0.6815,0.6932,0.6874,0.7062,0.7103,0.7047,0.7854,0.7974,0.7319,0.0,0.0,0.0,0.0,0.0,0.0,0.0,0.0,0.0,0.0,0.0,0.0,0.0,0.0,0.0,0.0,0.0,0.0,0.0,0.0,0.0,0.0,0.0,0.0,0.0,0.0,0.0,0.0,0.0,0.0,0.0,0.0,0.0,0.0,0.0,0.0,0.0,0.0,0.5663,0.6952,0.0,0.0,0.0,0.0,0.0,0.0,0.0,0.0,0.622,0.0,0.0,0.0,0.0,0.0,0.0,0.0,0.0,0.0,0.0,0.0,0.0,0.0,0.0,0.0,0.0,0.0,0.0,0.0,0.0,0.0,0.0,0.0,0.0,0.0,0.0,0.0,0.0,0.0,0.0,0.0,0.0,0.0,0.0,0.0,0.0,0.0,0.0,0.0,0.0,0.0,0.0,0.0,0.0,0.0,0.0,0.0,0.0,0.0,0.0,0.0,0.0,0.0,0.0,0.0,0.0,0.695,0.5976,0.6003,0.7097,0.6485,0.6309,0.6678,0.7738,0.7799,0.684,0.0,0.0,0.0,0.0,0.0,0.0,0.0,0.0,0.0,0.0,0.0,0.0,0.0,0.0,0.0,0.0,0.0,0.0,0.0,0.0,0.0,0.0,0.0,0.0,0.0,0.0,0.0,0.0,0.0,0.0,0.0,0.0,0.0,0.0,0.0,0.0,0.0,0.0,0.0,0.7252,0.7807,0.0,0.0,0.0,0.0,0.0,0.0,0.0,0.0,0.6162,0.0,0.0,0.0,0.0,0.0,0.0,0.0,0.0,0.0,0.0,0.0,0.0,0.0,0.0,0.0,0.0,0.0,0.0,0.0,0.0,0.0,0.0,0.0,0.0,0.0,0.0,0.0,0.0,0.0,0.0,0.0,0.0,0.0,0.0,0.0,0.0,0.0,0.0,0.0,0.0,0.0,0.0,0.0,0.0,0.0,0.0,0.0,0.0,0.0,0.0,0.0,0.0,0.0,0.0,0.0,0.6593,0.6509,0.6627,0.7022,0.6532,0.6369,0.6603,0.7391,0.7438,0.0,0.0,0.0,0.0,0.0,0.0,0.0,0.0,0.0,0.0,0.0,0.0,0.0,0.0,0.0,0.0,0.0,0.0,0.0,0.0,0.0,0.0,0.0,0.0,0.0,0.0,0.0,0.0,0.0,0.0,0.0,0.0,0.0,0.0,0.0,0.0,0.0,0.0,0.0,0.0,0.7662,0.8226,0.7848,0.0,0.0,0.0,0.0,0.0,0.0,0.7174,0.7075,0.0,0.0,0.0,0.0,0.0,0.0,0.0,0.0,0.0,0.0,0.0,0.0,0.0,0.0,0.0,0.0,0.0,0.0,0.0,0.0,0.0,0.0,0.0,0.0,0.0,0.0,0.0,0.0,0.0,0.0,0.0,0.0,0.0,0.0,0.0,0.0,0.0,0.0,0.0,0.0,0.0,0.0,0.0,0.0,0.0,0.0,0.0,0.0,0.0,0.0,0.0,0.0,0.0,0.0,0.0,0.6254,0.7056,0.7315,0.691,0.6647,0.6535,0.6603,0.725,0.7278,0.0,0.0,0.0,0.0,0.0,0.0,0.0,0.0,0.0,0.0,0.0,0.0,0.0,0.0,0.0,0.0,0.0,0.0,0.0,0.0,0.0,0.0,0.0,0.0,0.0,0.0,0.0,0.0,0.0,0.0,0.0,0.0,0.0,0.0,0.0,0.0,0.0,0.0,0.0,0.0,0.0,0.8643,0.7899,0.8052,0.0,0.0,0.0,0.0,0.7725,0.8044,0.0,0.0,0.0,0.0,0.0,0.0,0.0,0.0,0.0,0.0,0.0,0.0,0.0,0.0,0.0,0.0,0.0,0.0,0.0,0.0,0.0,0.0,0.0,0.0,0.0,0.0,0.0,0.0,0.0,0.0,0.0,0.0,0.0,0.0,0.0,0.0,0.0,0.0,0.0,0.0,0.0,0.0,0.0,0.0,0.0,0.0,0.0,0.0,0.0,0.0,0.0,0.0,0.0,0.0,0.0,0.0,0.6223,0.6615,0.6832,0.6876,0.6467,0.6362,0.6603,0.7626,0.7688,0.0,0.0,0.0,0.0,0.0,0.0,0.0,0.0,0.0,0.0,0.0,0.0,0.0,0.0,0.0,0.0,0.0,0.0,0.0,0.0,0.0,0.0,0.0,0.0,0.0,0.0,0.0,0.0,0.0,0.0,0.0,0.0,0.0,0.0,0.0,0.0,0.0,0.0,0.0,0.0,0.0,0.8632,0.7899,0.8477,0.8972,0.0,0.0,0.8516,0.9125,0.8814,0.0,0.0,0.0,0.0,0.0,0.0,0.0,0.0,0.0,0.0,0.0,0.0,0.0,0.0,0.0,0.0,0.0,0.0,0.0,0.0,0.0,0.0,0.0,0.0,0.0,0.0,0.0,0.0,0.0,0.0,0.0,0.0,0.0,0.0,0.0,0.0,0.0,0.0,0.0,0.0,0.0,0.0,0.0,0.0,0.0,0.0,0.0,0.0,0.0,0.0,0.0,0.0,0.0,0.0,0.0,0.6671,0.6095,0.707,0.7317,0.6754,0.6532,0.6479,0.659,0.7084,0.7109,0.0,0.0,0.0,0.0,0.0,0.0,0.0,0.0,0.0,0.0,0.0,0.0,0.0,0.0,0.0,0.0,0.0,0.0,0.0,0.0,0.0,0.0,0.0,0.0,0.0,0.0,0.0,0.0,0.0,0.0,0.0,0.0,0.0,0.0,0.0,0.0,0.0,0.0,0.0,0.0,0.0,0.0,0.8473,0.8816,0.0,0.0,0.0,0.9026,0.9524,0.0,0.0,0.0,0.0,0.0,0.0,0.0,0.0,0.0,0.0,0.0,0.0,0.0,0.0,0.0,0.0,0.0,0.0,0.0,0.0,0.0,0.0,0.0,0.0,0.0,0.0,0.0,0.0,0.0,0.0,0.0,0.0,0.0,0.0,0.0,0.0,0.0,0.0,0.0,0.0,0.0,0.0,0.0,0.0,0.0,0.0,0.0,0.0,0.0,0.0,0.0,0.0,0.0,0.0,0.0,0.0,0.0,0.5965,0.7488,0.7759,0.6637,0.659,0.659,0.6599,0.6728,0.0,0.0,0.0,0.0,0.0,0.0,0.0,0.0,0.0,0.0,0.0,0.0,0.0,0.0,0.0,0.0,0.0,0.0,0.0,0.0,0.0,0.0,0.0,0.0,0.0,0.0,0.0,0.3533,0.0,0.0,0.0,0.0,0.0,0.0,0.0,0.0,0.0,0.0,0.0,0.0,0.0,0.0,0.8919,0.8919,0.9017,0.9151,0.0,0.0,0.9417,0.9617,0.9583,0.9589,0.0,0.0,0.0,0.0,0.0,0.0,0.0,0.0,0.0,0.0,0.0,0.0,0.0,0.0,0.0,0.0,0.0,0.0,0.0,0.0,0.0,0.0,0.0,0.0,0.0,0.0,0.0,0.0,0.0,0.0,0.0,0.0,0.0,0.0,0.0,0.0,0.0,0.0,0.0,0.0,0.0,0.0,0.0,0.0,0.0,0.0,0.0,0.0,0.0,0.0,0.0,0.0,0.0,0.0,0.0,0.6006,0.7488,0.7749,0.664,0.659,0.659,0.6611,0.71,0.7103,0.0,0.0,0.0,0.0,0.0,0.0,0.0,0.0,0.0,0.0,0.0,0.0,0.0,0.0,0.0,0.0,0.0,0.0,0.0,0.0,0.0,0.0,0.0,0.0,0.0,0.0,0.0,0.0,0.0,0.0,0.0,0.0,0.0,0.0,0.0,0.0,0.0,0.0,0.0,0.0,0.0,0.8919,0.8919,0.9005,0.9093,0.0,0.0,0.9496,0.9508,0.9613,0.9698,0.9698,0.0,0.0,0.0,0.0,0.0,0.0,0.0,0.0,0.0,0.0,0.0,0.0,0.0,0.0,0.0,0.0,0.0,0.0,0.0,0.0,0.0,0.0,0.0,0.0,0.0,0.0,0.0,0.0,0.0,0.0,0.0,0.0,0.0,0.0,0.0,0.0,0.0,0.0,0.0,0.0,0.0,0.0,0.0,0.0,0.0,0.0,0.0,0.0,0.0,0.0,0.0,0.0,0.0,0.7237,0.5954,0.7488,0.7912,0.7128,0.6765,0.674,0.7091,0.7303,0.7144,0.0,0.0,0.0,0.0,0.0,0.0,0.0,0.0,0.0,0.0,0.0,0.0,0.0,0.0,0.0,0.0,0.0,0.0,0.0,0.0,0.0,0.0,0.0,0.0,0.0,0.0,0.0,0.0,0.4195,0.4673,0.4739,0.0,0.0,0.0,0.0,0.0,0.0,0.0,0.0,0.0,0.0,0.8919,0.8919,0.8941,0.0,0.0,0.9179,0.9288,0.935,0.9496,0.9585,0.9571,0.9399,0.0,0.0,0.0,0.0,0.0,0.0,0.0,0.0,0.0,0.0,0.0,0.0,0.0,0.0,0.0,0.0,0.0,0.0,0.0,0.0,0.0,0.0,0.0,0.0,0.0,0.0,0.0,0.0,0.0,0.0,0.0,0.0,0.0,0.0,0.0,0.0,0.0,0.0,0.0,0.0,0.0,0.0,0.0,0.0,0.0,0.0,0.0,0.0,0.0,0.0,0.0,0.0,0.7257,0.6002,0.7676,0.8175,0.7418,0.7041,0.7028,0.7381,0.7231,0.6981,0.0,0.0,0.0,0.0,0.0,0.0,0.0,0.0,0.0,0.0,0.0,0.0,0.0,0.0,0.0,0.0,0.0,0.0,0.0,0.0,0.0,0.0,0.0,0.0,0.0,0.0,0.0,0.0,0.4851,0.5181,0.4916,0.0,0.0,0.0,0.0,0.0,0.0,0.0,0.0,0.0,0.0,0.8982,0.9196,0.9241,0.9333,0.9658,0.9536,0.9474,0.9567,0.9691,0.9699,0.947,0.0,0.0,0.0,0.0,0.0,0.0,0.0,0.0,0.0,0.0,0.0,0.0,0.0,0.0,0.0,0.0,0.0,0.0,0.0,0.0,0.0,0.0,0.0,0.0,0.0,0.0,0.0,0.0,0.0,0.0,0.0,0.0,0.0,0.0,0.0,0.0,0.0,0.0,0.0,0.0,0.0,0.0,0.0,0.0,0.0,0.0,0.0,0.0,0.0,0.0,0.0,0.0,0.0,0.735,0.6257,0.8091,0.8548,0.7459,0.7381,0.7384,0.7416,0.6912,0.6624,0.6603,0.0,0.0,0.0,0.0,0.0,0.0,0.0,0.0,0.0,0.0,0.0,0.0,0.0,0.0,0.0,0.0,0.0,0.0,0.0,0.0,0.0,0.0,0.0,0.0,0.0,0.0,0.5557,0.5476,0.4946,0.0,0.0,0.0,0.0,0.0,0.0,0.0,0.0,0.0,0.0,0.8315,0.9185,0.9872,0.9973,1.021,1.089,1.0535,1.0169,1.0152,1.0272,1.0142,0.0,0.0,0.0,0.0,0.0,0.0,0.0,0.0,0.0,0.0,0.0,0.0,0.0,0.0,0.0,0.0,0.0,0.0,0.0,0.0,0.0,0.0,0.0,0.0,0.0,0.0,0.0,0.8388,0.7749,0.0,0.0,0.0,0.0,0.0,0.0,0.0,0.0,0.0,0.0,0.0,0.8582,0.8936,0.0,0.0,0.0,0.0,0.0,0.0,0.0,0.0,0.0,0.0,0.0,0.0,0.771,0.6904,0.8313,0.8913,0.8537,0.8175,0.8001,0.8012,0.7824,0.7528,0.7119,0.0,0.0,0.0,0.0,0.0,0.0,0.0,0.0,0.0,0.0,0.0,0.0,0.0,0.0,0.0,0.0,0.0,0.0,0.0,0.0,0.0,0.0,0.0,0.0,0.0,0.527,0.0,0.0,0.0,0.0,0.0,0.0,0.0,0.0,0.0,0.0,0.0,0.8477,0.8971,0.9386,0.9912,1.0639,1.0717,1.0656,0.0,0.0,0.0,0.0,0.0,0.0,0.0,0.0,0.0,0.0,0.0,0.0,0.0,0.0,0.8594,0.7607,0.7473,0.7692,0.831,0.0,0.0,0.0,0.0,0.0,0.0,0.0,0.0,0.0,0.0,0.0,0.0,0.0,0.0,0.0,0.0,0.8939,0.0,0.0,0.0,0.0,0.0,0.0,0.0,0.0,0.9981,1.0295,0.9994,1.032,1.0321,0.0,0.9792,0.9203,0.0,0.0,0.0,0.0,0.0,0.0,0.0,0.0,0.796,0.759,0.8756,0.929,0.91,0.8762,0.8498,0.8311,0.7912,0.7526,0.7141,0.6624,0.6432,0.0,0.0,0.0,0.0,0.0,0.0,0.0,0.0,0.0,0.0,0.0,0.0,0.0,0.0,0.0,0.0,0.0,0.0,0.0,0.0,0.0,0.0,0.0,0.6028,0.0,0.0,0.0,0.0,0.0,0.0,0.0,0.0,0.0,0.7218,0.829,0.926,0.9739,0.9921,1.0369,1.1367,0.0,0.0,0.0,0.0,0.0,0.0,0.0,1.0595,1.0811,1.0685,1.0456,1.0247,0.9905,0.9649,0.9736,0.0,0.0,0.849,0.8324,0.8547,0.9155,0.9312,0.9471,1.0064,1.02,1.0185,0.0,0.0,0.0,0.0,0.0,0.0,0.0,0.0,1.0119,1.0383,0.0,1.0219,0.0,0.0,0.0,0.0,0.0,0.0,0.0,0.0,1.115,1.1653,1.164,1.1638,1.1628,1.165,1.2062,1.1472,0.9943,0.8915,0.0,0.0,0.0,0.0,0.0,0.0,0.8081,0.835,0.9341,0.9642,0.9163,0.9126,0.8874,0.8311,0.7244,0.6649,0.6624,0.7078,0.7131,0.6649,0.6608,0.0,0.0,0.0,0.0,0.0,0.0,0.0,0.0,0.0,0.0,0.0,0.0,0.0,0.0,0.0,0.0,0.0,0.0,0.0,0.0,0.6295,0.0,0.0,0.0,0.0,0.0,0.0,0.0,0.0,0.0,0.0,0.7378,0.8753,0.9824,0.9844,0.0,0.0,0.0,0.0,1.163,1.3024,1.2686,1.2229,1.2178,1.1536,1.0825,1.0159,0.0,0.0,0.9632,0.9518,0.9571,0.9753,0.9777,0.9788,0.9757,0.976,0.9857,0.9963,1.0004,1.0094,1.01,1.0156,1.0188,1.4161,0.0,0.0,0.0,0.0,1.2889,1.3116,1.3463,1.3446,1.2881,1.1899,1.1748,0.0,0.0,0.0,0.0,0.0,0.0,1.1044,1.1713,1.2429,1.2751,1.2751,1.2739,1.2538,1.2178,1.1939,1.1563,1.1125,1.0811,0.983,0.8237,0.0,0.0,0.0,0.0,0.9168,0.8926,0.9554,0.9843,0.9679,0.9654,0.924,0.8313,0.7566,0.6991,0.6615,0.674,0.695,0.7166,0.694,0.0,0.0,0.0,0.0,0.0,0.0,0.0,0.0,0.0,0.0,0.0,0.0,0.0,0.0,0.0,0.0,0.0,0.0,0.0,0.6192,0.625,0.6228,0.0,0.0,0.0,0.0,0.0,0.0,0.0,0.0,0.0,0.8594,0.9527,1.0367,0.0,0.0,1.1415,1.2376,1.2016,1.1643,1.1577,0.0,0.0,0.0,1.0463,1.043,1.0724,1.0461,1.0215,1.0219,0.9812,0.9525,0.9591,0.968,0.9743,0.9806,0.9896,0.9981,0.9994,1.0059,1.0094,1.0096,1.0127,1.0129,1.6597,1.5651,1.4864,1.4726,1.5022,1.484,1.4909,1.5198,1.5004,1.4425,1.3697,1.3483,1.2835,1.1879,1.1666,0.0,0.0,0.0,1.2617,1.3086,1.3622,1.3885,1.3867,1.3885,1.3596,1.3057,1.2751,1.2344,1.1914,1.214,1.1362,0.9654,0.0,0.0,0.8964,0.9366,0.9541,0.9428,0.9742,0.9893,0.988,0.9705,0.9277,0.8636,0.7826,0.7256,0.6928,0.6906,0.7056,0.7381,0.7198,0.7091,0.0,0.0,0.0,0.0,0.0,0.0,0.0,0.0,0.0,0.0,0.0,0.4512,0.3852,0.0,0.0,0.0,0.4666,0.5332,0.6291,0.6571,0.0,0.0,0.0,0.0,0.0,0.0,0.0,0.7862,0.8561,0.901,0.9048,0.9927,1.0563,1.0536,1.0621,1.0993,1.1813,0.0,1.1026,1.093,1.1028,1.0944,1.0521,1.0176,1.0058,1.0183,0.9929,0.9761,0.9906,0.9642,0.9448,0.9482,0.9609,0.9717,0.9754,0.9841,0.9952,1.0004,1.0044,1.007,1.009,1.0094,1.0106,1.8306,1.8242,1.719,1.6713,1.6609,1.6107,1.5906,1.5844,1.5387,1.5424,1.5801,1.5311,1.5047,1.4921,1.4418,0.0,0.0,1.4444,1.4651,1.4254,1.4739,1.4966,1.4959,1.4947,1.4689,1.4148,1.4166,1.3589,1.2588,1.304,1.2739,1.1728,1.0684,1.0144,1.0081,0.9667,0.9642,1.0106,1.0069,1.0006,0.9905,0.9415,0.9138,0.9025,0.8037,0.7443,0.7406,0.7384,0.7431,0.7518,0.7473,0.756,0.7806,0.0,0.0,0.0,0.0,0.0,0.0,0.0,0.0,0.0,0.0,0.0,0.0,0.0,0.0,0.0,0.5581,0.0,0.603,0.716,0.0,0.0,0.0,0.8582,0.7974,0.7906,0.7914,0.7981,0.0,0.0,0.0,0.0,1.0488,0.9643,0.9607,0.9995,1.0843,1.0418,1.0208,1.1033,1.1111,1.1075,1.1011,1.0463,0.9787,0.9168,0.8919,0.9003,0.9114,0.9219,0.9331,0.9461,0.9601,0.9691,0.9694,0.9761,0.9825,0.9949,0.9987,1.0015,1.0076,1.009,1.0094,1.9422,1.9397,1.9133,1.8555,1.7779,1.7664,1.7614,1.7589,1.7476,1.725,1.6996,1.687,1.6329,1.55,1.4947,1.4639,1.4519,1.4783,1.5047,1.5324,1.5462,1.5525,1.5505,1.5505,1.5236,1.4739,1.4695,1.4343,1.372,1.3821,1.3509,1.2839,1.2534,1.2212,1.1836,1.2074,1.2087,1.1798,1.1399,1.0786,0.9931,0.9767,0.934,0.8501,0.8236,0.7864,0.7431,0.7387,0.7801,0.8624,0.8067,0.792,0.8355,0.6912,0.0,0.0,0.0,0.0,0.0,0.0,0.0,0.0,0.0,0.6021,0.5185,0.0,0.6143,0.0,0.6256,0.6785,0.721,0.7648,0.0,0.0,0.8252,0.8064,0.7907,0.7906,0.8101,0.8619,0.9257,0.9659,0.9659,1.0329,1.0547,0.9914,1.0644,1.1333,1.1545,1.1141,1.0938,1.1267,1.1089,1.0928,1.1017,1.0487,0.9777,0.9032,0.8919,0.893,0.8941,0.9064,0.9201,0.9331,0.947,0.9581,0.9683,0.9721,0.9757,0.9825,0.9919,1.0018,1.0032,1.0065,1.0094,2.0413,2.0214,2.0214,1.9685,1.8894,1.8644,1.8568,1.8555,1.8317,1.8028,1.7739,1.7752,1.74,1.6798,1.6505,1.6358,1.6355,1.6116,1.6179,1.6443,1.6183,1.6057,1.6057,1.6057,1.5768,1.5261,1.5248,1.4972,1.4462,1.4211,1.3934,1.3596,1.3341,1.319,1.3162,1.3207,1.3048,1.2764,1.1989,1.1161,1.0295,1.0031,0.9617,0.9039,0.9002,0.8739,0.8187,0.8162,0.8338,0.8686,0.8029,0.7998,0.8746,0.7606,0.7196,0.0,0.0,0.0,0.0,0.0,0.0,0.0,0.0,0.0,0.0,0.0,0.7242,0.0,0.6948,0.0,0.7738,0.8109,0.8379,0.8439,0.8672,0.8671,0.8379,0.8611,0.8925,0.9302,0.9674,0.989,0.9905,1.0419,1.0688,1.0359,1.1151,1.1612,1.1122,1.0822,1.0783,1.1113,1.0961,1.0869,1.1068,1.0758,1.0233,0.9557,0.9399,0.9292,0.8965,0.8999,0.9141,0.9221,0.9367,0.9517,0.9601,0.9657,0.9809,1.0154,1.0065,0.9938,0.9938,1.0037,1.0092,2.1232,2.0792,2.0792,2.0439,1.9886,1.9396,1.9171,1.907,1.8618,1.8405,1.8405,1.8342,1.8304,1.8304,1.8229,1.8204,1.8166,1.7725,1.7473,1.7373,1.6861,1.6563,1.6513,1.6513,1.6249,1.5806,1.5793,1.5517,1.5016,1.4525,1.4299,1.4274,1.3709,1.3709,1.4249,1.3722,1.3391,1.3286,1.2316,1.1487,1.0833,1.0433,1.0157,1.0006,0.9931,0.9692,0.9214,0.9214,0.8988,0.8524,0.8043,0.8199,0.9056,0.8466,0.8273,0.0,0.86,0.0,0.0,0.0,0.0,0.0,0.0,0.0,0.0,0.7852,0.8441,0.8482,0.7768,0.7556,0.8222,0.8807,0.8904,0.8386,0.924,0.9683,0.9122,0.9563,0.989,0.989,0.9965,1.0009,1.0054,1.0553,1.0942,1.0972,1.139,1.1483,1.0611,1.0485,1.0695,1.1018,1.1112,1.1375,1.134,1.1289,1.1004,1.0345,1.0142,0.9929,0.9365,0.9349,0.9403,0.9451,0.9688,0.9852,0.9798,0.9956,1.026,1.0925,1.0642,1.0235,1.0151,1.0232,1.0242,2.143,2.137,2.1358,2.1016,2.0528,2.0415,2.0087,1.9648,1.9547,1.951,1.9459,1.9033,1.8832,1.882,1.8405,1.8204,1.8204,1.8091,1.7825,1.7398,1.7262,1.6961,1.6525,1.6513,1.6437,1.635,1.6337,1.6082,1.5563,1.5429,1.5399,1.5387,1.4859,1.4859,0.0,0.0,0.0,0.0,1.3257,1.2413,1.1487,1.1751,1.1472,1.0582,1.0144,0.0,0.9755,0.9755,0.9705,0.9604,0.9747,0.0,0.0,0.0,0.0,0.0,0.0,0.0,0.0,0.0,0.0,0.0,0.7941,0.8171,0.816,0.8076,0.8144,0.8478,0.8992,0.959,1.0185,1.035,1.0404,1.0269,1.0045,0.9845,0.9734,0.9839,0.989,0.9905,1.0314,1.0643,1.0673,1.1196,1.1595,1.157,1.1715,1.1711,1.1498,1.1586,1.1964,1.247,1.2615,1.263,1.2154,1.2085,1.1806,1.1113,1.0893,1.0815,1.0646,1.0625,1.0745,1.0806,1.1059,1.1189,1.1298,1.1518,1.1608,1.1856,1.1782,1.1582,1.1005,1.0996,1.1086,2.2146,0.0,2.1895,2.1581,0.0,2.1106,2.0903,2.0589,2.0037,1.9798,1.9786,1.9522,1.9384,1.9359,1.912,1.8982,1.8982,1.8731,1.8444,1.8179,1.7639,1.7225,1.6936,1.6647,1.6513,1.6513,1.6513,1.635,1.6074,1.5819,1.5693,1.568,1.5173,1.5035,1.5286,1.4777,1.4362,1.4103,1.3509,1.2797,1.2027,1.1698,1.1297,1.0733,0.0,0.0,0.0,0.0,0.0,0.0,0.0,0.0,0.0,0.0,0.0,1.0393,1.0465,1.0199,0.9546,0.9488,0.9395,0.9195,0.9484,0.9666,0.9633,0.9172,0.91,0.9602,0.9826,1.0024,1.0314,1.0359,1.0344,1.0344,1.0344,1.0344,1.0374,1.0653,1.0842,1.0862,1.1102,1.1286,1.1286,1.1565,1.1786,1.1816,1.1816,1.1859,1.1961,1.2008,1.22,1.2738,1.3165,1.3269,1.2948,1.2846,1.2575,1.1898,1.1695,1.1526,1.1147,1.1113,1.1124,1.1213,1.1341,1.151,1.1682,1.1832,1.2092,1.2507,1.2391,1.2253,1.2147,1.205,1.1896,2.2844,2.2431,2.2418,2.2146,2.1631,2.1631,2.1581,2.1418,0.0,0.0,0.0,1.9849,1.9798,1.9798,1.9798,1.9798,1.9773,1.9334,1.9096,1.8958,1.8091,1.7649,1.7524,1.6936,1.6672,1.6651,1.655,1.6513,1.6488,1.6057,1.5844,1.5781,1.5311,1.4966,1.4733,1.4324,1.4035,1.3934,1.3559,1.3073,1.2538,1.1723,1.1259,1.1132,1.0958,1.0645,1.0233,1.0519,1.0244,0.929,0.9375,0.9649,1.0032,1.0186,1.0655,1.1535,1.1725,1.1485,1.0787,1.0778,1.0807,1.0807,1.0807,1.0763,1.0648,1.0189,1.0144,1.0753,1.0339,1.0099,1.0228,1.0243,1.0234,1.0234,1.0688,1.0987,1.1007,1.1446,1.1741,1.1816,1.176,1.1801,1.1786,1.1801,1.1816,1.1816,1.1816,1.188,1.2071,1.2045,1.2174,1.2649,1.3076,1.332,1.3371,1.3362,1.3142,1.2609,1.2483,1.2254,1.1705,1.1509,1.1509,1.1652,1.1637,1.1855,1.2,1.2246,1.2509,1.334,1.3004,1.2744,1.3349,1.3242,1.288,2.3058,2.2995,2.2995,2.2669,2.2196,2.2196,2.1933,2.1471,2.0842,2.0578,2.0541,2.0024,1.9798,1.9798,1.9798,1.9798,1.9798,1.9736,1.9421,0.0,1.8845,1.8519,1.8078,1.7513,1.7285,1.7247,1.676,1.6513,1.6488,1.6425,1.6375,1.6333,1.5844,1.5135,1.4292,1.4141,1.3858,1.3353,1.3735,1.369,1.311,1.3438,1.3375,1.2835,1.1939,1.1437,1.1364,1.0933,1.0419,0.9843,1.0509,1.0742,1.0378,1.0822,1.1099,1.1059,1.1505,1.1404,1.0521,1.0672,1.0807,1.0807,1.0807,1.0583,1.0084,0.9959,1.0144,1.0723,1.0733,1.0912,1.1431,1.1506,1.1486,1.1491,1.158,1.1645,1.1625,1.1715,1.1816,1.1816,1.1816,1.1816,1.1816,1.1816,1.1816,1.1816,1.1816,1.1826,1.1918,1.2225,1.2598,1.2869,1.3004,1.3147,1.3303,1.3396,1.3328,1.3286,1.3193,1.3125,1.2947,1.288,1.2888,1.3024,1.2989,1.3204,1.3422,1.3736,1.3847,1.4167,1.4042,1.4101,1.4252,1.4224,1.4152,2.3095,2.3095,2.3095,2.2957,2.2719,2.2732,2.2581,2.2305,2.1794,2.1421,2.1131,2.0828,2.0552,2.0302,2.0275,2.01,1.9798,1.9798,1.9685,1.9421,1.9121,1.887,1.8618,1.8091,1.77,1.7398,1.7124,1.6823,1.6525,1.6513,1.6513,1.6488,1.6258,1.5743,1.5009,1.4959,1.4557,1.3715,1.3634,1.3483,1.321,1.3182,1.3044,1.2764,1.2002,1.1603,1.1603,1.1021,1.0595,1.0344,1.0612,1.0648,1.0435,1.0821,1.1094,1.1129,1.1378,1.1432,1.1185,1.1272,1.1506,1.185,1.188,1.1925,1.2029,1.1341,1.1052,1.1316,1.1356,1.1461,1.179,1.2119,1.2194,1.182,1.2115,1.219,1.1876,1.1816,1.1816,1.1816,1.1816,1.1816,1.1816,1.1816,1.1816,1.1816,1.1816,1.1831,1.1816,1.2013,1.2281,1.2539,1.2908,1.3156,1.3208,1.3303,1.3388,1.3396,1.3396,1.3396,1.3396,1.3396,1.3396,1.3396,1.3445,1.3557,1.3716,1.3888,1.4085,1.4307,1.4441,1.4476,1.4511,1.4603,1.4635,2.3095,2.3095,2.3095,2.3095,2.3095,2.3095,2.3095,2.3058,2.2644,2.2259,2.187,2.1619,2.1282,2.0905,2.088,2.0566,2.0037,1.9999,1.9936,1.9773,1.9359,1.9171,1.9108,1.8656,1.8166,1.7752,1.7536,1.7149,1.6748,1.6563,1.6513,1.6513,1.6513,1.6233,1.5706,1.5693,1.5223,1.4299,1.3697,1.3323,1.3185,1.2801,1.2588,1.2551,1.2049,1.1791,1.1766,1.1209,1.0922,1.091,1.0753,1.0703,1.0767,1.1097,1.1407,1.1611,1.1776,1.1963,1.222,1.2242,1.2463,1.2969,1.3029,1.3253,1.3645,1.2855,1.2254,1.2254,1.2284,1.2284,1.2373,1.2703,1.2807,1.2343,1.2703,1.2834,1.2358,1.2254,1.2254,1.2254,1.2134,1.2055,1.2014,1.2014,1.2145,1.2284,1.2254,1.2231,1.2151,1.2156,1.226,1.2363,1.2834,1.3173,1.3094,1.3269,1.3388,1.3396,1.3396,1.3396,1.3396,1.3396,1.3396,1.3396,1.3396,1.3502,1.364,1.3788,1.4004,1.4245,1.4405,1.4488,1.4493,1.4622,1.4747,2.3095,2.3095,2.3095,2.3095,2.3095,2.3095,2.3095,2.3095,2.3045,2.3007,2.2807,2.1933,2.1521,2.1446,2.1418,2.1131,2.0629,2.0603,2.0327,1.9861,1.9748,1.9736,1.966,1.9171,1.8895,1.8707,1.789,1.7436,1.726,1.6726,1.6513,1.6513,1.6513,1.6237,1.5768,1.5706,1.5424,1.484,1.4299,1.3752,1.3235,1.3148,1.3123,1.3123,1.2601,1.2325,1.2316,1.1814,1.1512,1.1515,1.1496,1.1593,1.1843,1.2265,1.2526,1.2567,1.315,1.3593,1.3603,1.363,1.3603,1.372,1.372,1.3737,1.3857,1.3707,1.363,1.3588,1.3618,1.3498,1.3618,1.3675,1.3633,1.3481,1.3615,1.369,1.3543,1.3618,1.3618,1.3633,1.3029,1.2714,1.2711,1.2711,1.2939,1.3334,1.3376,1.3272,1.3058,1.319,1.311,1.2736,1.2709,1.2931,1.3216,1.3371,1.3396,1.3396,1.3396,1.3396,1.3396,1.3396,1.3396,1.3396,1.3396,1.3494,1.3711,1.3888,1.4017,1.4257,1.4405,1.4488,1.4511,1.4611,1.4728,2.3095,2.3095,2.3095,2.3095,2.3095,2.3095,2.3095,2.3095,2.3095,2.3095,2.3058,2.2631,2.2284,2.1983,2.197,2.1681,2.1182,2.0842,2.0578,2.0314,1.9962,1.9798,1.9773,1.9572,1.9309,1.8995,1.8531,1.8003,1.7375,1.6798,1.6513,1.6513,1.6513,1.6375,1.6195,1.6162,1.5906,1.5399,1.516,1.4751,1.4199,1.3541,1.321,1.3185,1.2973,1.286,1.2826,1.2366,1.2077,1.2052,1.192,1.1803,1.1787,1.2097,1.2413,1.2706,1.3394,1.3797,1.3797,1.3797,1.3974,1.4363,1.4378,1.4543,1.4931,1.499,1.4975,1.4901,1.4259,1.3797,1.387,1.4141,1.4229,1.3959,1.4139,1.4259,1.3827,1.3812,1.3797,1.3767,1.357,1.3391,1.3376,1.3376,1.351,1.3752,1.3812,1.3768,1.3603,1.3822,1.3757,1.336,1.3339,1.3359,1.3273,1.332,1.3379,1.3396,1.3396,1.3396,1.3396,1.3396,1.3396,1.3396,1.3396,1.3421,1.3535,1.3783,1.3976,1.4213,1.4393,1.4488,1.4488,1.4545,1.4624,2.3095,2.3095,2.3095,2.3095,2.3095,2.3095,2.3095,2.3095,2.3095,2.3095,2.3095,2.3095,2.2895,2.2543,2.2506,2.2205,2.1707,2.1292,2.0968,2.0691,2.0225,1.9962,1.9811,1.9798,1.9584,1.9246,1.9058,1.853,1.7626,1.7036,1.676,1.6735,1.6575,1.6513,1.6513,1.6513,1.6321,1.5944,1.5781,1.5525,1.5028,1.4174,1.3591,1.3453,1.3273,1.321,1.3185,1.281,1.2613,1.2601,1.2436,1.2311,1.2247,1.2405,1.2767,1.3332,1.3972,1.4348,1.4363,1.4348,1.4543,1.5005,1.508,1.5275,1.5679,1.5814,1.5814,1.5709,1.4916,1.4393,1.4408,1.4781,1.4841,1.4438,1.4826,1.4856,1.4453,1.4348,1.4406,1.4333,1.4229,1.4066,1.4079,1.4081,1.4154,1.4378,1.4393,1.4266,1.4237,1.4394,1.4409,1.4069,1.4227,1.3998,1.3319,1.3277,1.3388,1.3396,1.3396,1.3396,1.3396,1.3396,1.3396,1.3396,1.3396,1.3454,1.3557,1.3739,1.3976,1.4096,1.4307,1.4488,1.4488,1.4493,1.4539,2.3095,2.3095,2.3095,2.3095,2.3095,2.3095,2.3095,2.3095,2.3095,2.3095,2.3095,2.3155,2.3113,2.3092,2.3127,2.2786,2.2309,2.2184,2.1644,2.0842,2.0654,2.0352,1.9823,1.9798,1.9773,1.9673,1.9259,1.8744,1.8166,1.7637,1.7373,1.7322,1.6823,1.6525,1.6513,1.6513,1.65,1.6375,1.5969,1.5706,1.5613,1.511,1.4544,1.411,1.3521,1.3248,1.3223,1.3185,1.3148,1.316,1.3107,1.3297,1.37,1.3798,1.4128,1.484,1.5374,1.5679,1.5634,1.5604,1.5634,1.5709,1.5679,1.5739,1.5784,1.5814,1.5814,1.5799,1.5664,1.5574,1.5574,1.5559,1.5664,1.5604,1.5679,1.5679,1.5664,1.55,1.5694,1.553,1.508,1.4781,1.4766,1.4752,1.502,1.5395,1.5649,1.5494,1.515,1.5129,1.5091,1.5008,1.4917,1.4662,1.3681,1.3726,1.3659,1.3549,1.3642,1.3498,1.3413,1.3396,1.343,1.3464,1.3549,1.3616,1.3622,1.378,1.4038,1.4207,1.4368,1.4488,1.4488,1.4488,1.4516,2.3095,2.3095,2.3095,2.3095,2.3095,2.3095,2.3095,2.3095,2.3095,2.3095,2.3185,2.3619,2.3855,2.3884,2.4366,2.3929,2.2841,2.2456,2.2083,2.1644,2.1031,2.0578,2.0365,1.9987,1.9798,1.9773,1.961,1.9221,1.8694,1.8179,1.7737,1.7436,1.7209,1.6911,1.6575,1.6513,1.6513,1.6488,1.6287,1.6199,1.617,1.568,1.5311,1.5085,1.4243,1.3778,1.3778,1.3403,1.3352,1.3632,1.3387,1.3531,1.4214,1.4533,1.4783,1.5104,1.5536,1.5814,1.5814,1.5814,1.5814,1.5814,1.5814,1.5814,1.5814,1.5814,1.5814,1.5814,1.5814,1.5814,1.5814,1.5814,1.5814,1.5814,1.5814,1.5814,1.5814,1.5814,1.5814,1.5769,1.5559,1.5454,1.538,1.5439,1.553,1.5754,1.5814,1.5736,1.5668,1.574,1.5713,1.539,1.551,1.549,1.4665,1.4723,1.4733,1.431,1.4132,1.4141,1.4107,1.4107,1.4157,1.4157,1.4107,1.3913,1.3963,1.3768,1.4026,1.4207,1.4375,1.4458,1.4488,1.4488,1.4488,2.3271,2.3108,2.3095,2.3095,2.3095,2.3095,2.3095,2.3095,2.3095,2.3095,2.3245,2.3943,2.4279,2.4423,2.5077,2.4881,2.3846,2.3251,2.2981,2.2894,2.1769,2.1167,2.0961,2.0382,1.9974,1.9823,1.9798,1.961,1.9233,1.8707,1.8255,1.794,1.7612,1.7209,1.6823,1.6613,1.6513,1.6513,1.6513,1.65,1.645,1.6149,1.6048,1.6064,1.5351,1.47,1.4368,1.3803,1.3693,1.4031,1.3684,1.3752,1.4438,1.5043,1.5255,1.518,1.5536,1.5814,1.5814,1.5814,1.5814,1.5814,1.5814,1.5814,1.5814,1.5814,1.5814,1.5814,1.5814,1.5814,1.5814,1.5814,1.5814,1.5814,1.5814,1.5814,1.5814,1.5814,1.5814,1.5814,1.5784,1.5784,1.5814,1.5799,1.5784,1.5814,1.5814,1.5827,1.5969,1.6122,1.6298,1.5965,1.6289,1.6401,1.6126,1.6216,1.5697,1.5213,1.4875,1.4842,1.4842,1.4858,1.4858,1.4858,1.4699,1.4447,1.4187,1.3916,1.3955,1.4165,1.427,1.435,1.4416,1.4488,1.4561,2.3678,2.3183,2.312,2.3218,2.3291,2.3241,2.3155,2.3263,2.3233,2.3352,2.3543,2.4105,2.4567,2.4567,2.5342,2.5453,2.5287,2.4657,2.4347,2.4232,2.2994,2.2216,2.1916,2.1185,2.0447,1.9926,1.9824,1.9798,1.9698,1.9309,1.9044,1.8806,1.8046,1.7624,1.7418,1.6892,1.6538,1.6522,1.6543,1.6543,1.65,1.648,1.6697,1.7042,1.6619,1.5951,1.5024,1.4493,1.4451,1.469,1.4318,1.4154,1.4679,1.5372,1.561,1.5314,1.5566,1.5785,1.5814,1.5814,1.5814,1.5814,1.5814,1.5814,1.5814,1.5814,1.5814,1.5814,1.5814,1.5814,1.5814,1.5814,1.5814,1.5814,1.5814,1.5814,1.5814,1.5814,1.5814,1.5814,1.5814,1.5814,1.5814,1.5814,1.5814,1.5814,1.5814,1.5885,1.608,1.6232,1.6562,1.6937,1.7031,1.6964,1.7355,1.767,1.6819,1.6076,1.5781,1.5595,1.5595,1.5595,1.5612,1.5595,1.5308,1.5031,1.4468,1.4215,1.3984,1.4122,1.4183,1.4312,1.4374,1.449,1.4702,2.4199,2.3753,2.374,2.4009,2.4386,2.4083,2.4192,2.4667,2.4696,2.4696,2.4838,2.5481,2.5824,2.5973,2.6561,2.689,2.6837,2.6162,2.5589,2.5053,2.4191,2.3717,2.3456,2.2554,2.1527,2.0562,2.0003,1.9798,1.9901,2.0103,2.0067,1.9675,1.936,1.877,1.8057,1.7428,1.6948,1.6581,1.6866,1.6888,1.6595,1.6866,1.6972,1.679,1.6935,1.6862,1.6557,1.604,1.5978,1.6315,1.5944,1.5669,1.5709,1.6124,1.6144,1.5684,1.5697,1.5814,1.5814,1.5829,1.5844,1.5829,1.5829,1.5814,1.5814,1.5844,1.5844,1.5844,1.5814,1.5814,1.5814,1.5814,1.5873,1.5814,1.5814,1.5814,1.5814,1.5814,1.5814,1.5814,1.5814,1.5814,1.5814,1.5814,1.5814,1.5814,1.5828,1.5899,1.5983,1.626,1.6313,1.6591,1.691,1.7368,1.7549,1.7732,1.7377,1.6819,1.6559,1.6356,1.6356,1.635,1.6367,1.6231,1.5944,1.5533,1.4955,1.4581,1.4406,1.4225,1.4347,1.4393,1.4373,1.4684,1.516,2.4795,2.4318,2.4305,2.4576,2.4995,2.4921,2.5087,2.5346,2.5645,2.5647,2.5578,2.6176,2.6496,2.6628,2.7265,2.756,2.7534,2.7086,2.664,2.6092,2.5215,2.4881,2.4719,2.3643,2.2564,2.163,2.1074,2.0754,2.0521,2.0904,2.0949,2.0674,2.0432,1.9997,1.918,1.8262,1.7587,1.7465,1.7368,1.7229,1.7201,1.7435,1.7524,1.7456,1.7727,1.7987,1.8115,1.7831,1.7597,1.7401,1.7099,1.6855,1.6734,1.6929,1.6906,1.6623,1.6503,1.6518,1.6488,1.6338,1.6278,1.6398,1.6278,1.6278,1.6443,1.6488,1.6503,1.6518,1.6548,1.6503,1.6533,1.6518,1.6518,1.6503,1.6069,1.5858,1.5814,1.5814,1.5814,1.5814,1.5814,1.5814,1.5814,1.5814,1.5814,1.5799,1.5898,1.6081,1.6191,1.6501,1.6617,1.6796,1.7236,1.7514,1.7542,1.7647,1.7777,1.7546,1.731,1.7185,1.7101,1.7101,1.7101,1.6925,1.6654,1.6282,1.5744,1.5326,1.5064,1.4859,1.4799,1.5224,1.5549,1.5774,1.6138,2.5401,2.5012,2.491,2.5103,2.5351,2.5972,2.6096,2.5706,2.6322,2.6442,2.6091,2.6691,2.6816,2.6849,2.7509,2.772,2.76,2.7534,2.7458,2.7071,2.6261,2.5671,2.5473,2.4442,2.3537,2.2898,2.2597,2.2245,2.1674,2.1742,2.1744,2.1647,2.1292,2.0959,2.0545,1.9276,1.8752,1.8851,1.8078,1.7828,1.8103,1.8139,1.8283,1.865,1.8741,1.8949,1.9251,1.9327,1.9004,1.8172,1.7934,1.7853,1.7756,1.7773,1.7712,1.7564,1.7652,1.7579,1.7519,1.7055,1.6965,1.7384,1.707,1.701,1.7414,1.7429,1.7444,1.7474,1.7504,1.7579,1.7564,1.7549,1.7549,1.7504,1.6608,1.6024,1.5873,1.5873,1.5814,1.5814,1.5814,1.5814,1.5814,1.5814,1.5814,1.5856,1.6038,1.6313,1.6581,1.6825,1.7332,1.7526,1.7549,1.7647,1.7658,1.767,1.7789,1.7749,1.7614,1.758,1.7563,1.7563,1.758,1.7422,1.7236,1.6891,1.6503,1.604,1.5771,1.5643,1.5891,1.6456,1.6642,1.668,1.6952,2.666,2.722,2.6622,2.705,2.7982,2.7919,2.8026,2.839,2.8585,2.8523,2.8513,2.8692,2.8406,2.8077,2.8189,2.8094,2.7735,2.76,2.7585,2.7534,2.7265,2.6743,2.6292,2.5499,2.4751,2.4155,2.3375,2.2602,2.2446,2.247,2.2443,2.2452,2.2267,2.1998,2.1511,2.0673,2.0078,1.983,1.9471,1.9027,1.8862,1.8809,1.8535,1.8355,1.8736,1.8983,1.9169,1.9512,1.9594,1.9292,1.92,1.8927,1.8491,1.8431,1.8252,1.7908,1.7773,1.7743,1.7697,1.7548,1.7564,1.7669,1.7578,1.7519,1.7669,1.7713,1.7713,1.7699,1.7699,1.7758,1.7743,1.7758,1.7743,1.7609,1.7041,1.6518,1.6398,1.6069,1.5814,1.5814,1.5873,1.5903,1.5873,1.5859,1.5844,1.5871,1.608,1.6367,1.6633,1.7039,1.7474,1.7474,1.7537,1.7692,1.7777,1.7777,1.7789,1.7789,1.7738,1.7732,1.7715,1.7715,1.7732,1.7698,1.758,1.7304,1.6982,1.659,1.6474,1.6457,1.6576,1.6878,1.7,1.7078,1.7602,2.7604,2.8509,2.799,2.8322,2.9155,2.9186,2.9319,2.9525,2.9858,2.9804,2.9592,2.9307,2.9157,2.8966,2.8427,2.8158,2.8004,2.772,2.7585,2.7585,2.7534,2.735,2.6952,2.6562,2.6109,2.5482,2.4708,2.4086,2.3612,2.3487,2.3361,2.3135,2.3076,2.2893,2.26,2.1757,2.1317,2.109,2.0668,2.022,2.0183,2.0113,1.9764,1.9377,1.9502,1.9562,1.9354,1.9548,1.969,1.9708,1.9678,1.9513,1.9181,1.9139,1.8927,1.8551,1.8538,1.8568,1.8461,1.8328,1.8283,1.8418,1.8343,1.8296,1.8491,1.8536,1.8536,1.858,1.8536,1.8553,1.8553,1.8553,1.8553,1.8521,1.7953,1.7443,1.7189,1.6832,1.6653,1.6608,1.6608,1.6458,1.6263,1.6189,1.6039,1.5974,1.6246,1.6434,1.6633,1.713,1.7536,1.7649,1.7617,1.7715,1.7789,1.7789,1.7789,1.7789,1.7789,1.7789,1.7789,1.7789,1.7789,1.7789,1.7789,1.7693,1.7379,1.7219,1.7376,1.7355,1.7285,1.7443,1.7729,1.7742,1.8243,2.8409,2.924,2.9146,2.9192,2.9445,3.0074,3.0118,2.9784,3.033,3.0342,2.9879,2.9235,2.943,2.9606,2.8663,2.8169,2.8532,2.7869,2.7645,2.7585,2.7585,2.7525,2.747,2.739,2.7096,2.6618,2.6647,2.5834,2.4966,2.4678,2.4253,2.3806,2.3634,2.3573,2.3264,2.2563,2.2428,2.2408,2.1653,2.1366,2.1504,2.1441,2.106,2.0688,2.0432,2.0199,1.98,1.9708,1.9723,1.9723,1.9723,1.9678,1.9648,1.9678,1.9648,1.957,1.9498,1.9543,1.9555,1.9046,1.9034,1.9363,1.9031,1.9031,1.939,1.9483,1.9465,1.945,1.9693,1.9543,1.9528,1.9618,1.9543,1.939,1.9016,1.8521,1.8057,1.7803,1.7699,1.7699,1.7684,1.7385,1.704,1.6771,1.6622,1.6608,1.6853,1.7164,1.7313,1.7631,1.7923,1.8047,1.794,1.7777,1.7789,1.7789,1.7789,1.7789,1.7789,1.7789,1.7789,1.7789,1.7789,1.7789,1.7789,1.7789,1.771,1.7767,1.7945,1.8091,1.792,1.8439,1.897,1.8736,1.8948,2.9597,3.0896,3.0299,3.0389,3.094,3.1161,3.113,3.0982,3.117,3.1137,3.1017,3.0883,3.0569,3.0268,2.9457,2.8996,2.8592,2.7959,2.76,2.7585,2.7585,2.7585,2.7585,2.7585,2.751,2.724,2.6836,2.6437,2.5989,2.5158,2.4545,2.4335,2.3894,2.3595,2.3507,2.3323,2.3256,2.3274,2.2631,2.2349,2.2312,2.2024,2.1724,2.1455,2.0991,2.0378,1.9872,1.9723,1.9723,1.9723,1.9723,1.9723,1.9723,1.9723,1.9723,1.9723,1.9723,1.9723,1.9678,1.9558,1.9528,1.9633,1.9558,1.9543,1.9648,1.9723,1.9723,1.9723,1.9723,1.9723,1.9723,1.9723,1.9723,1.9663,1.9558,1.9393,1.9136,1.8343,1.7893,1.7803,1.7803,1.7669,1.7503,1.7521,1.7448,1.7344,1.7624,1.801,1.8171,1.8264,1.8444,1.8633,1.8459,1.8346,1.8346,1.8363,1.8363,1.8346,1.8278,1.8228,1.8211,1.7935,1.7986,1.7918,1.7789,1.7789,1.7789,1.785,1.7928,1.8222,1.8487,1.8762,1.9007,1.9164,1.9297,3.0055,3.1394,3.1014,3.1087,3.1467,3.1496,3.1496,3.1496,3.1496,3.1496,3.1421,3.1197,3.0987,3.0868,3.0043,2.9355,2.8903,2.8034,2.7585,2.7585,2.7585,2.7585,2.7585,2.7585,2.7585,2.754,2.7285,2.6956,2.6437,2.5884,2.5262,2.4634,2.4253,2.3909,2.364,2.361,2.3558,2.355,2.331,2.3122,2.3026,2.2802,2.2383,2.1994,2.1276,2.0498,2.0243,1.9839,1.9753,1.9723,1.9723,1.9723,1.9723,1.9723,1.9723,1.9723,1.9723,1.9723,1.9723,1.9723,1.9708,1.9723,1.9723,1.9723,1.9723,1.9723,1.9723,1.9723,1.9723,1.9723,1.9723,1.9723,1.9723,1.9723,1.9723,1.9723,1.9588,1.9046,1.8642,1.8642,1.8717,1.8493,1.8343,1.8326,1.8218,1.8114,1.8532,1.8905,1.8963,1.9064,1.9231,1.9301,1.9106,1.8988,1.8988,1.9022,1.9106,1.914,1.9174,1.9157,1.9157,1.8713,1.8251,1.8087,1.7901,1.7789,1.7811,1.7872,1.7954,1.8198,1.844,1.8688,1.8896,1.9058,1.9204,3.0147,3.1346,3.1361,3.1406,3.1496,3.1496,3.1496,3.1496,3.1496,3.1496,3.1421,3.0868,3.1062,3.1122,3.0283,2.9726,2.9142,2.8438,2.7839,2.76,2.7585,2.7585,2.7585,2.7585,2.7585,2.7585,2.7525,2.724,2.6886,2.6572,2.5944,2.5083,2.4799,2.444,2.3939,2.3759,2.3744,2.3625,2.3535,2.3505,2.352,2.346,2.3161,2.2508,2.1799,2.1096,2.0842,2.0438,2.0097,2.0007,1.9899,1.9872,1.9842,1.9723,1.9723,1.9723,1.9723,1.9723,1.9723,1.9723,1.9723,1.9723,1.9723,1.9723,1.9723,1.9723,1.9723,1.9723,1.9723,1.9723,1.9723,1.9723,1.9723,1.9723,1.9723,1.9723,1.9723,1.9723,1.9573,1.9573,1.9381,1.9156,1.918,1.9214,1.9042,1.9013,1.9434,1.9761,1.9837,1.9834,1.9969,1.9942,1.9731,1.9495,1.9461,1.9529,1.963,1.9778,1.9866,1.9883,1.9866,1.9439,1.8865,1.8239,1.802,1.7952,1.7873,1.7889,1.8014,1.8187,1.8403,1.867,1.8852,1.8983,1.9196,2.9978,3.0672,3.0672,3.0972,3.1451,3.1496,3.1496,3.1496,3.1496,3.1496,3.1481,3.1376,3.1346,3.1271,3.0761,2.9819,2.9041,2.8457,2.8053,2.7675,2.7585,2.7585,2.7585,2.7585,2.7585,2.7585,2.7585,2.748,2.727,2.6856,2.6492,2.6153,2.5704,2.5106,2.4545,2.438,2.4051,2.3655,2.3595,2.3595,2.3595,2.3565,2.3355,2.2823,2.2343,2.1979,2.1605,2.1425,2.1365,2.1321,2.0842,2.0602,2.0453,2.0079,1.9842,1.9723,1.9723,1.9723,1.9723,1.9723,1.9723,1.9723,1.9723,1.9723,1.9723,1.9723,1.9723,1.9723,1.9723,1.9723,1.9723,1.9723,1.9708,1.9708,1.9762,1.978,1.978,1.978,1.9833,1.9904,1.9839,1.9844,1.9928,2.0059,2.0083,2.0129,2.0462,2.0784,2.096,2.0786,2.0627,2.0525,2.0335,2.0086,1.9883,1.9985,2.0103,2.0234,2.0335,2.0339,2.0255,2.0002,1.9541,1.913,1.8538,1.8205,1.8104,1.8138,1.8316,1.8706,1.8746,1.8759,1.9237,1.9694,1.9575,3.0148,3.0987,3.1002,3.1197,3.1466,3.1496,3.1496,3.1496,3.1496,3.1496,3.1496,3.1496,3.1496,3.1406,3.1197,3.03,2.9325,2.8712,2.8233,2.772,2.7585,2.7585,2.7585,2.7585,2.7585,2.7585,2.7585,2.7585,2.757,2.7315,2.6941,2.6557,2.6228,2.563,2.4814,2.456,2.4231,2.3774,2.3625,2.361,2.3595,2.3595,2.3385,2.3206,2.2868,2.2538,2.2269,2.1799,2.1695,2.1605,2.1395,2.1261,2.1111,2.0872,2.0412,1.9917,1.9753,1.9723,1.9723,1.9723,1.9723,1.9723,1.9738,1.9723,1.9723,1.9723,1.9783,1.9753,1.9723,1.9723,1.9723,1.9768,1.98,1.9965,2.003,2.0166,2.0258,2.0139,2.0189,2.0273,2.021,2.0314,2.0632,2.0798,2.1038,2.1291,2.1492,2.169,2.1868,2.1659,2.1317,2.1284,2.1164,2.1062,2.0829,2.0812,2.0826,2.0876,2.0927,2.0914,2.091,2.0775,2.0602,2.031,1.9638,1.9017,1.9021,1.9279,1.9276,1.9288,1.9598,1.9888,2.0163,2.0326,2.0273,3.0148,3.1286,3.1301,3.1376,3.1481,3.1496,3.1496,3.1496,3.1496,3.1496,3.1496,3.1496,3.1496,3.1496,3.1361,3.0838,2.9729,2.9101,2.8487,2.7929,2.766,2.7585,2.7585,2.7585,2.7585,2.7585,2.7585,2.7585,2.7585,2.7525,2.727,2.7016,2.6821,2.6243,2.5322,2.5217,2.4567,2.4007,2.3804,2.3774,2.364,2.3595,2.3595,2.358,2.3116,2.2897,2.2838,2.2508,2.2283,2.2173,2.2024,2.1889,2.1874,2.1769,2.1201,2.0322,2.0007,1.9857,1.9723,1.9723,1.9798,1.9989,1.9929,1.9989,2.0187,2.0337,2.0217,2.0079,2.0172,2.0247,2.0322,2.0168,2.0394,2.0668,2.0824,2.0822,2.0997,2.1,2.0906,2.0874,2.0697,2.0813,2.1118,2.1213,2.1399,2.169,2.1884,2.1945,2.212,2.2166,2.199,2.2071,2.2076,2.206,2.1958,2.184,2.1789,2.1721,2.1738,2.1738,2.1738,2.1688,2.1465,2.1207,2.1008,2.05,2.0476,2.0208,1.9975,2.0049,2.0589,2.0909,2.0979,2.1088,2.1113,2.946,3.0627,3.0627,3.0943,3.1466,3.1496,3.1496,3.1496,3.1496,3.1496,3.1496,3.1496,3.1496,3.1496,3.1496,3.1047,3.0357,2.9654,2.8996,2.8353,2.7854,2.7585,2.7585,2.7585,2.7585,2.7585,2.7585,2.7585,2.7585,2.7585,2.757,2.7405,2.7315,2.7046,2.6183,2.6048,2.5719,2.4709,2.447,2.4186,2.3723,2.3625,2.3595,2.3565,2.349,2.34,2.3385,2.3191,2.3176,2.3176,2.2808,2.2613,2.2493,2.1999,2.1744,2.1335,2.0932,2.0348,1.9992,1.9947,2.0124,2.0498,2.0583,2.0917,2.1066,2.1235,2.1231,2.147,2.138,2.1261,2.122,2.135,2.1656,2.1858,2.1962,2.196,2.2046,2.2069,2.1956,2.1664,2.1551,2.1451,2.1554,2.163,2.1703,2.2017,2.2268,2.2282,2.2313,2.2313,2.2313,2.2313,2.2313,2.2313,2.2313,2.2313,2.2313,2.2313,2.2313,2.2313,2.2195,2.2076,2.2161,2.1924,2.1789,2.1471,2.1028,2.071,2.0516,2.0847,2.1472,2.162,2.1634,2.1778,2.2044,2.934,3.0492,3.0492,3.0896,3.1466,3.1496,3.1496,3.1496,3.1496,3.1496,3.1496,3.1496,3.1496,3.1496,3.1496,3.1107,3.0492,2.9879,2.922,2.8607,2.7989,2.7615,2.7585,2.7585,2.7585,2.7585,2.7585,2.7585,2.7585,2.7585,2.7585,2.7585,2.7555,2.724,2.6746,2.6617,2.6033,2.533,2.4814,2.447,2.4141,2.3819,2.3595,2.3595,2.3595,2.3595,2.3595,2.3595,2.3595,2.355,2.3281,2.3242,2.3161,2.2906,2.2667,2.2254,2.2009,2.153,2.0976,2.0827,2.0961,2.1141,2.1291,2.1395,2.165,2.1739,2.1739,2.168,2.168,2.1724,2.1754,2.1695,2.2141,2.2518,2.2931,2.3231,2.3226,2.3144,2.3047,2.2713,2.2421,2.2322,2.2202,2.2095,2.2089,2.2106,2.2282,2.2282,2.2313,2.2313,2.2313,2.2313,2.2313,2.2313,2.2313,2.2313,2.2313,2.2313,2.2313,2.2313,2.2313,2.2279,2.2313,2.2296,2.2124,2.1783,2.1417,2.1519,2.1633,2.1996,2.2371,2.2524,2.2685,2.3052,2.3272,2.9011,3.0043,3.0372,3.0806,3.1271,3.1436,3.1496,3.1496,3.1496,3.1496,3.1496,3.1496,3.1496,3.1496,3.1466,3.1241,3.0761,3.0103,2.946,2.8801,2.8214,2.7794,2.7645,2.7585,2.7585,2.7585,2.7585,2.7585,2.7585,2.7585,2.7585,2.7585,2.7585,2.736,2.7031,2.6881,2.6542,2.5899,2.5217,2.4829,2.4515,2.4096,2.3797,2.367,2.3595,2.3595,2.3595,2.3595,2.3595,2.358,2.3565,2.3505,2.349,2.3415,2.3266,2.2966,2.2802,2.2658,2.2143,2.1874,2.1844,2.1919,2.2143,2.2278,2.2263,2.2158,2.2188,2.2323,2.2308,2.2278,2.2173,2.2233,2.2854,2.339,2.3754,2.4179,2.4493,2.4347,2.4049,2.3643,2.3367,2.3232,2.3059,2.2729,2.2552,2.235,2.2313,2.2313,2.2313,2.2313,2.2313,2.2313,2.2313,2.2313,2.2313,2.2313,2.2313,2.2313,2.2313,2.2313,2.2313,2.2313,2.2313,2.2296,2.2324,2.2296,2.2048,2.2452,2.2818,2.2929,2.311,2.3562,2.3881,2.4151,2.4163,2.8094,2.8816,2.9998,3.0522,3.0657,3.1256,3.1496,3.1496,3.1496,3.1496,3.1496,3.1496,3.1496,3.1496,3.1496,3.1451,3.1361,3.0746,3.0088,2.9445,2.8846,2.8259,2.7944,2.7735,2.7645,2.7585,2.7585,2.7585,2.7585,2.7585,2.7585,2.7585,2.7585,2.757,2.7465,2.7315,2.7106,2.6482,2.5869,2.5262,2.4933,2.456,2.4261,2.3774,2.364,2.361,2.3595,2.3595,2.3595,2.3595,2.3595,2.3595,2.3595,2.3595,2.3475,2.3415,2.337,2.3281,2.3041,2.2488,2.2194,2.2577,2.2981,2.3191,2.3116,2.3347,2.3437,2.3363,2.3343,2.336,2.3408,2.3565,2.392,2.4279,2.4613,2.4985,2.5297,2.5427,2.5092,2.4596,2.4291,2.411,2.3823,2.3479,2.2987,2.2767,2.233,2.2313,2.2313,2.2313,2.2313,2.2313,2.2313,2.2313,2.2313,2.2313,2.2313,2.2313,2.2313,2.2313,2.2313,2.2313,2.2313,2.2335,2.2374,2.255,2.2721,2.2835,2.3045,2.3448,2.3767,2.3976,2.4084,2.417,2.4199,2.775,2.8109,2.9385,3.0163,3.0567,3.1227,3.1496,3.1496,3.1496,3.1496,3.1496,3.1496,3.1496,3.1496,3.1496,3.1496,3.1391,3.0821,3.0402,3.0028,2.949,2.8846,2.8412,2.8128,2.8049,2.7735,2.763,2.7585,2.7585,2.76,2.76,2.7585,2.7585,2.7585,2.7585,2.7585,2.7405,2.7151,2.6611,2.6033,2.5869,2.5352,2.4889,2.4276,2.4201,2.3947,2.3663,2.361,2.3595,2.3595,2.3595,2.3595,2.3595,2.3595,2.3595,2.3595,2.3595,2.3595,2.3595,2.3137,2.3047,2.3116,2.3445,2.3616,2.3681,2.3879,2.4038,2.4148,2.4348,2.4369,2.4122,2.4358,2.4776,2.5131,2.5424,2.5731,2.5965,2.6067,2.5913,2.5304,2.5067,2.4916,2.4578,2.4237,2.3663,2.3156,2.2685,2.233,2.2398,2.2313,2.2313,2.2313,2.2313,2.2313,2.2313,2.2313,2.2313,2.2313,2.2313,2.2313,2.2313,2.2313,2.231,2.2346,2.244,2.2616,2.2789,2.2947,2.3224,2.3621,2.3896,2.4074,2.4161,2.419,2.4199,2.7585,2.7764,2.9052,2.9861,3.0313,3.1122,3.1496,3.1496,3.1496,3.1496,3.1496,3.1496,3.1496,3.1496,3.1496,3.1496,3.1391,3.1047,3.0731,3.0387,2.9998,2.949,2.9101,2.8846,2.8723,2.8214,2.7944,2.7919,2.7974,2.772,2.7615,2.7585,2.7585,2.7585,2.7585,2.7585,2.7585,2.745,2.721,2.6722,2.6542,2.6138,2.5561,2.4933,2.4694,2.438,2.3962,2.3767,2.3595,2.3595,2.3595,2.3595,2.3595,2.3595,2.3595,2.3595,2.3595,2.3595,2.3616,2.3773,2.3822,2.3846,2.384,2.3879,2.3927,2.4199,2.4287,2.4389,2.4812,2.5067,2.4672,2.491,2.5221,2.5486,2.5635,2.5917,2.6301,2.6488,2.6285,2.5981,2.5845,2.5744,2.5473,2.5117,2.4458,2.3849,2.3224,2.2868,2.2767,2.26,2.2313,2.2313,2.2313,2.2313,2.2313,2.2313,2.2313,2.2313,2.2313,2.2313,2.2313,2.2313,2.231,2.2321,2.2453,2.2686,2.2933,2.3165,2.3477,2.3806,2.3996,2.4161,2.417,2.4199,2.4199,2.7585,2.7764,2.9022,2.9606,2.9819,3.1001,3.1496,3.1496,3.1496,3.1496,3.1496,3.1496,3.1496,3.1496,3.1496,3.1496,3.1496,3.1406,3.1137,3.0702,3.0582,3.0118,2.9759,2.9562,2.9427,2.9382,2.8936,2.8577,2.8577,2.8199,2.7899,2.7779,2.7869,2.7675,2.7615,2.7585,2.7585,2.7585,2.7525,2.7165,2.6811,2.6617,2.6213,2.5644,2.5173,2.4874,2.456,2.4223,2.4044,2.4014,2.3834,2.3833,2.3904,2.3698,2.3631,2.3681,2.3616,2.3595,2.3644,2.4116,2.4307,2.4307,2.4246,2.4389,2.4389,2.4491,2.4632,2.4851,2.5144,2.5281,2.524,2.5297,2.5633,2.5744,2.5906,2.6139,2.6522,2.6691,2.6488,2.637,2.6539,2.659,2.6353,2.5998,2.5321,2.4628,2.3866,2.346,2.3325,2.3139,2.2885,2.26,2.26,2.2415,2.2415,2.233,2.2313,2.2313,2.2313,2.2313,2.2313,2.2313,2.231,2.2307,2.2426,2.2634,2.3044,2.3437,2.3742,2.3996,2.4084,2.419,2.4199,2.4199,2.4199,2.7585,2.7675,2.8547,2.919,2.9756,3.0971,3.1496,3.1496,3.1496,3.1496,3.1496,3.1496,3.1496,3.1496,3.1496,3.1496,3.1496,3.1496,3.1241,3.1182,3.1135,3.0746,3.0372,3.0163,3.0041,2.9666,2.9295,2.925,2.9277,2.8873,2.8903,2.8873,2.8393,2.8019,2.772,2.7585,2.7585,2.7585,2.757,2.7465,2.7285,2.721,2.6941,2.6258,2.5959,2.5644,2.5309,2.4965,2.4799,2.4755,2.4575,2.4467,2.4535,2.434,2.3943,2.4003,2.3952,2.3794,2.4122,2.4556,2.4712,2.4704,2.4752,2.493,2.4934,2.5297,2.5392,2.5505,2.5799,2.5908,2.5817,2.6104,2.6297,2.605,2.6174,2.6419,2.6691,2.6691,2.6623,2.6607,2.6691,2.6708,2.6556,2.6454,2.593,2.5557,2.4863,2.4355,2.4135,2.4017,2.3814,2.3325,2.3071,2.2736,2.2533,2.2431,2.233,2.2313,2.2313,2.2313,2.2313,2.2313,2.2313,2.231,2.2429,2.2598,2.308,2.3544,2.3917,2.4161,2.419,2.4199,2.4199,2.4199,2.4199,2.7585,2.7675,2.8308,2.8981,2.9726,3.0731,3.1271,3.1466,3.1496,3.1496,3.1496,3.1496,3.1496,3.1496,3.1496,3.1496,3.1496,3.1496,3.1496,3.1496,3.1481,3.1182,3.0943,3.0793,3.0717,3.0253,2.9983,2.9894,2.9864,2.9696,2.9532,2.9382,2.9146,2.8607,2.8139,2.7824,2.7585,2.7585,2.7585,2.7585,2.7525,2.7495,2.7375,2.7001,2.6696,2.6468,2.6186,2.5937,2.5731,2.5735,2.5614,2.5443,2.5435,2.5391,2.5045,2.5212,2.5212,2.5051,2.5224,2.599,2.6185,2.6027,2.5709,2.5481,2.5486,2.5726,2.5852,2.6067,2.6554,2.652,2.645,2.6742,2.664,2.6381,2.6418,2.6674,2.6691,2.6691,2.6708,2.6708,2.6708,2.6708,2.6708,2.6691,2.6471,2.62,2.5879,2.5388,2.4897,2.4728,2.4541,2.4068,2.3562,2.3207,2.2835,2.2482,2.2398,2.2313,2.2398,2.2516,2.2313,2.2313,2.2313,2.2327,2.2466,2.2703,2.3165,2.3599,2.3996,2.418,2.419,2.4199,2.4199,2.4199,2.4199,2.7585,2.769,2.8293,2.8951,2.9666,3.0387,3.0957,3.1481,3.1496,3.1496,3.1496,3.1496,3.1496,3.1496,3.1496,3.1496,3.1496,3.1496,3.1496,3.1496,3.1496,3.1406,3.1421,3.1361,3.1212,3.1137,3.0898,3.0552,3.0462,3.0238,2.9953,2.9699,2.9654,2.919,2.8678,2.8259,2.7884,2.7705,2.7585,2.7585,2.7585,2.7585,2.7525,2.7325,2.7169,2.7202,2.7024,2.6765,2.6581,2.6571,2.6616,2.6614,2.6741,2.7074,2.7267,2.7302,2.7139,2.6718,2.6603,2.7378,2.7792,2.7482,2.6834,2.6361,2.6297,2.6601,2.6738,2.6795,2.7093,2.7012,2.6962,2.6928,2.686,2.6759,2.6691,2.6725,2.6708,2.6708,2.6708,2.6708,2.6708,2.6708,2.6708,2.6708,2.6708,2.6573,2.6302,2.6132,2.5659,2.5269,2.5049,2.4694,2.4188,2.3697,2.3325,2.3071,2.3038,2.3139,2.2936,2.2936,2.2665,2.2703,2.3073,2.3167,2.2702,2.2803,2.333,2.3753,2.4094,2.4218,2.4236,2.4199,2.4199,2.4199,2.4199,2.7585,2.7615,2.7809,2.8558,2.9669,3.0761,3.1346,3.1496,3.1496,3.1496,3.1496,3.1496,3.1496,3.1496,3.1496,3.1496,3.1496,3.1496,3.1496,3.1496,3.1496,3.1496,3.1496,3.1496,3.1496,3.1436,3.1286,3.1122,3.1152,3.0883,3.0567,3.0328,3.0321,2.9931,2.951,2.9139,2.8531,2.7965,2.78,2.7645,2.764,2.765,2.7635,2.759,2.7878,2.799,2.8008,2.8208,2.8187,2.8399,2.8075,2.7976,2.8452,2.7853,2.7387,2.7407,2.7396,2.7397,2.7656,2.802,2.8448,2.8831,2.8333,2.8269,2.8135,2.8015,2.7964,2.7832,2.7852,2.7874,2.7791,2.7706,2.7571,2.7452,2.7249,2.6928,2.6877,2.6759,2.6742,2.6708,2.6708,2.6708,2.6708,2.6708,2.6708,2.6708,2.664,2.6505,2.6336,2.593,2.5642,2.532,2.4915,2.4458,2.4237,2.4,2.3966,2.3917,2.3663,2.3606,2.3779,2.3898,2.4159,2.414,2.3894,2.3633,2.3553,2.4031,2.4694,2.4337,2.4281,2.4226,2.4218,2.4263,2.4236,2.7585,2.7585,2.7585,2.8378,2.9666,3.0672,3.1227,3.1451,3.1496,3.1496,3.1496,3.1496,3.1496,3.1496,3.1496,3.1496,3.1496,3.1496,3.1496,3.1496,3.1496,3.1496,3.1496,3.1496,3.1496,3.1496,3.1496,3.1406,3.1553,3.1495,3.1182,3.0999,3.1078,3.0891,3.0659,3.0602,3.0068,2.9139,2.8399,2.792,2.778,2.7865,2.7919,2.8052,2.8543,2.888,2.9111,2.9496,2.9496,2.9695,2.9248,2.9279,2.9659,2.9108,2.8684,2.8794,2.8979,2.8983,2.9079,2.9335,2.9578,2.9728,2.9822,2.9854,2.9497,2.919,2.8955,2.8737,2.8839,2.8891,2.8756,2.862,2.8433,2.8281,2.7757,2.7232,2.7029,2.6843,2.6776,2.6725,2.6708,2.6708,2.6708,2.6708,2.6708,2.6708,2.6708,2.6657,2.659,2.6454,2.6268,2.6048,2.5659,2.5253,2.5066,2.4795,2.4575,2.4423,2.4237,2.4281,2.4688,2.4873,2.4882,2.5086,2.5251,2.4967,2.4664,2.4996,2.5419,2.5052,2.4961,2.5199,2.5034,2.452,2.4428,2.7585,2.76,2.766,2.8453,2.9579,3.0283,3.0898,3.1466,3.1496,3.1496,3.1496,3.1496,3.1496,3.1496,3.1496,3.1496,3.1496,3.1496,3.1496,3.1496,3.1496,3.1496,3.1496,3.1496,3.1496,3.1496,3.1653,3.1894,3.1796,3.1908,3.2018,3.171,3.2262,3.226,3.1903,3.2173,3.1675,3.0688,2.9715,2.9093,2.8303,2.8305,2.8583,2.8662,2.9157,2.9651,2.9973,2.9995,2.9805,3.0187,3.036,3.0315,3.0447,3.0613,3.0423,3.0381,3.0384,3.0303,3.0261,3.0448,3.0757,3.0951,3.1173,3.092,3.0446,3.0076,2.9771,2.9687,2.9754,2.9771,2.967,2.9365,2.9127,2.8873,2.8467,2.8078,2.7858,2.7486,2.6996,2.6894,2.6708,2.6708,2.6708,2.6708,2.6708,2.6708,2.6708,2.6708,2.6708,2.6708,2.664,2.6556,2.6251,2.5879,2.5727,2.5455,2.5066,2.4863,2.486,2.5149,2.5672,2.5681,2.5546,2.5923,2.6326,2.6169,2.6011,2.6114,2.6098,2.6117,2.6117,2.64,2.6051,2.5318,2.5089,2.7585,2.7645,2.8169,2.8861,2.9651,3.0238,3.0868,3.1481,3.1496,3.1496,3.1496,3.1496,3.1496,3.1496,3.1496,3.1496,3.1496,3.1496,3.1496,3.1496,3.1496,3.1496,3.1524,3.1582,3.1553,3.1682,3.2007,3.2559,3.2772,3.2944,3.305,3.305,3.3339,3.3175,3.3057,3.3382,3.2953,3.2112,3.1672,3.0579,2.9503,2.9124,2.9203,2.9377,2.9793,3.0102,3.0414,3.0658,3.0736,3.0995,3.0995,3.0978,3.1015,3.1151,3.1123,3.1004,3.1055,3.0987,3.0987,3.1038,3.1157,3.119,3.119,3.119,3.1038,3.0784,3.0615,3.0601,3.0584,3.0567,3.0465,3.0108,2.9803,2.9516,2.9161,2.8924,2.8653,2.796,2.73,2.6979,2.6759,2.6708,2.6708,2.6708,2.6708,2.6708,2.6708,2.6708,2.6708,2.6708,2.6708,2.664,2.6657,2.6404,2.6268,2.6197,2.5887,2.5939,2.6056,2.6347,2.666,2.6866,2.7015,2.7164,2.7364,2.7173,2.6906,2.6574,2.6612,2.6914,2.6987,2.7152,2.6987,2.6382,2.6227,2.7585,2.7645,2.8004,2.8738,2.9549,2.9953,3.0642,3.1391,3.1496,3.1496,3.1496,3.1496,3.1496,3.1496,3.1496,3.1524,3.1524,3.1496,3.1496,3.1496,3.1611,3.1496,3.1582,3.1853,3.2007,3.2176,3.2707,3.3261,3.3659,3.3556,3.3531,3.371,3.3811,3.4021,3.4071,3.4203,3.4105,3.3527,3.3435,3.2569,3.1126,3.0741,3.0346,3.0435,3.0523,3.0734,3.0777,3.1035,3.1112,3.119,3.1151,3.1151,3.1151,3.1171,3.119,3.1157,3.1173,3.119,3.119,3.119,3.119,3.119,3.119,3.119,3.119,3.0954,3.0954,3.092,3.092,3.092,3.0922,3.0649,3.0598,3.0412,2.9803,2.933,2.8687,2.7891,2.7283,2.6843,2.6708,2.6708,2.6708,2.6708,2.6708,2.6708,2.6708,2.6708,2.6708,2.6708,2.6708,2.6708,2.6708,2.6708,2.6556,2.667,2.6811,2.6949,2.7068,2.733,2.7543,2.8154,2.8549,2.8301,2.8168,2.8175,2.7857,2.7475,2.7611,2.7996,2.7941,2.7831,2.7611,2.7464,2.7446,2.7585,2.7585,2.76,2.8319,2.9412,2.9592,3.0268,3.1241,3.1466,3.1496,3.1496,3.1496,3.1496,3.1496,3.1625,3.164,3.1768,3.2076,3.1936,3.1936,3.1951,3.2132,3.2284,3.2422,3.2707,3.305,3.3479,3.3786,3.4103,3.4087,3.4137,3.4012,3.4284,3.4719,3.4918,3.5138,3.5107,3.4715,3.4489,3.4263,3.3372,3.2436,3.1896,3.1603,3.1465,3.1357,3.1343,3.1224,3.1224,3.119,3.119,3.119,3.119,3.119,3.119,3.119,3.119,3.119,3.119,3.119,3.119,3.119,3.119,3.119,3.119,3.119,3.119,3.119,3.119,3.119,3.1173,3.1157,3.114,3.1072,3.0362,2.9753,2.8906,2.8162,2.7655,2.7114,2.6894,2.6911,2.6725,2.6725,2.6708,2.6708,2.6708,2.6708,2.6708,2.6708,2.6708,2.6708,2.6708,2.6708,2.6774,2.6971,2.7225,2.7409,2.7532,2.7964,2.8342,2.8633,2.8839,2.8904,2.8803,2.8693,2.873,2.8491,2.8748,2.8785,2.862,2.8381,2.8436,2.8381,2.8638,2.7585,2.7585,2.7585,2.8079,2.8816,2.9382,3.0013,3.0717,3.1271,3.1496,3.1524,3.1496,3.1496,3.1524,3.216,3.2367,3.2434,3.2745,3.3103,3.3235,3.2917,3.305,3.3182,3.3209,3.3694,3.4046,3.4358,3.4664,3.4752,3.4981,3.5161,3.5115,3.5178,3.5362,3.5402,3.5577,3.5498,3.5284,3.5284,3.5093,3.4796,3.395,3.3203,3.2816,3.2418,3.2226,3.1972,3.1461,3.1275,3.119,3.1224,3.1241,3.119,3.119,3.119,3.119,3.119,3.119,3.119,3.119,3.119,3.119,3.119,3.119,3.119,3.119,3.119,3.119,3.119,3.119,3.1173,3.1173,3.1173,3.1173,3.0768,3.0328,2.97,2.9311,2.8922,2.823,2.7621,2.7317,2.6843,2.6826,2.6776,2.6759,2.6708,2.6708,2.6708,2.6708,2.6725,2.6725,2.6741,2.6922,2.7098,2.721,2.7426,2.7651,2.7926,2.8255,2.8533,2.8749,2.8929,2.8975,2.8987,2.8895,2.8987,2.8987,2.8968,2.8913,2.895,2.8895,2.8987,2.8987,2.8987]}]]